GFSSW_sfc_rhum_000.txt.gz
RH
65 65 64 64 65 66 68 68 68 69 73 82 84 82 81 83 80 66 68 47 46 54 57 48 53 50 48 46 39 33 38 38 34 34 27 21 27 24 24 24 19 18 17 18 26
64 65 64 63 63 63 66 68 70 68 70 72 78 78 82 82 66 73 58 64 64 60 43 53 53 52 51 48 44 39 41 36 28 26 27 26 29 30 30 24 21 17 16 16 18
64 64 63 64 63 64 66 66 70 74 70 72 75 78 82 70 75 62 56 66 68 59 47 45 62 56 55 45 43 41 41 30 31 29 28 31 31 29 32 32 22 21 17 17 18
65 64 63 64 64 66 66 66 69 72 74 72 76 79 84 61 75 54 58 56 62 54 52 48 76 73 66 57 39 44 37 31 32 33 34 34 30 33 31 31 23 22 21 20 18
68 67 66 67 66 66 66 67 67 71 73 74 75 79 79 89 62 43 50 47 41 55 62 52 75 61 66 52 42 46 34 35 33 34 35 35 37 34 33 26 22 22 22 20 18
70 69 69 70 69 69 69 69 70 69 72 76 76 80 71 83 40 36 37 40 40 50 66 51 60 48 44 48 48 40 38 36 32 35 35 39 34 35 27 22 21 21 21 20 23
71 71 71 72 73 72 70 69 70 70 71 74 77 67 74 63 39 38 43 40 40 40 56 49 46 65 46 56 43 39 47 40 37 37 37 35 37 32 24 18 20 20 20 29 34
71 73 75 76 75 74 72 72 74 78 72 73 71 70 69 46 39 44 39 43 42 37 46 46 50 78 76 43 48 53 50 52 35 37 36 34 39 26 20 20 20 21 25 32 35
71 74 74 79 78 80 80 80 81 77 75 71 69 71 70 50 55 44 40 45 48 44 41 48 63 83 68 68 73 59 59 52 41 36 36 36 34 21 20 21 20 19 26 30 32
75 78 79 80 79 80 81 83 84 78 73 67 66 78 60 63 50 46 42 41 54 57 62 70 79 94 86 84 80 64 54 43 45 34 34 33 34 25 21 22 21 22 27 30 32
78 81 83 84 83 81 86 91 97 98 82 73 68 56 57 47 50 55 47 49 53 63 82 65 91 94 67 75 48 37 42 46 37 33 36 37 35 27 25 24 23 24 27 30 32
78 82 84 84 81 83 92 97 78 71 95 71 67 58 56 53 67 56 48 57 64 79 80 67 90 63 78 61 55 43 45 46 33 35 35 36 38 31 25 24 23 24 28 31 34
79 82 85 84 82 88 94 92 86 82 92 81 73 69 60 56 65 63 56 51 62 72 85 77 73 57 82 64 62 48 48 40 40 42 39 37 36 30 24 24 26 24 28 30 32
83 83 85 83 96 91 96 94 88 81 100 86 87 69 64 61 71 46 49 47 63 68 87 59 54 76 77 71 54 55 41 44 50 63 55 36 43 31 23 26 29 31 32 33 36
86 84 86 86 90 93 95 90 87 86 96 66 79 48 54 58 50 60 50 47 61 77 85 74 79 87 78 66 47 47 46 48 53 58 52 44 41 28 28 27 30 32 32 35 36
90 86 88 84 83 88 90 87 88 98 94 92 80 79 78 62 50 62 66 45 53 65 68 52 80 79 59 53 51 47 47 51 47 49 59 39 39 29 24 22 25 31 34 37 38
93 90 85 68 74 90 92 93 100 98 84 98 97 92 72 64 54 76 72 72 92 97 99 82 87 90 59 80 64 48 59 96 89 76 55 37 40 27 23 23 24 31 34 35 38
95 91 83 73 71 93 94 98 100 84 93 82 84 86 78 59 55 76 63 62 70 81 62 98 99 92 63 61 78 62 50 49 61 55 43 42 41 24 23 24 22 24 31 35 39
93 83 86 77 80 90 96 100 85 92 84 94 76 90 65 58 53 75 54 53 70 71 71 94 98 82 68 60 55 82 79 39 45 46 41 35 33 26 27 28 28 27 33 39 40
85 84 81 70 87 95 99 98 94 80 80 60 57 55 58 54 72 74 52 38 60 60 57 55 89 66 61 62 62 60 47 64 50 58 54 39 38 28 25 26 30 29 34 38 40
82 95 77 83 93 97 100 97 86 73 67 43 46 49 48 52 82 54 47 47 46 50 54 53 48 67 56 73 72 53 70 61 43 42 41 38 33 23 25 25 28 27 30 37 42
84 95 97 93 98 95 98 88 87 82 66 38 39 42 41 47 71 64 47 53 34 53 64 55 40 75 63 46 41 44 47 45 51 54 41 39 31 24 25 27 28 28 30 36 37
74 92 98 89 98 97 88 90 84 80 61 45 53 49 46 50 71 67 54 38 44 57 57 42 44 62 71 57 46 57 46 46 36 37 42 42 34 25 27 31 33 30 32 36 39
76 98 100 99 89 96 93 91 92 70 54 56 52 55 57 56 48 56 54 58 60 51 66 54 44 38 50 47 42 53 46 46 46 48 40 37 30 27 27 32 34 32 30 33 39
80 78 77 93 95 96 95 88 88 84 74 77 61 56 49 58 68 65 56 69 58 67 61 54 47 44 44 41 39 43 48 42 44 41 41 34 35 27 23 29 29 30 30 33 38
69 74 70 70 77 90 96 93 89 92 82 86 93 56 51 54 56 67 70 63 67 66 60 50 51 40 44 48 40 42 41 44 44 39 34 32 33 26 26 27 30 28 31 37 42
74 72 64 61 60 83 88 91 88 83 92 87 72 61 58 51 42 49 50 48 51 58 62 53 46 45 48 41 42 51 42 41 38 33 32 37 30 29 36 34 32 36 38 41 43

GFSSW_sfc_rhum_003.txt.gz
RH
66 65 65 64 64 64 65 67 68 69 76 79 80 81 83 84 79 62 59 42 44 54 55 41 38 40 39 42 35 31 37 37 30 28 24 19 22 19 20 21 18 15 15 15 16
67 65 64 64 64 64 64 65 68 70 70 73 79 83 84 81 60 67 51 58 60 62 44 40 41 35 47 43 38 39 39 34 23 21 23 20 23 24 25 22 20 17 14 14 14
68 65 65 64 64 64 66 65 68 71 74 71 74 79 83 71 69 58 52 57 62 61 48 39 39 46 48 42 38 39 40 27 24 22 23 24 25 22 27 29 22 20 17 15 16
67 66 65 64 66 66 65 66 67 69 72 72 75 79 84 58 64 47 58 55 58 50 50 44 42 63 57 52 36 40 32 29 26 25 28 30 25 26 26 26 21 21 20 19 19
67 68 68 67 68 68 67 67 67 66 70 74 76 78 71 73 57 43 51 41 37 50 52 48 42 46 66 45 44 42 32 27 27 25 28 28 30 30 29 23 20 19 19 20 19
68 70 70 70 72 71 70 68 69 68 68 73 78 82 66 76 32 32 34 35 36 42 52 48 41 34 44 54 48 41 34 31 28 28 28 32 30 28 26 22 20 18 16 17 17
68 70 73 72 73 75 74 71 70 68 69 70 74 63 64 54 31 30 33 35 32 33 42 44 40 42 42 54 42 42 45 36 32 29 29 29 36 32 24 21 16 14 14 17 22
70 71 75 75 76 76 76 74 72 73 72 72 71 59 78 36 32 35 34 35 32 32 36 36 40 44 54 64 69 52 58 62 37 32 29 33 44 25 19 16 17 17 18 23 27
74 71 73 77 79 81 81 79 78 76 73 70 66 68 69 48 49 35 33 37 32 36 36 34 47 58 60 96 92 78 73 65 45 30 31 34 37 23 19 17 18 16 16 22 27
80 78 80 81 82 84 84 83 80 80 68 62 64 80 54 57 42 40 35 37 38 39 46 49 62 71 74 88 92 75 70 52 54 33 33 35 35 26 19 19 20 16 18 23 26
83 82 83 84 83 82 80 91 93 97 87 79 70 52 49 41 40 50 37 44 42 45 64 56 80 85 58 75 67 54 60 48 42 31 32 36 32 25 22 21 22 19 21 24 27
83 83 83 81 80 84 77 91 74 77 94 69 55 56 45 47 59 52 40 53 52 62 48 68 88 51 42 53 74 63 56 44 42 32 33 31 31 25 24 24 22 19 21 25 29
82 82 80 80 81 88 81 77 81 78 95 84 74 64 53 57 57 53 46 49 47 57 52 68 60 44 43 58 83 56 62 53 45 35 33 34 40 35 28 22 21 19 21 24 27
82 80 80 85 86 65 78 73 88 86 100 86 92 80 64 76 78 44 42 46 54 57 48 56 46 61 48 69 72 81 56 37 41 43 48 35 37 25 24 23 23 21 24 26 28
86 81 83 84 80 92 94 88 90 91 98 63 86 54 63 83 44 44 39 50 58 53 69 68 68 80 63 65 72 79 54 39 45 46 55 51 45 29 22 24 25 22 26 28 29
90 86 86 84 77 72 83 83 89 99 95 82 75 82 75 80 53 45 47 45 41 55 67 52 55 60 62 64 80 63 56 55 47 45 56 37 39 28 25 22 20 23 27 30 31
92 90 82 54 66 80 86 89 100 98 75 97 97 86 74 76 61 60 70 76 85 99 100 78 80 83 73 93 91 71 79 81 71 65 47 30 36 28 20 19 18 25 28 30 32
94 92 81 54 68 83 93 98 100 64 75 90 94 95 98 62 53 53 74 85 61 79 88 92 85 85 72 89 91 81 67 46 57 52 39 34 41 26 20 18 18 23 27 30 33
96 95 90 75 73 90 96 100 83 68 88 95 94 98 98 72 38 45 68 83 46 64 98 85 90 76 83 66 64 83 72 38 38 34 36 36 28 22 22 23 20 23 28 32 33
85 87 79 57 77 96 99 97 86 69 86 82 84 60 73 64 46 53 62 49 42 45 69 88 96 87 86 67 81 69 41 53 41 50 46 35 30 29 25 24 24 23 28 31 33
86 91 58 68 89 99 98 96 78 69 78 60 44 45 40 41 44 49 44 32 33 40 71 86 93 92 88 77 83 83 67 46 33 35 38 40 33 21 22 21 24 23 25 30 34
87 90 85 89 99 96 97 92 82 79 80 53 31 32 31 32 42 45 38 34 26 37 92 76 91 97 92 46 46 58 59 40 42 48 36 36 32 19 20 23 23 22 25 28 33
88 67 96 89 98 97 82 91 85 83 68 49 38 33 28 34 44 42 39 29 36 40 68 55 75 96 92 61 51 60 43 39 36 34 38 36 32 20 20 25 25 24 24 29 33
73 96 100 99 85 90 94 94 94 72 68 43 38 37 41 40 34 44 44 34 40 36 67 56 53 47 48 43 51 64 54 39 37 42 36 34 29 23 23 26 27 26 26 30 33
77 82 71 96 95 91 92 88 95 89 68 46 60 47 47 44 42 54 42 42 40 53 49 58 53 38 34 33 40 43 48 50 49 42 41 32 31 24 22 23 24 25 27 30 34
82 56 68 81 72 83 93 92 95 84 67 76 88 48 46 42 36 45 39 42 58 51 55 55 58 42 45 40 36 40 39 42 43 41 38 32 31 22 22 21 23 24 26 30 33
86 62 59 59 60 74 83 86 86 81 83 58 74 68 49 42 33 34 32 39 45 49 63 67 64 46 49 42 43 49 38 38 38 35 34 40 32 24 28 27 26 26 28 30 32

GFSSW_sfc_rhum_006.txt.gz
RH
66 66 65 66 66 66 65 67 69 70 77 86 81 80 83 83 82 71 72 48 52 57 58 42 40 40 44 54 46 43 60 54 45 39 33 23 27 22 24 28 24 22 22 22 20
67 67 65 65 65 65 65 66 68 72 71 72 75 80 82 82 69 76 56 54 56 57 52 43 42 38 49 56 52 52 64 52 32 29 28 24 26 26 29 30 28 24 20 19 19
68 67 66 66 64 65 65 68 68 71 75 70 73 79 87 79 83 69 56 59 59 58 57 48 42 45 52 50 52 51 62 41 31 26 25 27 30 26 32 36 31 28 27 27 29
67 66 66 66 65 66 66 67 68 70 71 73 74 79 86 70 82 53 55 52 54 49 57 57 50 58 63 59 45 53 43 39 37 30 30 34 30 32 31 32 29 28 27 27 27
68 67 68 68 68 69 68 67 67 68 71 72 74 80 74 73 62 49 50 46 42 54 62 59 57 50 61 55 49 50 43 35 32 32 30 30 36 36 33 30 27 26 26 28 27
71 69 70 71 70 72 72 69 68 70 70 73 74 81 77 76 32 32 42 39 37 40 54 53 53 44 44 50 58 48 44 44 37 31 30 33 35 35 33 28 28 27 27 22 22
72 70 74 75 72 73 74 74 70 70 70 71 74 67 70 60 31 31 34 38 35 36 42 40 44 56 43 49 48 49 67 48 45 36 32 32 40 39 32 28 29 28 20 25 27
74 72 75 78 77 76 76 74 75 77 73 73 72 64 75 42 38 34 33 36 32 31 36 37 39 52 57 52 64 74 69 86 50 38 36 37 50 36 29 29 29 21 25 30 33
76 76 75 78 81 82 82 78 78 76 74 75 72 72 67 44 48 38 36 40 34 32 38 32 41 59 61 72 88 79 83 83 68 42 37 39 46 37 30 27 26 24 23 31 36
83 83 81 79 82 83 83 79 81 81 77 60 58 81 61 55 45 42 37 38 42 40 43 52 59 69 75 81 90 80 91 67 73 52 41 41 42 37 32 27 26 26 24 32 36
86 86 83 83 83 83 82 79 86 93 90 70 65 57 47 42 41 45 39 43 45 51 66 54 80 86 72 70 67 59 60 73 53 47 45 44 40 38 32 32 32 30 30 34 40
87 87 84 84 82 84 78 79 73 86 94 81 61 58 46 46 56 50 40 55 59 73 58 66 85 59 51 53 64 65 75 80 54 45 47 42 41 36 33 30 30 30 29 38 43
86 86 84 82 82 85 81 72 74 75 98 86 79 68 58 54 59 54 49 53 58 67 63 73 60 52 51 51 59 63 75 79 69 46 52 44 48 40 31 27 30 29 28 36 40
86 85 84 86 84 69 84 68 79 82 100 87 90 79 66 75 85 48 42 52 60 63 57 62 50 47 56 58 53 68 57 64 78 68 77 45 68 43 35 36 34 33 34 38 41
87 86 85 82 80 79 84 86 86 91 98 75 86 58 66 88 69 63 50 53 64 58 55 76 55 54 56 62 49 62 54 68 82 84 84 53 62 45 35 40 34 31 36 39 41
89 86 87 90 81 85 84 79 87 99 95 82 82 92 90 86 75 66 59 53 51 65 54 56 46 55 60 53 66 52 65 77 92 90 95 76 56 51 38 32 31 31 38 38 41
92 88 88 60 75 82 82 92 100 99 66 95 92 80 74 90 90 83 70 72 79 92 95 93 80 67 78 87 66 69 80 97 99 99 83 46 55 53 30 26 26 29 37 39 44
94 91 84 58 80 80 86 97 100 56 71 84 90 90 98 89 93 86 74 78 66 74 90 87 78 79 70 90 78 82 86 99 97 98 61 39 56 44 26 24 26 28 35 39 44
96 96 92 77 80 80 93 100 80 70 76 95 96 99 99 95 86 79 71 91 61 59 98 99 88 60 56 61 80 91 98 79 99 39 57 55 43 32 30 29 31 34 38 42 44
98 98 93 76 85 92 99 89 83 71 86 91 96 73 83 83 69 62 58 48 58 54 61 90 97 71 70 74 76 88 69 99 87 61 71 58 49 45 38 36 32 37 41 43 44
95 99 76 82 93 99 98 91 75 66 80 91 70 60 52 66 59 46 45 42 47 49 72 89 97 95 87 96 86 98 98 93 80 59 59 66 51 34 34 33 33 36 37 41 43
97 99 81 87 99 98 97 81 87 82 77 81 72 63 40 47 53 45 51 49 38 41 69 89 98 100 96 77 75 81 77 77 59 67 56 58 51 28 32 32 32 32 34 38 42
97 96 93 88 98 98 86 87 88 89 85 80 60 38 32 35 44 39 50 40 38 67 79 88 98 99 99 92 87 92 79 64 60 52 64 53 52 32 36 35 32 34 38 39 44
96 98 100 99 88 88 91 95 96 81 83 70 58 40 37 38 33 59 42 44 46 43 77 89 89 99 90 76 77 87 81 68 60 64 54 50 46 36 39 39 36 36 39 44 45
95 90 84 98 96 93 90 91 96 95 79 70 58 46 49 49 44 40 47 41 46 51 70 84 95 73 44 56 57 60 62 58 58 51 64 46 38 32 35 39 38 38 40 44 45
96 80 84 84 69 81 89 93 95 90 91 74 64 59 60 48 41 46 41 45 46 54 52 58 79 65 52 45 49 57 56 57 57 53 52 50 48 34 30 33 36 40 41 43 44
96 79 77 69 75 88 86 87 86 87 85 78 73 56 70 48 39 31 36 35 46 54 66 72 78 67 64 53 50 61 50 53 54 51 52 57 44 36 37 34 37 38 39 43 46

GFSSW_sfc_rhum_009.txt.gz
RH
65 65 64 64 65 65 66 66 68 72 72 82 86 82 84 86 85 81 85 64 63 55 55 48 43 46 51 62 64 64 81 76 66 52 42 33 29 27 26 30 32 28 28 25 32
66 66 65 64 65 65 65 66 68 70 75 73 75 87 84 84 78 87 68 62 58 56 60 59 56 48 63 70 72 74 87 71 49 43 40 34 32 28 31 38 38 32 26 27 31
66 68 67 65 64 64 65 66 68 69 72 76 74 80 87 77 84 77 63 65 62 56 66 66 62 57 69 60 73 73 76 59 47 39 36 34 35 32 39 42 37 35 31 34 27
68 67 67 67 66 65 66 66 67 68 71 74 74 78 86 81 92 64 52 51 57 56 66 71 72 75 75 84 56 81 60 55 51 45 43 42 34 37 37 37 33 34 33 34 31
71 68 67 68 69 68 69 67 67 67 67 73 75 79 84 93 79 58 49 49 52 60 70 75 81 76 76 70 71 73 58 50 46 45 41 38 40 38 40 35 32 30 31 33 34
75 72 70 70 71 71 73 71 69 68 70 70 74 80 90 94 46 48 51 48 44 58 72 71 72 63 66 61 64 59 58 52 46 45 41 40 40 43 39 36 35 33 34 35 31
77 75 76 72 73 72 73 74 74 70 69 69 70 73 88 77 44 44 47 50 45 44 50 51 61 61 66 72 57 61 72 60 60 48 51 46 46 44 38 36 37 36 35 28 35
78 78 78 78 75 78 76 75 76 78 73 71 71 81 92 50 51 48 43 43 42 41 44 44 44 55 63 62 67 77 79 88 61 58 50 47 61 40 36 40 40 38 36 33 38
80 81 79 79 81 83 84 78 77 78 75 72 85 91 87 53 60 50 47 45 42 41 43 34 49 63 70 83 88 92 86 91 79 56 54 48 56 43 38 38 41 39 30 40 43
83 84 84 82 82 83 83 78 77 78 77 68 66 85 70 62 53 50 47 45 49 52 53 60 69 82 88 92 89 73 91 67 85 65 60 64 57 45 39 38 41 34 31 45 46
84 87 87 84 84 84 87 92 92 96 93 83 78 64 46 51 47 56 48 52 54 62 82 66 91 87 83 78 76 65 66 66 62 57 62 57 59 46 39 43 40 36 40 50 51
85 87 89 86 84 85 87 90 84 84 94 80 76 66 52 49 61 56 48 63 67 77 77 81 85 70 64 64 70 73 87 86 66 62 74 64 58 48 42 39 41 39 43 51 54
85 90 88 87 86 92 92 74 82 71 93 80 81 81 70 59 67 64 56 61 72 85 80 87 65 54 62 66 73 76 89 82 76 65 67 76 74 56 44 39 37 38 37 46 49
86 89 87 88 89 91 89 77 82 72 100 80 87 79 70 71 83 54 49 56 69 83 74 80 60 59 62 72 65 80 57 59 66 72 89 68 83 62 48 42 38 40 45 51 51
87 89 88 75 85 90 92 87 84 89 97 75 80 62 66 83 72 71 51 62 78 72 74 82 69 70 71 64 60 70 52 57 64 80 84 76 89 56 44 44 40 47 46 48 48
89 88 89 85 91 95 86 79 86 96 94 90 84 87 87 88 76 63 66 59 68 85 75 72 54 62 61 50 48 58 72 72 75 80 98 85 85 68 46 39 36 41 46 47 49
92 89 89 70 91 89 82 91 99 96 66 92 90 83 79 82 86 75 92 94 98 100 98 83 89 75 81 83 71 74 80 94 99 98 88 72 94 76 43 37 34 37 45 47 49
94 91 82 66 86 84 92 96 98 68 78 79 83 77 95 75 86 81 98 98 88 85 93 96 92 76 80 79 76 83 77 86 94 86 68 78 99 60 40 34 30 39 43 47 54
95 96 90 88 82 78 94 99 85 71 76 94 94 99 99 90 84 95 97 97 70 78 91 94 90 65 59 62 62 79 89 65 98 90 88 91 78 53 38 37 39 45 46 51 57
98 97 93 84 80 87 97 85 83 70 83 91 98 94 78 79 96 97 91 75 73 62 58 82 95 67 70 62 67 62 60 92 99 98 97 85 58 49 43 43 46 49 50 53 56
96 98 94 86 92 98 100 89 74 66 74 93 95 89 77 83 86 82 66 54 58 56 58 82 94 81 88 89 80 92 95 74 76 84 98 97 62 42 38 40 46 48 48 52 55
98 98 96 92 99 98 97 77 72 77 71 83 90 80 80 67 76 71 59 45 54 52 72 87 98 98 85 74 64 72 80 61 74 86 96 60 52 40 38 37 41 45 46 48 51
96 98 97 89 98 98 84 81 73 79 81 88 90 68 61 60 82 60 56 49 56 65 88 92 98 97 100 95 90 80 77 73 63 94 92 64 56 39 42 40 40 46 48 50 54
99 99 100 99 92 90 89 87 94 83 88 83 82 73 66 58 54 55 47 51 51 54 76 90 98 100 98 87 79 91 74 75 92 95 60 62 54 53 46 41 43 47 48 51 52
97 94 85 98 97 92 84 87 96 96 88 82 85 81 70 57 50 54 55 50 59 75 84 86 100 100 90 79 71 76 82 91 99 65 47 48 47 47 44 42 43 48 50 52 53
98 94 87 89 80 95 93 94 92 93 91 86 88 63 59 74 50 52 50 53 56 74 81 86 98 95 79 80 75 81 83 70 60 55 52 57 54 40 44 45 47 55 51 51 52
98 89 79 84 84 93 89 85 84 83 85 78 79 85 75 66 59 46 49 41 44 62 69 83 89 82 70 62 70 74 63 66 64 58 56 64 54 43 46 42 46 53 50 53 54

GFSSW_sfc_rhum_012.txt.gz
RH
66 66 66 66 66 66 65 65 66 69 75 74 82 83 86 87 86 84 92 67 67 57 58 52 47 47 56 59 67 69 90 90 70 61 48 40 39 29 26 31 32 30 29 26 33
68 67 68 67 67 66 65 64 67 68 72 76 74 81 84 87 82 90 74 66 60 57 63 66 68 65 68 73 69 87 95 80 60 52 49 43 38 34 34 38 42 39 34 32 46
70 68 68 68 67 65 65 66 67 68 71 75 75 79 87 84 87 80 66 68 65 61 66 73 73 69 75 71 80 85 88 66 57 47 46 47 45 35 36 42 36 37 40 35 41
72 70 68 66 68 66 66 66 67 68 69 72 76 79 85 88 87 70 56 55 64 68 70 76 83 83 80 85 68 84 72 63 61 54 56 59 44 46 40 37 33 35 36 36 34
75 72 70 69 70 70 69 68 66 67 68 72 74 79 86 98 87 58 47 54 59 67 79 83 90 84 82 75 73 84 70 61 60 58 54 50 54 49 44 36 36 35 34 36 36
78 75 74 71 72 73 72 73 69 67 68 70 72 79 91 96 54 49 58 53 55 67 78 80 85 77 79 74 75 63 60 62 59 56 53 55 52 50 41 38 39 37 36 38 37
78 80 81 76 73 74 73 74 75 72 70 67 69 75 95 79 50 54 49 56 50 48 64 72 74 81 76 79 64 66 81 73 64 63 63 52 61 58 44 39 40 40 38 39 38
77 82 83 80 75 78 75 77 75 78 74 72 71 84 95 57 56 56 53 53 44 44 48 47 46 55 60 63 73 84 86 94 66 61 63 58 76 52 43 44 44 43 43 44 37
82 84 84 82 82 83 84 80 78 78 75 73 86 90 91 55 69 56 54 55 47 46 46 35 47 60 65 82 88 92 96 87 78 57 65 66 66 48 44 47 46 44 45 42 44
83 85 85 84 84 86 84 80 77 79 79 71 69 91 75 66 57 55 52 50 53 56 55 63 70 84 89 90 92 76 90 84 76 72 67 67 68 58 48 46 46 42 44 41 48
82 84 87 86 86 86 89 92 89 94 93 88 79 74 50 56 52 60 52 55 60 67 84 72 91 81 83 76 80 86 81 76 72 55 62 63 67 57 52 51 51 47 48 41 52
80 82 86 87 85 86 89 92 80 75 96 84 81 70 57 54 65 62 52 68 70 86 80 83 90 63 66 69 79 79 85 89 72 57 57 68 76 63 49 50 44 44 45 52 59
79 80 86 88 86 92 92 86 81 76 94 81 83 84 75 65 70 66 57 66 75 74 68 82 66 57 67 78 83 84 88 78 75 67 62 60 62 61 59 49 44 44 44 50 52
79 80 86 87 91 97 95 84 81 77 98 85 88 79 74 74 84 54 52 57 74 80 76 75 66 67 68 78 76 90 68 70 74 80 89 68 84 67 60 60 50 45 48 52 58
84 82 89 78 90 96 81 87 84 83 76 68 87 62 71 78 72 77 52 59 86 84 82 88 80 81 78 69 66 80 61 65 70 81 88 75 91 70 62 61 56 44 48 51 53
95 88 89 88 94 91 90 82 87 91 82 90 88 91 91 85 74 66 70 64 77 84 74 74 62 66 65 55 55 65 73 74 77 88 98 70 76 66 67 55 53 48 48 53 54
95 90 84 73 95 90 82 88 95 94 62 92 89 90 83 84 82 80 86 95 98 100 98 99 96 75 72 76 68 65 78 95 100 99 85 59 80 66 55 43 40 41 51 54 54
93 92 79 68 88 82 88 93 97 66 83 76 77 85 88 74 84 73 92 95 87 97 99 95 96 82 72 71 77 75 73 89 93 99 75 72 89 75 55 44 44 44 45 53 60
94 97 92 88 84 81 87 98 84 73 78 78 78 95 95 82 78 84 92 88 73 90 96 97 90 70 67 65 60 82 88 61 78 83 92 88 86 71 63 55 44 45 52 57 61
98 98 93 86 78 86 94 88 83 76 82 79 92 88 86 84 88 95 90 76 81 78 72 80 97 72 66 68 66 70 64 90 86 99 92 86 89 74 63 49 56 56 57 58 63
98 97 95 82 84 96 99 90 80 82 78 87 92 96 88 81 86 86 86 71 72 67 74 78 92 96 94 85 78 85 80 74 66 80 98 84 80 52 52 48 54 56 54 61 67
98 100 97 94 99 98 99 81 69 74 78 78 78 92 87 78 95 88 83 57 60 58 81 69 97 97 82 64 72 64 68 64 76 72 74 98 75 39 38 43 50 56 53 60 62
97 99 95 91 98 98 86 75 73 77 76 82 90 85 76 75 80 75 64 48 59 58 76 92 99 97 92 90 72 94 68 69 78 71 84 98 82 44 49 48 50 53 58 60 63
98 99 99 98 95 93 88 84 85 78 72 81 85 82 83 85 65 63 63 51 53 58 80 89 99 98 86 97 80 96 78 65 76 86 75 79 71 64 54 50 57 60 58 61 63
98 96 84 98 98 86 80 81 84 88 86 85 92 90 82 81 66 73 55 52 60 76 87 93 100 100 94 85 94 90 77 86 97 72 79 61 69 54 56 44 53 57 60 62 63
98 97 86 85 82 91 86 90 86 88 89 93 96 79 83 90 63 58 53 59 74 80 87 93 98 100 94 91 91 79 78 70 78 83 92 88 88 41 46 49 59 59 59 60 62
98 88 76 85 82 92 94 84 82 82 83 78 84 84 93 80 65 65 54 50 59 79 86 96 99 98 99 83 91 96 82 84 94 88 88 98 60 46 51 47 63 65 56 57 59

GFSSW_sfc_rhum_015.txt.gz
RH
71 67 67 67 68 69 68 67 69 69 73 77 81 84 86 87 88 87 93 73 71 56 58 55 52 62 58 64 70 71 90 90 70 67 50 47 46 38 34 34 35 35 37 32 38
73 70 67 64 68 69 69 67 68 70 72 76 76 82 82 88 90 93 72 69 64 62 65 69 70 70 72 76 72 90 96 77 67 59 53 47 45 40 39 39 42 40 35 44 56
75 72 70 68 70 69 68 69 69 69 72 74 76 79 86 83 87 78 67 69 67 63 64 73 76 73 79 77 84 89 87 67 66 56 51 55 52 45 46 46 38 37 40 44 54
78 74 72 70 64 70 68 69 69 69 69 72 76 79 85 89 93 72 56 57 65 69 70 78 84 87 87 86 76 86 77 71 68 61 64 67 56 53 47 41 36 36 40 41 42
78 77 74 72 70 72 71 72 69 69 69 73 74 79 86 93 84 59 53 59 66 78 83 86 92 88 88 83 80 87 81 66 64 67 66 62 65 65 56 44 38 37 39 40 40
79 80 78 75 73 74 74 74 72 69 70 71 73 78 89 88 55 53 55 55 64 73 88 87 89 84 89 82 81 72 68 66 63 64 64 65 62 63 58 47 44 42 41 40 41
77 82 83 81 75 74 76 75 76 73 70 68 70 76 94 76 55 57 51 62 58 69 79 80 83 90 82 88 72 72 84 75 71 66 68 63 66 65 55 53 49 46 44 41 41
80 82 84 84 80 76 77 75 77 80 74 72 71 86 90 58 62 60 56 58 55 50 52 57 64 66 61 61 72 84 89 96 70 64 65 64 72 60 51 52 51 49 49 45 45
80 81 83 86 83 82 83 79 78 77 76 74 88 89 84 54 72 59 56 56 49 49 52 38 50 61 62 81 85 87 94 94 77 62 67 74 72 57 49 52 54 52 50 45 46
84 79 80 84 85 85 85 82 77 80 81 74 69 91 76 65 61 58 60 54 57 56 58 62 68 76 80 87 90 88 98 91 87 72 70 73 68 58 58 58 55 50 46 51 47
88 82 80 83 86 87 86 88 88 91 96 85 82 80 56 60 53 63 55 59 60 68 83 74 92 93 75 76 81 91 94 94 77 58 73 77 72 60 58 61 58 61 53 52 44
86 89 80 84 86 86 89 90 81 73 95 82 84 72 62 60 70 64 53 70 77 92 84 88 96 77 66 72 77 81 92 88 78 64 67 67 70 59 58 55 58 54 53 51 51
84 92 81 84 87 92 86 86 78 77 92 79 85 85 78 70 70 70 60 70 85 93 91 89 72 60 68 76 83 86 93 83 81 64 62 66 60 41 39 46 51 52 48 45 48
84 91 90 84 96 89 90 82 81 76 96 79 94 85 82 77 82 59 54 61 73 87 81 79 60 64 72 78 79 83 73 75 77 85 94 72 66 48 55 48 47 53 52 51 55
89 91 93 90 95 96 81 86 84 72 84 72 90 65 72 78 70 77 57 60 76 84 83 89 91 78 82 76 67 73 64 72 78 91 94 80 93 74 54 54 55 65 55 53 56
86 90 95 91 92 84 83 83 82 88 84 91 81 87 87 81 75 70 72 62 77 84 77 75 70 76 77 66 62 67 77 82 79 87 96 72 81 56 44 59 62 58 57 54 58
85 88 96 76 94 87 79 89 96 92 69 89 83 89 87 84 82 83 91 93 97 100 98 98 95 82 77 76 67 64 86 98 98 98 86 63 74 60 49 48 48 51 54 56 57
87 91 91 77 89 81 84 91 94 67 88 75 77 93 94 84 80 83 87 88 79 97 99 98 98 96 88 79 80 79 77 91 91 95 87 54 81 58 51 37 33 35 51 60 60
86 97 94 95 84 74 81 98 83 69 80 79 77 88 89 73 73 88 78 76 74 75 93 99 94 84 78 66 68 99 98 71 77 66 96 86 79 74 67 68 63 57 57 64 64
98 97 96 88 78 83 90 85 78 75 81 71 89 74 80 75 86 91 87 80 79 68 68 78 96 77 75 73 72 73 66 94 98 97 90 75 89 70 71 55 51 57 52 60 63
97 97 95 85 83 93 97 89 78 82 76 83 82 83 82 89 88 79 78 76 76 78 73 76 88 90 88 89 79 87 85 74 73 86 94 89 56 71 60 50 58 60 61 63 68
96 100 97 89 98 98 96 84 71 89 80 84 84 68 80 83 91 92 94 74 71 74 90 75 91 97 78 67 56 64 71 74 94 88 72 87 72 53 59 49 53 61 63 69 76
96 96 96 87 99 98 92 82 78 79 77 73 80 73 74 81 89 88 76 57 66 67 81 78 99 96 97 88 85 99 86 68 67 83 83 75 53 54 45 55 56 66 69 72 78
97 100 99 98 93 87 85 88 85 75 72 68 83 73 84 86 75 76 74 57 57 59 76 85 100 98 90 95 94 95 83 76 69 81 73 70 52 44 48 54 61 66 70 76 78
98 97 92 99 98 79 79 77 82 90 81 76 86 93 91 82 90 83 66 59 62 63 78 92 99 100 95 91 96 97 76 77 78 65 72 52 60 48 62 51 51 61 68 74 77
98 97 88 83 85 80 82 85 84 82 89 95 96 86 85 94 74 69 60 62 70 84 83 95 99 100 95 79 94 98 94 77 69 65 65 68 72 58 52 56 63 66 67 71 74
94 96 78 83 82 91 91 88 81 78 80 76 82 92 89 80 70 72 73 64 61 80 95 98 100 100 99 95 95 98 88 83 69 64 70 94 69 52 63 54 57 64 62 65 69

GFSSW_sfc_rhum_018.txt.gz
RH
76 72 69 67 67 68 68 68 68 70 71 74 80 84 84 86 88 90 96 78 76 61 58 60 59 65 62 68 75 75 91 93 79 70 59 50 50 41 36 38 39 38 44 35 46
79 74 71 69 65 67 69 69 68 69 72 74 77 80 83 87 91 93 74 68 65 59 70 72 74 70 75 80 78 90 97 80 68 62 57 51 53 48 44 47 46 40 37 47 61
79 78 74 71 68 69 70 68 69 70 72 75 78 78 85 85 94 82 65 69 68 66 66 75 77 74 82 81 85 90 90 74 71 65 61 61 58 50 55 57 44 40 40 40 65
74 80 76 74 71 64 70 69 69 70 71 74 78 79 85 90 92 72 55 57 66 67 68 79 84 84 86 85 79 89 81 80 74 67 71 76 66 68 55 48 40 45 41 42 43
78 77 79 77 73 69 72 70 71 69 71 72 76 80 89 88 87 63 59 56 69 78 73 76 90 85 85 86 84 88 85 72 67 65 70 68 72 74 70 55 48 47 46 43 43
77 80 79 82 76 74 74 73 73 70 72 73 72 78 91 94 53 54 56 58 77 76 85 82 78 86 90 87 82 78 76 73 66 65 68 70 66 70 59 59 56 51 48 46 46
87 81 80 83 78 75 74 76 74 74 72 69 71 76 95 79 59 61 52 63 63 70 90 90 81 86 90 92 80 80 88 81 76 71 68 66 71 73 53 58 58 58 54 48 45
84 86 82 81 82 80 76 77 77 80 76 73 72 86 88 60 67 61 59 58 57 56 54 69 79 89 70 68 69 81 81 93 72 72 66 66 72 59 49 54 59 56 60 55 46
72 86 85 80 83 83 82 80 80 77 80 75 88 88 84 54 73 62 56 57 57 56 55 41 59 68 71 86 90 78 91 84 74 63 69 80 82 67 61 63 67 66 64 57 51
69 76 88 86 81 85 85 81 80 80 82 75 69 92 75 67 64 60 65 53 57 57 58 64 67 82 79 84 94 87 91 84 79 71 72 78 78 65 57 57 59 64 64 60 56
68 75 87 90 83 86 85 90 86 88 96 80 85 80 63 63 56 65 60 60 61 67 86 75 92 94 81 80 78 83 95 95 83 68 75 73 70 61 58 63 63 59 56 62 58
68 77 85 89 88 86 83 86 77 71 94 83 88 78 65 65 72 69 58 73 78 88 84 84 96 78 71 74 73 74 81 82 72 68 73 71 69 54 52 56 56 67 61 64 59
72 74 83 92 94 94 84 79 78 73 88 78 84 84 81 71 75 74 64 74 88 96 92 87 74 67 73 81 86 89 91 88 85 69 65 69 62 40 32 34 38 40 41 46 57
75 74 82 86 100 91 91 78 81 67 93 75 92 88 84 77 79 61 57 68 82 89 77 90 71 73 80 84 81 91 69 75 83 92 92 71 73 49 47 43 33 34 41 52 58
76 76 82 90 98 94 85 82 76 69 96 78 93 65 76 76 72 82 60 62 78 87 84 87 92 90 89 75 73 75 68 80 85 96 96 86 94 72 59 55 50 58 64 54 56
78 77 85 89 98 85 77 75 74 87 92 88 82 89 93 79 72 77 73 64 73 76 76 74 71 73 77 67 67 68 77 81 85 86 97 74 85 56 46 39 42 46 48 57 60
79 81 86 83 96 83 74 80 95 93 74 88 83 82 77 83 78 80 92 96 95 98 99 94 93 80 76 86 75 75 99 98 98 98 88 67 79 58 44 43 43 43 53 57 65
84 82 91 85 91 73 77 85 94 70 85 71 76 77 81 76 77 81 88 92 84 92 100 97 92 87 81 81 84 84 81 94 94 95 89 67 85 68 48 38 35 32 45 58 67
87 98 96 94 91 73 70 93 83 70 76 74 79 82 91 82 79 74 87 81 67 84 99 99 92 90 91 78 68 98 98 72 86 80 96 84 75 53 58 62 62 53 45 54 68
98 95 94 87 92 76 80 86 74 68 76 74 86 77 86 78 84 87 81 76 70 68 78 87 94 78 86 82 75 84 79 98 98 97 93 83 68 64 53 59 59 54 70 64 70
99 98 88 92 94 96 97 88 73 81 71 78 83 84 68 76 80 73 85 75 79 80 72 78 89 86 91 94 85 94 96 97 91 95 92 89 61 62 66 65 59 61 52 59 72
96 96 94 94 100 96 93 79 73 92 84 84 79 73 74 80 92 91 90 79 72 78 87 73 96 96 82 67 60 62 72 74 83 88 90 90 57 54 70 66 60 75 68 80 76
98 97 98 88 100 100 85 84 80 89 87 81 85 76 70 81 87 86 83 66 73 79 86 75 98 97 93 86 71 99 82 66 67 82 82 84 64 29 33 44 67 82 87 92 91
99 100 100 98 95 84 79 78 88 78 76 72 77 72 83 86 76 84 84 66 71 72 70 71 98 95 93 86 96 99 98 98 96 96 75 73 59 43 45 57 60 88 90 93 91
98 98 92 100 99 76 72 82 84 96 80 76 85 82 91 98 88 94 79 68 67 64 79 87 99 99 96 93 98 98 94 96 98 84 83 59 54 44 40 59 62 75 90 94 88
99 98 95 94 86 75 83 92 82 80 84 84 88 77 87 97 79 76 82 71 68 78 82 87 97 100 96 82 98 98 96 94 90 78 74 63 58 50 57 56 57 67 82 85 85
95 95 81 87 87 84 82 84 83 78 81 72 80 88 94 86 78 74 73 72 75 75 84 98 100 100 90 96 98 98 88 91 81 76 68 83 64 50 60 62 68 59 68 75 80

GFSSW_sfc_rhum_021.txt.gz
RH
77 79 74 70 68 66 64 68 69 69 71 71 73 80 84 86 87 86 93 70 73 62 58 54 54 56 54 58 65 63 76 76 62 60 46 40 39 34 33 30 33 29 28 31 47
76 75 79 74 71 68 66 69 69 69 70 73 74 78 84 86 90 93 70 68 66 60 63 62 64 58 63 66 69 74 84 74 60 53 48 43 44 41 38 39 38 33 29 33 50
77 76 78 77 74 70 68 69 69 70 71 73 75 78 85 84 85 78 65 70 70 68 63 65 66 60 65 68 71 81 79 67 62 55 57 60 55 43 44 50 42 36 34 34 38
85 79 76 80 76 72 66 70 69 70 71 72 75 78 84 82 92 66 56 58 65 70 66 72 69 70 76 75 69 78 73 75 68 62 64 67 61 64 54 48 38 37 40 38 37
77 82 81 77 81 74 67 70 70 71 70 71 75 78 85 89 81 60 60 59 65 72 73 77 76 72 72 76 73 81 75 67 63 62 62 63 66 62 64 53 47 46 47 45 41
71 81 85 82 78 81 75 73 72 72 71 73 72 77 83 93 52 55 53 56 78 81 80 73 72 73 75 76 71 66 69 68 65 62 59 62 58 64 51 50 52 52 49 43 42
63 76 81 85 80 82 76 74 75 75 73 71 73 75 93 78 58 59 54 58 58 73 85 82 73 75 79 87 74 73 80 70 69 66 64 60 63 69 50 47 46 44 46 44 40
63 68 75 87 86 82 80 76 78 81 77 72 74 82 88 58 64 60 56 53 54 48 64 82 78 81 78 64 64 76 76 76 62 63 63 58 59 48 41 49 52 48 45 48 42
66 61 72 85 89 84 84 82 80 79 80 78 84 82 83 53 72 61 54 55 57 53 52 62 59 66 65 78 80 82 85 90 66 57 59 70 74 56 54 53 54 53 52 53 49
68 66 64 76 87 87 85 84 81 81 83 77 71 91 75 66 64 64 61 51 55 58 59 63 66 76 75 80 88 84 89 79 71 60 66 69 67 55 48 50 48 45 50 52 50
70 71 73 73 87 92 91 91 94 92 97 87 85 78 66 61 57 67 60 56 58 65 87 73 87 88 76 76 68 75 82 86 75 62 68 62 60 52 45 47 49 46 44 44 49
72 68 71 71 83 90 89 91 78 70 96 84 85 80 68 66 71 70 59 71 72 86 78 82 92 66 70 61 71 75 82 78 64 61 65 64 65 50 48 46 42 40 41 45 44
72 71 70 73 77 94 91 78 77 64 81 79 82 78 79 69 76 76 64 74 83 90 87 88 70 64 72 78 77 77 85 77 71 67 62 67 62 38 31 36 38 37 36 35 40
78 76 77 74 91 91 96 78 78 60 90 73 92 86 78 72 78 63 61 68 81 86 72 73 65 74 83 83 79 87 71 72 76 80 79 64 67 38 33 31 30 29 29 32 38
83 84 76 74 96 98 91 84 73 65 84 77 94 66 81 78 68 81 62 63 85 84 84 81 86 92 84 74 74 77 64 70 75 88 85 73 88 55 48 47 40 40 37 33 34
83 79 74 88 93 88 87 73 66 86 96 94 83 92 91 78 74 78 71 64 66 74 76 75 71 71 78 72 68 71 80 76 82 85 97 70 75 53 41 36 34 32 31 42 45
78 81 80 83 85 95 91 89 94 91 77 94 85 87 78 82 79 80 91 94 92 99 98 89 84 79 72 78 75 72 99 96 96 98 83 60 77 54 40 37 36 35 33 33 42
79 84 85 78 86 92 92 98 93 73 82 69 76 78 83 74 74 82 89 93 82 88 98 95 88 85 76 73 82 86 85 89 90 86 72 67 83 54 44 35 34 34 33 35 46
82 97 98 92 87 96 97 99 82 72 74 79 76 85 85 74 80 74 83 81 72 87 96 93 85 81 82 79 69 97 96 70 86 71 92 65 61 50 44 46 50 50 48 52 42
98 96 96 91 93 94 98 91 74 77 70 75 87 78 85 80 92 82 81 71 74 73 66 83 97 77 82 85 78 89 73 96 98 96 87 73 75 62 48 42 56 56 56 56 54
98 98 90 95 95 99 100 84 78 80 67 75 81 84 77 85 82 81 82 71 73 75 70 82 86 85 94 94 75 92 98 98 91 90 86 72 48 40 35 46 62 60 63 71 64
98 100 93 88 99 100 97 78 82 91 82 81 75 70 77 79 83 74 85 74 72 78 88 75 91 98 86 59 63 66 70 73 96 80 85 86 63 48 59 64 61 64 69 80 80
98 96 97 83 99 100 85 87 87 91 86 80 83 73 73 80 91 85 82 69 77 78 86 77 98 98 86 85 70 94 81 77 91 89 94 91 60 34 34 45 58 70 72 82 84
98 100 100 97 94 93 84 90 93 80 81 74 77 76 83 84 72 85 85 70 75 73 70 68 93 91 76 71 94 99 96 94 98 97 77 79 61 44 40 42 48 53 80 78 85
99 98 92 100 99 80 72 76 94 93 85 78 86 83 80 94 87 87 82 73 77 73 76 81 100 98 90 79 83 99 97 98 99 84 90 59 57 46 41 38 54 59 76 69 88
99 98 93 97 88 71 80 80 82 94 81 90 90 79 82 93 91 84 84 80 75 80 86 83 98 100 96 84 98 99 95 95 95 87 79 67 64 45 44 46 66 76 78 77 88
96 91 99 86 90 87 90 90 80 78 85 74 75 77 85 76 76 78 74 69 76 76 84 95 100 100 93 77 96 99 97 95 94 86 79 87 64 51 54 66 83 89 76 73 85

GFSSW_sfc_rhum_024.txt.gz
RH
78 76 76 77 73 70 68 64 68 70 69 70 72 74 80 84 86 85 74 51 51 60 58 43 39 38 40 39 48 45 36 34 32 30 25 27 26 23 24 24 23 20 21 24 30
76 80 77 76 79 73 70 68 69 69 70 70 73 75 79 84 67 86 56 65 65 61 50 46 44 40 40 42 45 43 42 33 26 26 29 26 30 28 28 25 23 24 22 24 33
68 78 79 79 77 77 72 67 70 69 71 71 73 78 80 76 68 58 60 68 68 63 46 44 43 41 45 46 44 44 45 30 40 36 36 36 38 33 30 30 25 24 23 26 27
66 68 81 79 81 78 75 71 71 70 70 71 73 78 80 70 75 54 59 60 70 58 53 52 49 50 49 48 43 52 41 41 39 42 47 44 37 40 34 28 21 28 28 30 28
63 65 70 77 81 80 80 70 72 71 71 71 73 77 68 71 57 47 58 49 53 64 65 62 53 49 52 48 51 50 39 44 42 48 44 40 43 39 35 29 28 29 32 32 28
62 64 63 74 81 84 81 75 72 72 72 75 72 77 58 72 38 41 42 46 54 67 63 60 59 47 50 51 51 46 51 47 46 43 41 46 39 36 34 28 27 28 28 25 26
66 59 63 66 78 88 83 78 74 74 74 74 74 62 70 49 40 42 44 50 57 58 68 60 58 66 55 62 54 53 58 45 42 40 42 41 46 42 32 29 28 26 24 26 25
64 66 66 63 76 86 90 81 80 80 76 72 74 62 62 48 45 48 42 47 46 49 59 60 65 72 60 50 50 54 55 54 41 46 43 46 40 28 26 29 32 29 26 25 23
65 69 69 66 67 83 92 87 84 82 79 73 68 60 61 48 55 43 40 52 46 41 54 57 61 60 59 58 58 54 49 54 46 37 40 47 44 36 39 38 36 31 30 30 30
67 70 72 70 70 78 89 94 82 79 77 68 59 76 60 56 52 50 43 44 50 49 57 57 52 54 50 57 57 47 58 47 46 39 44 45 44 36 34 33 33 31 30 30 31
70 73 70 67 66 70 92 100 98 93 82 78 70 62 57 51 47 54 44 45 48 56 68 65 78 68 52 48 44 51 54 53 44 43 48 44 40 34 30 31 32 29 27 26 26
64 62 69 69 67 69 88 98 66 54 83 70 70 62 59 52 62 59 46 52 57 67 60 72 83 51 47 48 55 58 63 60 46 41 48 44 44 36 32 31 28 26 23 21 20
60 74 73 72 76 76 91 91 75 46 59 72 70 68 63 58 59 63 52 54 55 65 64 62 57 50 55 59 62 57 63 60 61 49 45 48 44 28 21 21 21 23 23 22 21
69 77 85 82 88 72 87 81 91 70 95 75 78 64 65 58 63 50 45 51 65 62 62 63 50 60 60 64 57 62 44 50 57 63 66 47 53 31 24 24 22 20 20 20 20
71 86 74 79 65 82 73 91 93 80 96 66 82 59 58 59 60 70 48 54 64 62 61 65 65 70 73 63 53 60 50 52 56 64 68 56 83 34 30 31 26 21 19 18 19
73 81 76 81 81 69 91 92 91 98 85 88 82 91 85 68 62 69 65 54 51 58 58 52 53 58 56 52 52 57 59 61 62 75 93 55 68 39 27 23 22 20 18 18 17
77 78 81 69 67 75 96 92 99 94 65 92 82 83 72 83 75 68 79 88 77 97 94 70 62 57 56 67 62 66 87 80 87 96 64 34 49 41 25 24 22 20 18 20 20
85 77 77 64 70 81 96 99 98 65 66 62 66 75 75 66 67 71 83 88 64 70 75 78 74 64 69 70 58 72 70 71 68 52 40 40 61 32 21 22 20 23 24 32 33
79 88 90 76 79 92 97 99 77 55 61 68 70 81 84 66 68 74 76 72 66 68 87 80 72 55 58 53 58 80 94 57 81 55 71 44 32 25 21 23 24 24 34 38 38
94 93 82 73 86 95 97 99 58 60 56 56 73 62 78 75 72 67 67 51 56 52 54 69 84 55 60 63 63 68 56 90 95 85 68 39 33 33 26 24 26 30 34 38 41
97 98 85 79 90 98 100 92 77 55 52 58 65 68 62 70 65 64 58 54 51 56 56 59 68 70 86 81 60 85 95 97 72 75 65 48 31 19 23 21 24 33 38 45 47
95 100 84 92 99 100 99 70 70 66 63 63 54 55 57 62 66 59 60 55 48 56 70 52 70 83 75 42 42 42 58 65 94 84 85 84 61 22 26 33 40 35 38 44 51
98 98 90 90 100 100 94 80 75 70 68 62 63 57 55 61 69 57 61 53 55 58 58 56 89 90 73 68 54 78 59 55 82 86 95 86 56 23 25 28 25 36 35 36 46
97 100 98 94 88 77 78 85 84 68 65 64 63 59 59 62 58 68 65 59 57 54 62 60 76 87 71 71 76 100 79 76 99 96 69 66 55 37 30 31 26 25 25 34 48
98 98 94 100 88 62 66 69 72 72 70 62 71 65 64 70 73 74 64 59 63 64 61 66 100 94 82 69 77 91 86 83 100 85 87 54 46 36 32 32 29 27 38 51 62
99 99 91 75 71 60 65 64 68 75 67 75 66 65 65 75 69 70 67 64 57 60 64 69 92 99 95 68 76 100 94 95 96 95 94 73 65 42 37 34 35 40 61 73 72
95 89 98 78 75 63 62 58 64 65 67 64 63 63 67 67 62 67 68 58 53 64 68 78 99 100 96 70 83 94 97 89 91 91 88 93 59 42 45 46 65 78 75 78 63

GFSSW_sfc_rhum_027.txt.gz
RH
70 72 76 76 79 78 72 70 66 66 71 70 70 72 75 81 86 72 73 48 44 60 57 38 34 32 32 34 33 35 37 33 28 21 19 14 19 16 16 18 17 15 16 22 24
63 68 70 76 79 80 77 72 70 70 70 70 71 72 77 82 63 78 54 58 58 58 50 43 40 35 36 35 36 41 39 30 18 16 18 18 22 19 21 21 17 19 18 21 26
60 62 66 70 77 78 81 78 71 71 71 71 71 74 78 73 72 58 61 61 65 62 44 36 33 35 39 35 35 37 39 23 20 26 26 24 22 22 25 26 18 18 18 20 23
60 65 63 64 68 77 81 84 71 72 71 72 72 74 78 66 79 51 60 63 67 55 46 42 39 42 40 42 34 40 30 27 25 28 35 34 26 26 25 26 17 17 19 21 24
53 60 63 61 65 76 79 84 77 74 72 72 72 75 66 68 63 46 58 49 51 59 54 47 43 39 42 33 30 39 35 27 30 32 35 35 35 30 29 25 21 21 22 25 24
54 60 64 64 61 67 78 86 81 74 74 73 72 75 62 70 34 37 38 38 41 55 61 52 48 35 40 37 41 35 35 32 34 33 34 38 34 30 27 23 23 23 23 22 22
56 59 66 68 65 66 75 81 84 75 75 75 73 60 58 46 30 32 35 39 45 50 68 55 50 50 45 47 40 44 50 41 38 36 38 34 42 38 27 23 22 21 19 20 20
56 62 66 70 71 67 72 81 89 86 78 75 73 52 61 39 36 40 35 44 47 48 55 52 52 58 57 47 43 49 44 50 30 32 31 36 42 22 20 22 25 23 21 20 18
56 58 65 72 72 69 70 78 85 89 78 73 63 56 57 48 44 35 34 46 43 48 58 61 60 63 63 57 57 48 48 41 35 31 33 40 42 26 26 30 25 23 22 21 20
60 64 71 74 71 68 69 76 84 91 78 64 53 71 50 50 43 37 34 41 44 53 60 63 62 73 60 66 59 42 43 38 36 28 35 38 37 29 25 26 29 27 25 24 23
63 66 68 69 70 69 74 90 100 100 97 82 76 52 51 44 40 45 40 48 44 50 60 57 67 64 46 41 37 35 41 40 33 30 36 36 34 30 25 24 25 25 24 23 22
58 59 72 69 69 68 72 92 88 80 96 58 58 54 45 42 56 48 40 54 59 65 60 68 74 44 38 38 41 44 48 44 36 32 36 37 37 29 26 25 24 23 22 21 21
57 63 72 76 80 86 74 82 75 90 86 75 58 54 57 51 49 56 45 48 58 60 65 66 51 42 46 48 53 48 51 47 46 38 36 39 38 24 19 19 19 21 22 21 20
58 68 77 77 86 69 76 58 89 93 99 87 81 58 58 52 60 42 41 45 51 55 55 58 42 48 50 53 47 54 37 40 44 51 53 39 48 29 19 18 17 17 17 17 18
63 70 73 82 89 69 58 82 96 93 98 69 67 43 51 54 56 59 41 48 54 50 53 58 54 56 60 50 44 52 44 47 49 56 65 49 64 33 22 24 21 19 18 17 17
66 70 76 75 74 59 72 77 93 100 98 84 80 77 74 54 57 57 56 48 42 49 48 44 42 48 50 49 46 51 50 54 54 61 83 45 38 30 21 16 14 15 16 16 14
70 79 75 66 63 70 89 85 99 98 60 94 80 75 69 68 64 68 78 78 68 93 91 62 54 48 45 56 52 55 68 76 83 92 66 27 38 31 19 18 18 18 16 16 16
79 77 69 57 63 78 95 98 98 78 61 53 67 69 78 66 63 62 70 80 57 53 65 77 75 52 54 56 58 64 61 64 62 49 39 28 44 29 16 16 17 17 17 17 18
77 83 82 70 68 77 96 99 95 53 56 67 68 81 94 64 68 64 64 67 56 52 77 65 69 45 52 48 50 67 88 51 68 48 62 38 27 20 18 17 16 16 19 21 25
96 91 80 67 66 84 99 100 65 48 49 54 71 60 74 72 65 61 68 49 53 44 40 58 74 47 50 51 51 56 52 85 92 83 62 36 30 28 20 18 16 17 18 22 28
97 97 86 78 81 94 100 98 60 44 44 48 53 57 56 64 58 58 57 46 42 44 49 51 57 68 68 68 55 71 81 73 55 80 66 55 37 18 22 23 21 21 26 29 36
94 100 94 86 99 100 99 93 56 56 50 49 43 47 51 51 55 53 49 44 38 41 58 49 58 82 64 37 36 38 58 57 90 70 76 80 63 25 21 23 24 24 27 30 30
97 98 94 97 100 100 89 82 60 59 54 51 53 46 43 48 56 47 45 46 42 48 50 51 81 84 76 55 43 59 49 46 67 79 95 90 59 23 22 24 23 24 22 24 26
95 100 97 91 78 68 89 87 74 58 56 49 52 43 46 48 48 51 54 54 47 45 66 52 62 84 71 68 72 100 73 65 95 98 71 64 54 39 34 30 32 30 27 23 21
98 97 92 98 78 59 68 76 72 62 55 50 57 51 50 56 54 56 51 53 54 57 53 54 100 94 72 62 66 80 76 74 96 94 99 68 61 47 39 35 34 31 28 28 37
98 98 93 71 57 52 64 71 57 61 51 58 55 54 52 56 56 64 53 51 52 54 58 62 92 95 88 55 60 89 64 76 94 95 96 94 93 67 53 40 36 36 35 43 43
95 87 97 72 55 49 52 52 56 50 60 54 51 53 57 57 58 51 56 58 53 60 64 76 99 99 87 63 76 84 94 96 95 90 88 90 65 52 51 58 72 72 67 61 61

GFSSW_sfc_rhum_030.txt.gz
RH
58 60 62 69 72 75 78 81 73 71 65 70 71 71 72 76 83 76 73 55 56 57 56 48 41 38 36 44 37 39 58 52 43 33 28 18 19 20 22 23 21 23 24 31 40
54 58 63 64 66 70 75 78 79 73 70 72 71 71 73 80 76 70 52 52 53 60 48 48 46 40 46 45 44 53 65 53 32 24 26 20 21 24 27 25 26 23 26 30 33
56 55 56 62 61 65 72 76 82 74 73 72 72 72 74 75 78 61 55 57 59 57 51 45 39 39 50 43 42 48 55 35 28 22 31 34 32 25 30 34 28 23 25 28 33
55 55 54 62 63 61 68 76 79 83 75 73 72 72 75 68 80 62 59 62 63 58 57 48 45 50 54 51 38 46 37 35 34 29 34 40 33 35 31 32 26 26 25 32 30
58 56 56 57 66 65 63 72 80 83 82 73 72 74 70 73 65 58 62 61 60 70 66 56 48 48 52 39 38 43 38 31 31 32 36 36 43 43 39 30 26 26 26 30 33
59 58 56 62 66 68 65 70 80 84 83 74 74 75 77 73 35 40 38 40 47 67 69 58 46 40 40 39 40 36 37 37 34 34 36 39 42 42 36 30 30 28 30 29 30
62 61 58 59 62 69 70 69 80 84 92 75 75 66 60 58 31 33 37 39 41 50 70 59 53 55 47 49 42 44 56 48 43 41 42 40 47 45 35 31 29 28 27 27 27
65 64 60 58 66 71 73 68 72 84 88 77 74 62 67 40 38 38 33 38 42 49 59 62 53 64 61 52 46 57 56 71 40 39 38 43 58 38 30 33 34 31 27 25 25
65 65 63 66 70 72 72 69 68 74 81 86 74 71 65 49 47 39 34 45 47 60 61 57 60 68 65 67 68 53 71 58 47 38 38 44 57 38 31 34 39 35 29 26 25
66 66 64 70 69 75 74 67 69 72 88 84 59 80 53 54 41 39 34 42 49 72 86 81 71 72 70 75 82 64 59 55 50 41 42 46 47 37 32 30 33 38 36 35 31
66 67 59 69 72 70 71 77 86 100 99 88 80 53 49 44 40 42 38 48 45 63 74 79 84 88 69 63 58 51 48 48 41 33 41 43 40 35 30 30 31 30 31 31 29
69 67 59 73 71 76 75 79 77 98 99 82 63 48 46 45 56 48 42 59 64 82 62 74 82 56 51 49 50 49 56 55 44 35 40 44 44 37 34 31 28 28 28 27 27
66 60 64 72 76 81 83 74 80 92 98 85 66 55 54 46 56 58 50 53 63 68 69 63 55 44 49 52 53 56 60 59 54 44 41 44 47 39 30 28 27 27 25 25 25
60 63 68 71 86 84 78 64 91 89 100 97 78 59 55 52 59 45 43 50 60 71 67 68 48 46 54 58 52 65 44 47 50 61 74 50 79 45 32 28 25 26 26 28 27
63 66 69 72 89 82 68 87 88 94 99 91 79 46 54 56 58 59 44 47 58 56 59 68 58 60 62 53 48 58 50 53 57 68 70 67 85 57 31 32 28 25 24 26 25
66 69 74 79 81 68 82 82 84 97 98 99 80 74 74 60 58 56 57 48 46 52 51 54 44 54 54 47 51 52 57 57 63 70 91 70 63 54 31 27 27 23 26 24 23
67 73 76 68 79 78 83 90 96 98 88 98 89 74 65 68 69 66 75 78 79 94 93 66 58 52 50 62 58 62 73 96 98 98 90 39 60 42 24 22 24 24 26 25 25
74 78 72 65 79 76 94 89 96 94 97 58 72 71 72 63 69 70 80 84 62 60 80 89 81 60 54 60 67 68 67 93 85 89 73 43 65 40 25 22 21 22 24 24 24
80 84 94 82 78 80 97 91 83 69 55 73 75 80 87 64 67 72 76 72 57 56 82 79 70 49 51 48 54 73 87 64 81 64 89 57 37 26 23 22 21 22 22 26 27
98 91 93 77 70 83 99 98 98 49 51 57 80 62 82 71 68 68 71 54 52 49 48 63 79 54 54 48 49 55 56 91 94 99 83 53 42 41 32 29 25 25 27 28 31
95 93 94 73 82 94 100 100 69 46 46 50 58 58 57 67 60 63 60 49 46 49 47 57 68 77 74 73 71 71 79 74 72 85 93 78 55 38 37 32 33 29 33 42 46
95 98 94 84 99 100 100 97 71 55 47 44 44 46 53 55 58 55 56 49 43 47 57 54 62 92 81 49 50 54 67 65 91 83 85 92 69 30 35 30 29 30 28 37 40
96 97 87 96 98 100 94 80 69 56 49 49 49 46 43 52 63 50 52 51 49 50 56 54 82 94 85 63 51 67 57 56 66 77 87 94 67 28 30 33 31 30 30 28 34
95 100 96 94 87 84 94 89 78 59 54 48 47 44 46 51 50 56 61 57 54 52 62 56 70 90 95 86 87 97 84 66 78 98 81 78 67 49 43 46 54 47 33 36 32
98 96 93 98 87 68 71 80 64 61 56 52 57 49 48 54 55 54 54 63 55 61 57 63 98 89 82 69 71 79 77 74 93 92 99 80 80 70 67 71 65 58 39 38 41
97 98 93 73 60 58 74 91 59 56 55 57 59 53 52 52 59 56 51 56 64 60 65 65 98 96 89 66 70 82 69 70 82 95 96 95 94 66 58 69 75 76 70 70 60
94 88 97 71 63 57 60 56 56 58 63 54 53 53 66 69 66 60 62 62 61 64 69 82 98 99 92 71 82 92 79 86 91 85 92 97 84 76 71 67 74 85 85 82 75

GFSSW_sfc_rhum_033.txt.gz
RH
56 56 56 56 66 67 69 72 76 84 73 69 69 71 72 73 77 85 92 77 70 65 55 57 52 51 49 53 51 50 72 74 60 52 42 28 29 23 25 25 26 27 38 45 50
56 56 56 55 55 62 63 68 74 77 79 72 72 72 72 76 83 86 66 60 61 60 64 60 62 53 61 56 56 61 75 68 46 41 38 31 39 29 28 28 33 28 37 39 50
58 57 57 56 52 64 66 61 73 77 82 74 73 72 74 77 85 74 60 62 57 60 54 54 55 51 62 59 58 58 76 55 48 37 36 42 40 36 35 40 29 29 34 40 46
60 59 56 59 56 55 64 64 65 74 78 82 74 73 76 78 90 71 64 60 58 59 62 66 62 65 64 65 52 63 50 46 43 39 39 45 43 47 46 39 35 33 31 31 38
64 64 62 58 55 60 63 67 66 75 79 83 78 74 81 91 77 60 65 60 58 70 75 77 73 63 63 58 54 56 49 40 39 40 40 39 47 49 48 41 36 34 34 36 34
66 63 61 62 61 56 60 67 69 74 81 86 82 79 93 94 47 54 58 66 68 77 80 78 67 52 58 54 52 43 46 49 45 46 44 43 45 50 48 38 37 33 33 37 34
63 65 64 63 60 60 65 70 69 70 78 80 85 76 76 69 38 47 42 50 54 72 78 69 66 63 62 54 55 51 63 57 54 50 49 43 54 53 42 41 41 40 36 30 34
66 68 66 65 65 67 68 72 70 68 74 80 85 74 87 46 45 39 41 46 44 58 68 67 57 66 69 59 55 63 67 86 57 47 47 48 61 47 42 45 45 39 36 34 30
67 67 67 66 65 68 72 68 69 68 68 80 94 83 78 53 54 43 40 45 53 62 75 66 72 75 72 74 73 72 88 79 64 43 47 53 65 44 40 42 43 44 41 34 32
67 67 69 68 67 70 73 69 69 68 73 80 79 84 68 61 51 46 41 45 63 79 84 86 85 88 86 80 94 80 81 73 68 46 49 54 59 49 42 40 40 41 43 44 36
66 68 67 62 70 72 82 90 87 96 89 93 83 70 59 49 43 52 42 54 70 89 89 85 90 94 90 80 69 58 64 64 54 41 48 49 50 43 38 40 37 33 35 35 36
62 62 61 65 73 74 89 93 84 93 92 82 67 63 50 46 58 53 46 62 75 90 78 91 92 68 59 60 65 70 68 68 54 44 47 50 48 40 37 36 34 33 37 37 33
62 60 65 71 72 82 89 82 89 78 98 92 74 66 60 54 61 61 55 62 76 83 77 84 61 62 58 58 58 67 74 70 67 54 53 56 59 48 39 36 33 31 30 29 30
62 64 68 70 82 85 85 78 85 79 99 99 93 70 58 58 69 50 52 57 64 75 68 68 53 50 62 65 61 75 54 56 60 71 83 60 90 70 42 35 32 38 37 32 29
65 66 67 71 88 90 82 82 80 87 97 97 94 51 62 71 64 63 49 53 65 65 70 81 62 59 64 62 56 66 56 59 65 76 81 78 87 71 55 40 36 32 29 35 32
68 71 74 78 89 80 88 75 86 94 95 100 86 80 84 67 64 63 61 51 50 60 60 58 51 56 62 53 57 56 61 66 73 83 98 76 78 70 48 33 31 31 27 29 29
75 79 81 76 89 85 83 92 91 97 95 99 92 76 76 76 73 71 76 77 82 94 95 69 66 59 54 68 66 65 77 97 96 95 91 61 82 67 34 28 29 28 26 29 30
83 81 81 74 86 86 94 98 91 88 100 83 74 73 85 70 78 74 80 88 77 72 92 92 89 68 59 68 77 80 73 92 90 98 88 57 75 53 33 27 27 22 24 24 25
82 93 95 95 84 84 96 96 94 98 90 90 79 81 92 70 78 76 80 76 70 72 83 92 82 60 56 54 60 80 92 70 86 85 95 72 50 34 26 27 28 30 28 30 28
97 95 93 86 78 86 99 98 99 91 70 60 95 73 91 75 82 80 76 64 62 57 62 72 86 63 59 52 56 62 63 88 95 99 93 73 60 44 37 36 32 32 42 52 52
95 96 87 85 87 97 100 100 88 68 57 56 71 69 65 71 74 72 77 60 54 58 52 57 70 82 73 74 77 76 73 70 78 93 97 98 68 40 39 43 40 36 37 42 50
96 99 84 91 98 100 100 98 89 72 59 54 53 61 62 65 72 62 73 60 49 49 64 55 74 98 82 62 59 67 78 77 95 80 94 96 72 30 32 39 37 36 40 51 36
97 97 88 95 100 99 89 92 80 62 55 53 52 54 53 61 65 58 60 54 50 51 58 58 79 96 82 76 68 79 70 68 76 85 88 92 70 37 36 37 36 39 50 59 60
98 96 97 98 92 89 92 87 76 64 60 54 51 49 51 58 57 61 67 60 56 57 64 59 82 86 90 86 86 92 85 73 81 99 83 77 65 51 46 47 52 61 66 56 62
99 99 95 98 90 86 81 86 76 69 59 58 57 51 55 60 54 64 67 68 59 67 60 67 83 93 83 78 81 82 80 76 87 80 97 68 68 61 62 72 74 78 71 68 83
97 96 87 95 70 82 88 88 75 75 71 68 68 63 60 66 65 59 63 71 72 71 70 73 91 98 92 79 83 90 76 75 76 76 77 77 90 66 62 77 71 75 77 74 76
94 90 98 88 82 75 77 71 68 72 65 64 61 74 77 83 79 73 62 66 66 74 76 79 96 99 98 76 87 89 78 75 80 80 83 98 88 72 77 80 92 92 90 86 80

GFSSW_sfc_rhum_036.txt.gz
RH
57 56 56 55 54 53 63 68 68 72 75 88 72 69 71 73 75 85 87 75 74 61 57 60 57 56 58 62 54 55 76 83 67 55 47 38 36 30 24 28 30 33 54 53 55
59 57 56 53 61 53 51 62 67 67 74 78 78 71 73 75 86 84 72 67 63 62 75 74 71 62 69 62 60 66 82 71 53 49 50 38 45 39 31 31 35 46 46 58 58
65 64 62 63 58 61 61 61 66 66 69 74 88 74 75 78 90 74 62 68 64 60 61 68 59 58 71 65 64 66 80 56 53 49 47 45 44 45 44 37 37 41 52 56 65
73 69 65 65 61 57 54 54 62 66 66 76 84 76 77 85 87 64 61 63 64 60 64 66 70 76 72 71 59 70 56 51 50 46 49 47 44 53 48 40 43 45 40 37 45
70 69 65 64 66 64 58 57 58 65 68 75 81 82 82 92 75 53 63 62 58 69 72 74 81 73 73 67 64 72 59 48 45 47 46 42 48 50 50 43 41 40 37 36 36
68 68 68 66 66 66 60 59 62 69 69 78 78 88 83 88 49 53 68 62 61 76 80 80 81 65 63 61 64 55 52 51 50 50 51 47 48 49 51 44 42 40 41 38 36
68 68 67 66 67 66 64 64 66 69 68 67 75 88 81 65 45 54 66 75 74 74 83 79 79 64 59 67 49 56 61 60 54 54 54 49 51 57 44 41 44 44 44 40 38
66 67 67 66 66 64 69 71 68 68 68 68 67 93 82 48 47 43 44 52 59 74 70 67 74 69 71 64 60 63 69 79 55 51 48 49 57 50 45 52 48 48 48 45 39
66 65 67 68 67 67 70 73 71 68 66 65 80 93 77 59 58 46 44 50 51 70 83 66 73 77 70 75 79 76 86 81 67 52 52 58 69 46 37 46 50 49 46 43 42
66 65 66 66 65 72 70 73 68 69 70 66 72 89 72 69 56 48 46 46 69 82 87 84 91 93 89 85 93 83 86 80 73 55 53 60 67 53 49 50 49 47 43 42 44
62 61 64 62 70 74 80 89 84 89 91 73 81 76 66 53 50 54 46 51 85 87 95 86 96 96 82 74 67 65 71 71 61 46 50 51 54 47 40 43 42 37 38 39 37
61 61 64 66 71 72 83 90 82 87 89 64 71 74 54 52 64 60 47 68 81 96 89 88 92 75 74 82 77 73 71 70 58 50 52 55 54 44 40 38 36 34 32 33 33
60 66 66 69 69 84 90 81 81 80 97 83 74 81 57 53 67 68 53 62 82 89 85 83 73 66 74 74 75 61 74 74 69 58 58 58 43 43 41 38 36 32 31 32 32
62 65 67 69 79 88 89 82 81 78 98 97 93 84 62 62 72 55 53 60 72 88 71 77 52 73 77 79 64 78 59 59 64 71 85 63 85 68 50 44 37 37 44 41 36
68 70 73 75 89 88 85 83 78 88 97 97 94 57 67 74 66 74 54 54 73 72 70 78 68 63 71 63 55 69 58 61 68 79 84 82 89 67 57 47 36 35 33 30 36
81 79 78 84 90 81 83 82 85 95 97 100 88 80 81 71 71 73 63 52 54 65 60 62 56 60 60 59 58 56 61 70 81 85 96 79 82 66 51 40 37 32 29 29 27
78 75 79 79 89 89 86 90 90 96 89 100 96 75 76 82 81 76 76 70 90 98 100 71 69 61 57 71 66 62 74 92 92 97 89 69 88 73 49 37 32 32 29 29 30
75 81 88 80 89 85 94 97 90 82 92 92 79 77 90 73 78 81 77 83 72 78 90 91 92 68 62 69 77 76 70 87 78 96 91 67 85 50 42 38 30 30 32 31 31
76 93 94 93 82 84 96 97 97 98 98 83 71 93 88 79 83 80 79 76 69 73 83 90 84 65 60 58 63 82 90 70 87 87 96 78 62 36 33 34 34 34 51 56 53
95 95 92 87 78 87 99 99 99 96 76 68 95 81 96 85 88 81 74 61 66 63 67 73 93 70 63 55 60 68 66 91 95 99 87 77 74 50 39 43 39 40 43 44 48
95 94 83 90 88 97 100 100 96 74 61 63 88 76 79 78 74 68 70 66 58 63 61 65 77 79 70 75 78 79 80 81 84 90 96 97 73 45 43 46 45 44 43 48 56
95 97 83 90 99 100 100 97 89 83 72 66 62 66 71 68 74 70 77 70 57 58 69 62 82 97 87 68 63 72 78 78 93 78 96 95 80 41 44 49 44 38 42 45 51
96 97 92 94 100 98 86 86 79 77 65 60 61 60 59 70 74 65 66 59 58 57 66 62 84 95 84 75 75 84 76 74 79 87 96 94 76 43 46 40 42 53 60 63 63
97 96 95 94 96 94 96 92 79 64 64 56 61 54 59 63 58 75 70 64 58 56 66 64 82 83 90 81 84 91 84 77 81 100 91 84 64 51 47 52 56 69 74 73 76
98 98 96 98 91 89 88 88 80 83 68 60 54 52 62 68 66 73 67 68 61 64 64 65 87 94 86 79 85 83 81 82 90 77 95 67 72 62 55 57 74 79 75 76 71
96 99 91 97 92 85 86 84 80 79 74 70 79 64 58 74 75 74 72 74 70 64 74 74 95 96 93 79 89 94 81 78 76 74 73 72 75 56 56 66 86 86 85 85 82
95 91 98 85 85 86 83 76 74 71 70 75 70 72 80 81 79 75 64 62 65 72 81 80 96 98 98 78 91 98 84 77 80 78 75 92 78 70 74 84 90 94 82 66 63

GFSSW_sfc_rhum_039.txt.gz
RH
68 64 60 61 58 59 61 56 54 65 66 69 77 87 71 73 75 86 86 72 73 68 63 65 62 61 59 64 57 60 81 88 64 56 50 43 43 37 32 30 31 35 60 54 62
68 68 71 70 66 65 64 58 55 63 66 66 70 86 74 78 88 94 68 65 65 60 78 69 72 64 75 66 63 68 85 73 58 53 55 45 49 47 40 37 33 46 58 68 68
65 65 69 66 66 66 62 59 56 54 59 62 68 81 84 78 82 82 59 65 65 61 72 74 63 64 74 68 67 70 76 57 56 53 53 52 48 48 51 45 41 41 48 54 78
61 63 66 68 66 66 65 65 58 56 56 62 67 76 88 79 70 58 56 61 68 62 70 72 71 73 78 76 62 73 60 57 54 49 52 55 46 55 50 45 47 48 42 37 58
64 66 67 67 65 65 69 65 62 57 58 66 70 77 90 88 76 49 59 62 62 70 79 79 80 75 76 70 67 71 63 53 49 48 53 48 51 53 54 43 48 42 39 39 39
62 65 68 69 68 69 67 64 64 58 62 70 71 76 96 86 46 45 48 66 65 76 78 77 77 66 68 65 70 62 57 55 51 50 52 51 51 51 53 48 46 44 42 42 40
64 65 64 67 68 67 67 64 65 64 66 69 69 75 96 74 48 50 62 67 74 75 82 77 73 67 66 67 55 60 66 65 58 57 55 54 55 62 47 43 45 42 48 45 42
66 66 66 65 67 68 66 70 72 71 69 67 66 80 93 57 49 47 65 79 88 86 75 77 74 73 73 66 63 68 71 81 58 53 51 50 59 46 48 53 51 50 48 48 46
64 63 63 66 67 67 69 68 68 68 68 66 74 87 87 56 60 47 48 66 79 83 83 65 75 76 75 77 84 78 90 84 64 53 54 60 73 50 43 45 49 46 41 47 44
67 64 60 60 63 73 74 74 74 69 70 66 73 95 82 71 54 47 48 50 73 90 90 83 90 94 91 81 89 86 80 82 77 59 60 67 72 55 51 54 56 55 50 46 44
62 59 62 63 69 71 78 86 85 88 93 80 75 76 68 56 49 58 48 59 85 90 97 94 98 94 89 81 73 69 76 81 70 53 56 56 57 48 41 46 47 45 41 40 37
60 61 65 66 68 68 86 90 84 81 88 76 68 67 68 57 71 69 48 66 88 92 90 96 94 86 76 79 80 76 82 86 63 55 57 59 58 46 41 39 37 36 36 34 33
66 66 66 67 70 84 87 86 74 80 92 78 63 81 78 57 68 72 52 68 83 95 88 87 82 81 75 85 81 80 72 78 72 61 62 63 54 46 39 39 39 36 34 33 33
78 79 74 71 85 85 89 75 82 82 99 98 90 82 80 62 77 57 50 68 78 89 82 79 63 76 84 86 76 73 62 64 65 73 85 64 85 68 47 46 44 41 38 42 40
76 72 74 77 89 95 84 85 82 86 91 97 93 68 67 72 73 71 65 58 76 81 78 92 72 86 84 75 58 69 60 64 68 80 83 82 90 65 51 43 37 34 34 35 31
77 78 75 84 90 87 87 80 85 98 97 99 94 93 78 76 81 77 77 55 60 68 60 72 56 58 63 61 59 58 60 69 86 82 93 79 80 61 45 43 38 36 32 34 32
76 80 82 83 96 88 84 87 96 97 99 100 98 76 75 79 84 78 77 78 92 99 100 73 69 60 60 71 64 63 73 88 81 97 82 78 86 60 49 43 40 41 38 44 47
76 81 86 84 93 85 92 92 94 95 98 88 76 73 86 76 84 76 84 89 70 79 96 95 93 69 64 72 77 75 71 83 66 91 90 76 88 51 46 44 36 50 57 54 55
76 92 93 88 83 84 95 98 98 98 100 85 73 90 93 86 86 94 86 85 71 73 83 88 88 68 63 64 64 82 90 73 88 87 97 77 60 35 39 40 42 44 43 46 48
94 94 92 90 87 93 95 98 100 88 65 75 94 87 97 94 92 98 82 64 65 67 68 73 93 72 65 59 62 70 66 89 95 75 80 68 73 49 42 41 43 45 47 46 46
95 90 81 84 91 97 99 100 91 76 75 72 89 82 83 84 78 79 73 64 56 66 61 68 79 82 71 77 81 80 86 85 84 87 89 93 59 52 46 51 48 46 49 56 63
96 93 84 89 99 100 100 97 85 86 79 64 65 68 76 74 71 67 70 68 58 60 69 67 84 96 77 71 66 72 76 82 87 81 98 89 80 49 55 50 47 50 56 59 61
97 97 90 93 98 99 88 91 90 90 75 62 64 62 67 71 74 68 72 60 61 60 66 61 84 94 87 75 74 85 79 75 81 86 96 94 75 46 50 44 44 51 60 70 71
96 95 94 95 96 96 95 91 80 69 65 61 64 60 61 66 62 76 71 70 63 58 65 62 80 82 87 78 84 93 85 81 83 99 91 87 76 48 48 46 48 68 77 73 74
95 97 93 99 92 91 89 88 86 89 71 62 61 59 61 75 73 77 72 70 62 68 68 67 88 93 83 77 83 82 81 86 90 80 90 77 72 55 49 49 56 81 76 77 74
90 98 90 93 95 86 84 84 83 79 77 73 67 66 65 76 78 81 71 73 68 66 71 72 96 95 96 81 90 96 84 83 81 80 80 72 72 50 46 58 79 82 82 79 67
96 91 97 89 91 88 83 80 77 74 74 75 69 73 82 82 86 77 63 61 62 70 81 78 96 95 98 82 92 92 87 79 72 71 64 79 64 55 70 76 92 88 84 73 65

GFSSW_sfc_rhum_042.txt.gz
RH
65 64 64 65 67 73 65 64 67 53 55 60 66 69 84 84 76 85 94 75 69 68 68 66 77 73 63 67 60 67 84 87 63 58 50 45 46 41 38 37 33 35 52 56 85
66 64 62 61 66 69 70 67 65 62 52 55 60 64 71 89 88 94 68 64 63 61 68 76 87 67 78 70 66 70 89 76 55 49 47 51 51 51 46 46 41 44 61 78 97
63 64 64 65 65 66 68 69 63 63 58 56 54 62 70 87 89 84 65 65 62 61 69 65 66 66 79 74 72 74 78 59 57 50 50 55 57 50 54 50 41 47 45 54 88
64 62 61 64 65 67 69 71 69 69 60 58 57 63 75 92 86 51 53 60 62 58 72 78 71 79 83 79 68 78 63 56 53 51 54 58 52 57 52 45 43 50 50 42 56
62 60 63 65 64 68 70 69 67 66 62 59 61 66 89 96 74 58 58 59 56 68 79 82 75 76 78 75 68 75 66 57 53 52 56 53 55 54 55 47 47 46 44 44 43
61 62 64 65 64 66 68 67 66 65 63 59 66 75 92 96 52 50 46 62 59 78 84 79 74 66 67 70 68 64 59 58 54 52 54 56 56 56 54 53 50 50 46 46 45
63 63 63 64 64 64 66 66 66 66 65 64 69 76 95 80 57 57 52 68 64 79 90 73 69 68 64 68 61 60 70 67 61 57 56 57 60 65 49 46 48 48 52 45 44
66 67 65 64 65 66 67 66 69 71 70 65 69 79 91 63 72 75 64 82 77 83 72 74 69 69 70 67 64 72 72 85 62 59 55 51 64 50 46 55 53 54 56 53 45
70 70 63 62 59 68 70 70 70 70 69 66 84 79 84 60 79 57 61 91 92 93 86 62 73 78 75 79 87 84 92 87 67 57 58 61 78 55 52 56 55 54 53 50 48
67 58 58 63 63 72 72 72 71 68 70 68 73 84 80 74 59 53 70 74 81 81 83 78 91 93 90 79 91 86 85 84 78 59 70 72 76 55 47 55 59 57 56 56 53
69 65 63 63 65 69 78 85 89 81 92 81 79 75 77 72 62 65 58 73 86 92 96 88 98 94 83 81 72 73 78 81 76 58 61 63 64 52 44 48 48 46 43 39 36
72 74 76 66 65 69 89 91 84 83 87 78 67 68 67 69 68 67 56 76 84 93 97 96 91 76 75 71 75 77 84 87 72 58 61 62 61 50 43 43 42 40 40 38 36
75 73 77 77 67 86 88 84 74 78 91 81 63 84 77 68 78 72 57 76 88 91 89 95 91 79 74 80 82 84 84 85 81 64 65 67 63 50 42 41 39 37 40 41 41
77 78 73 77 85 92 89 76 82 79 94 86 77 82 78 70 86 59 56 76 82 86 82 78 84 78 83 86 84 86 60 64 66 75 87 68 84 64 51 44 42 41 38 42 38
78 79 76 77 94 94 89 85 85 88 83 81 90 84 76 70 82 70 68 64 82 86 82 92 88 93 90 83 79 84 60 64 70 80 81 80 85 57 49 39 37 37 41 44 42
78 80 77 85 93 95 86 81 85 96 96 100 93 91 90 78 85 74 83 63 61 79 76 79 58 63 70 70 63 60 61 70 83 80 92 78 73 46 42 51 44 46 49 56 55
74 79 85 81 99 89 82 87 94 95 96 100 99 90 78 84 84 79 91 84 95 99 100 96 86 60 59 74 65 63 76 91 78 88 80 82 83 54 52 49 49 51 54 56 57
80 78 85 83 90 82 90 95 91 90 99 95 79 75 89 82 82 91 91 92 69 87 95 96 97 67 62 71 74 76 68 82 62 81 80 76 88 50 46 48 46 53 50 50 51
77 92 94 87 88 91 99 97 98 98 100 94 83 98 97 87 86 94 86 87 74 75 83 86 93 68 65 68 65 80 89 74 89 88 92 76 62 34 43 46 48 47 47 51 52
94 92 90 83 92 90 97 98 100 93 70 73 90 88 98 97 98 94 86 75 70 70 69 74 95 76 68 63 67 71 68 86 93 79 70 56 69 44 48 51 51 48 51 53 60
95 88 80 88 89 97 100 100 93 83 73 73 86 87 90 89 87 96 78 71 62 69 65 70 82 86 74 80 82 80 88 86 83 88 82 78 43 52 47 54 54 53 51 61 70
95 93 83 91 99 100 97 88 85 86 78 64 67 70 80 76 80 79 75 69 58 59 70 72 87 90 79 73 70 75 80 77 85 82 96 95 73 52 49 51 53 54 57 68 70
98 96 87 91 98 99 90 89 92 80 70 65 67 64 70 70 74 73 70 64 62 61 66 62 84 95 86 75 74 86 79 75 78 84 98 94 63 49 60 51 46 52 66 79 80
96 95 94 95 95 96 94 89 82 72 66 64 65 59 62 68 69 77 71 73 65 61 65 61 79 81 85 77 85 94 86 80 82 97 90 87 75 49 47 52 47 52 86 74 72
96 93 90 98 94 96 89 89 87 87 72 65 63 63 68 78 80 81 72 73 68 72 70 68 89 93 82 77 84 82 81 88 87 82 89 76 79 57 52 53 53 77 77 75 73
92 98 90 89 96 90 83 83 86 87 82 77 71 78 71 75 73 83 73 79 78 73 69 70 97 94 92 84 88 95 84 84 85 81 82 71 73 48 49 53 75 80 80 80 75
95 91 97 87 92 89 87 81 76 77 79 81 70 77 80 82 86 77 67 65 64 73 82 77 96 94 95 85 90 93 89 82 81 74 66 86 60 50 60 73 84 90 88 82 73

GFSSW_sfc_rhum_045.txt.gz
RH
68 65 64 62 63 62 64 66 70 70 65 56 53 57 63 69 84 84 89 72 69 66 64 70 76 79 56 60 54 56 67 69 56 50 41 36 34 32 30 30 26 27 36 52 66
62 64 61 63 63 62 66 65 69 68 69 62 56 54 57 69 87 93 65 66 62 60 67 78 91 70 72 64 60 61 73 66 49 44 42 39 38 38 35 39 32 34 36 78 84
62 62 62 65 62 64 64 65 68 68 68 66 58 57 55 66 92 83 72 66 64 60 61 72 72 66 74 67 66 65 64 56 51 43 42 46 45 40 40 39 35 34 38 59 82
63 61 62 60 63 61 60 65 66 67 70 68 60 58 56 80 95 54 60 66 64 58 69 73 75 77 81 76 63 67 60 52 48 50 49 51 43 43 43 39 33 40 38 34 73
62 65 62 61 63 63 64 65 65 68 66 66 62 58 68 96 82 60 56 52 59 62 74 76 81 73 76 68 64 64 59 53 49 49 49 47 48 44 46 41 39 40 41 37 33
65 69 68 65 65 64 63 64 65 64 65 64 62 64 86 98 62 75 53 54 61 67 77 71 73 62 65 68 62 60 55 53 51 49 47 51 50 49 44 42 42 43 40 39 38
60 68 70 68 64 62 64 64 64 66 65 64 63 73 87 81 57 75 58 65 59 67 81 73 57 62 61 68 58 61 66 58 55 52 51 50 53 59 44 41 41 39 41 41 40
59 68 70 61 60 59 66 67 66 66 70 65 63 82 85 60 76 70 72 68 61 72 73 73 61 63 61 57 60 67 62 73 54 56 51 45 55 43 41 46 45 43 41 46 41
71 71 65 58 62 62 69 69 72 69 69 65 73 80 81 70 75 65 77 74 73 87 86 73 71 73 68 72 78 72 83 78 62 57 54 50 62 47 44 46 45 43 42 43 41
72 75 72 68 62 65 70 70 70 71 69 68 69 83 72 80 73 59 62 79 86 94 84 79 84 90 86 79 85 81 80 76 64 52 60 64 68 55 44 43 47 44 43 42 44
74 75 74 77 65 64 80 86 81 81 84 77 74 70 79 75 63 71 63 86 72 79 93 86 95 89 82 71 63 65 71 71 64 52 54 60 60 51 44 44 44 40 37 35 33
74 75 76 75 72 64 89 86 78 80 83 76 69 63 57 63 80 69 69 93 96 92 92 97 88 71 73 67 64 68 75 75 64 53 53 57 57 47 42 43 42 40 39 38 36
75 76 74 74 72 88 91 85 77 74 83 82 77 84 70 81 90 73 77 87 90 88 92 95 79 68 68 76 76 76 79 78 72 57 54 61 56 47 38 36 33 34 35 36 34
77 77 75 76 82 94 91 78 82 77 93 82 81 80 78 77 90 61 60 75 84 95 88 97 92 75 77 76 73 92 60 63 61 68 73 60 68 51 44 35 36 42 45 43 42
76 77 75 80 93 93 95 90 84 85 91 76 91 77 81 80 79 74 67 69 86 80 80 93 92 90 90 81 73 76 58 61 65 71 70 66 67 43 38 36 38 42 45 48 48
79 76 78 90 88 91 84 80 83 90 97 99 88 94 85 79 84 78 81 64 67 78 77 82 65 77 86 74 78 58 59 66 72 70 85 63 62 36 36 39 41 41 43 47 47
80 75 82 83 96 90 85 87 92 95 94 99 99 84 80 91 84 81 92 87 92 99 100 96 90 62 77 89 66 60 80 88 77 89 78 71 72 47 41 42 40 42 43 45 47
81 74 84 85 94 87 90 92 90 95 98 95 93 83 96 86 86 90 95 89 71 88 96 95 98 77 61 73 93 67 66 80 65 63 61 70 77 43 41 40 42 44 43 48 51
77 92 92 86 85 89 98 96 95 97 99 94 81 91 94 90 87 92 99 80 76 70 84 91 93 64 62 63 64 75 83 62 83 76 78 56 53 34 37 41 42 46 51 51 53
94 92 91 84 92 94 100 95 100 96 77 75 86 86 88 90 93 96 90 72 72 66 64 71 94 70 67 61 64 68 64 83 88 80 62 42 49 31 37 44 47 45 49 51 63
94 87 78 91 93 96 100 100 88 82 76 75 88 90 80 77 92 93 77 73 64 67 62 68 78 86 72 75 77 75 80 79 72 76 60 45 30 41 41 46 49 46 49 60 73
93 90 82 91 95 100 100 92 85 85 75 68 69 74 82 78 81 84 74 73 59 59 68 68 81 94 83 69 65 69 76 69 81 77 88 84 51 41 39 44 48 46 50 72 69
96 95 86 88 96 99 89 86 91 77 70 65 69 66 70 71 75 73 71 65 62 62 65 62 83 96 85 72 72 81 75 69 73 82 98 82 42 45 48 45 43 47 55 72 66
95 90 93 95 96 94 95 88 82 75 69 65 68 62 66 71 72 77 75 75 69 66 63 59 76 78 80 73 82 94 84 74 81 93 80 78 60 47 42 50 48 51 67 71 70
97 94 89 98 93 96 92 89 88 84 73 66 65 64 69 79 82 81 78 80 72 72 67 66 90 92 78 75 80 81 82 82 86 79 84 61 70 49 49 51 52 55 76 74 72
94 89 88 85 95 94 81 86 88 87 91 76 72 76 72 72 68 80 75 79 78 75 72 74 95 93 88 82 84 94 80 82 78 75 77 71 71 47 45 53 59 79 81 81 74
95 90 96 88 93 90 89 84 83 81 86 86 81 81 83 85 87 80 73 66 67 73 78 77 95 92 90 82 86 93 88 80 82 78 68 82 62 52 53 62 77 85 87 82 71

GFSSW_sfc_rhum_048.txt.gz
RH
63 63 61 61 62 64 62 63 64 66 69 75 62 55 55 58 73 76 93 55 52 62 64 54 61 67 46 43 42 43 38 40 40 38 30 23 23 21 21 17 18 18 23 41 44
64 64 62 62 63 60 60 60 61 65 66 72 67 58 57 57 60 78 64 63 61 60 65 58 76 66 50 44 40 34 38 31 27 30 30 26 21 22 24 23 21 22 27 51 60
64 64 64 66 61 60 59 57 61 62 65 68 68 62 58 50 70 57 60 69 65 57 54 50 56 64 58 48 40 35 34 28 37 30 29 27 26 25 23 27 19 20 27 44 67
66 66 67 66 64 64 62 62 62 66 68 68 72 65 57 51 85 53 63 67 65 52 51 58 69 73 62 56 39 44 32 32 37 40 39 33 26 28 25 21 23 26 28 27 52
64 58 65 66 67 65 65 63 62 65 66 67 66 68 58 67 63 49 58 48 62 57 59 59 66 69 61 51 47 42 41 35 34 40 40 36 34 28 30 26 26 27 30 26 26
59 58 65 69 69 65 62 63 62 62 66 65 65 68 69 82 37 53 60 48 54 60 62 56 51 52 53 54 48 39 40 37 34 39 39 41 37 37 29 25 26 26 25 22 24
69 70 70 69 62 58 60 61 64 63 61 64 64 60 69 56 52 63 65 54 51 53 65 58 45 54 50 59 45 46 47 38 42 37 35 36 39 41 27 22 24 21 20 24 24
72 72 73 72 58 59 61 65 71 70 66 63 67 62 67 41 48 72 75 58 55 50 58 56 48 48 48 45 50 49 43 51 33 39 40 37 31 30 28 27 28 23 20 22 24
74 72 72 77 64 61 64 68 68 66 63 58 60 66 61 53 72 71 63 57 58 58 64 63 54 54 54 54 57 45 38 40 41 40 34 39 30 27 26 29 28 25 24 24 25
72 73 74 74 77 61 66 70 64 64 60 53 51 73 53 62 65 64 62 63 60 67 85 78 71 67 55 50 50 48 41 44 38 43 47 45 35 34 32 34 31 27 24 23 23
73 74 72 72 76 61 70 61 58 64 64 56 59 64 68 72 55 63 63 82 64 79 79 78 92 81 58 46 42 39 41 37 40 42 44 41 41 36 33 31 31 28 24 24 23
72 73 74 75 79 74 67 64 62 63 64 62 57 55 59 70 77 72 69 90 74 76 73 91 90 50 47 49 51 44 42 40 52 45 43 43 44 35 32 33 32 29 26 25 24
72 75 75 75 75 72 68 72 64 58 65 62 60 68 85 76 70 76 79 81 66 74 83 86 63 47 58 56 53 53 47 53 48 48 44 44 38 37 32 28 30 30 27 26 28
78 77 74 68 68 73 74 75 63 58 89 84 92 80 81 74 82 68 90 85 88 91 85 84 71 55 52 56 44 60 55 54 55 54 46 45 33 37 28 34 33 32 35 35 36
79 76 75 76 73 76 82 68 62 69 95 81 92 71 74 75 73 91 87 94 89 90 92 95 92 72 62 53 47 62 50 52 53 54 57 49 49 31 27 33 34 33 37 40 42
76 77 74 69 70 78 69 65 66 94 95 97 89 86 74 86 78 73 78 61 65 76 78 92 87 92 89 88 59 46 50 54 56 56 83 53 47 26 27 27 33 33 37 41 42
77 78 70 67 67 69 71 74 97 90 96 100 99 76 82 87 79 72 84 72 72 96 99 94 94 86 77 93 79 70 69 92 93 94 66 54 50 26 29 29 30 38 39 41 43
81 73 72 65 77 78 81 86 92 90 100 95 79 74 89 86 84 92 87 70 61 66 95 96 98 78 83 79 87 94 92 73 65 49 41 53 49 28 29 27 29 34 39 41 46
79 70 74 69 73 78 87 99 97 100 99 87 67 71 87 67 76 93 96 69 58 57 75 91 96 57 54 52 53 77 95 48 62 54 58 33 35 28 31 33 32 39 42 44 50
80 73 69 70 73 76 88 96 96 85 67 60 72 67 68 72 69 78 95 62 58 52 49 62 93 62 56 48 50 53 47 73 83 76 57 30 28 24 38 35 34 38 41 43 50
77 72 66 71 81 77 100 100 75 65 62 58 66 65 59 70 67 65 66 61 50 51 46 51 60 81 62 61 57 60 59 57 49 55 42 23 18 23 26 30 35 32 38 46 52
82 88 70 81 93 92 99 84 80 64 53 52 54 61 56 62 64 58 57 56 47 44 48 52 62 86 73 56 52 52 52 43 60 69 64 61 29 29 26 30 32 32 40 46 54
84 79 67 78 92 88 70 67 71 56 53 50 52 51 51 55 60 55 53 53 49 47 48 48 74 90 81 64 60 69 58 52 55 69 88 51 26 33 32 33 28 39 41 49 55
82 89 78 71 76 69 70 68 62 60 53 50 50 46 49 52 51 58 55 59 53 52 62 50 60 76 58 65 69 95 68 60 77 86 52 44 31 32 32 30 38 39 40 54 56
83 90 80 92 79 71 72 70 68 61 56 48 49 46 47 54 56 56 60 58 57 62 52 50 100 90 61 62 69 71 67 66 86 62 84 41 41 27 29 35 38 39 55 59 60
84 86 76 73 75 68 68 68 70 69 70 54 50 54 48 47 44 54 57 55 52 56 54 58 94 87 73 67 68 88 63 62 63 58 56 50 49 31 31 36 41 50 63 64 61
81 81 93 78 70 63 63 65 66 64 69 67 52 53 56 62 59 50 44 44 46 52 56 60 88 86 79 66 71 74 64 60 59 57 52 59 43 35 38 40 48 64 67 64 61

GFSSW_sfc_rhum_051.txt.gz
RH
63 62 63 63 64 65 62 59 59 62 64 66 68 73 58 57 58 60 85 66 51 57 61 43 51 61 48 44 36 35 45 44 36 30 25 18 21 18 15 15 14 12 16 34 34
61 63 64 68 65 64 61 59 59 58 60 64 70 72 62 58 45 47 50 76 58 55 58 42 61 64 53 44 39 41 46 37 26 24 27 21 21 17 20 17 15 16 22 39 38
64 64 64 64 64 67 64 62 60 60 62 67 69 73 67 52 50 34 49 72 70 56 52 38 43 62 53 40 38 36 32 27 22 28 28 24 22 15 19 18 15 17 18 32 45
64 60 59 61 62 66 66 64 62 60 63 65 67 71 71 48 55 21 53 64 67 51 53 44 44 66 55 51 35 38 27 20 24 30 34 27 19 19 20 17 15 16 22 22 35
61 66 71 68 68 68 67 63 61 64 61 66 65 72 65 65 44 43 63 59 58 61 48 50 42 54 55 42 36 38 27 25 28 37 34 24 22 20 21 19 21 22 24 22 21
68 71 73 72 76 68 61 60 60 62 64 65 64 68 66 82 27 30 59 48 67 62 42 44 40 40 46 42 39 35 31 31 28 36 36 36 27 27 24 20 21 22 22 19 19
70 72 73 72 75 65 59 58 62 66 63 60 63 57 67 52 31 48 65 50 49 59 44 37 33 45 43 50 37 38 36 34 30 31 35 34 35 34 26 21 22 20 20 19 18
70 72 71 72 74 64 60 62 64 68 64 62 60 57 70 32 30 51 69 56 46 55 40 41 38 39 48 44 46 42 41 49 32 34 32 34 36 24 23 23 22 18 17 16 16
72 71 70 69 72 68 61 64 66 65 63 57 55 62 56 41 50 44 57 55 61 69 44 48 55 52 48 50 56 49 42 40 31 26 33 39 28 20 21 23 22 18 17 17 16
74 71 74 70 70 68 61 66 63 66 57 44 44 66 43 49 48 61 63 65 76 59 78 80 76 69 52 44 52 44 39 28 27 36 32 34 34 22 24 25 23 20 18 18 18
74 74 74 72 72 62 63 53 58 64 58 55 52 56 57 62 65 78 75 78 63 60 75 80 85 79 50 36 28 28 31 26 26 36 38 34 30 26 24 25 25 23 20 17 17
75 75 72 70 71 69 53 52 57 61 58 49 46 48 52 78 93 83 80 85 59 71 70 94 93 49 39 34 35 37 32 32 36 36 37 28 35 29 27 26 24 23 23 22 21
75 73 73 70 66 57 55 66 55 50 61 55 56 65 82 81 77 86 79 76 52 65 67 79 77 53 49 42 41 37 37 30 36 43 38 40 38 33 30 28 27 25 23 20 21
75 77 74 71 70 58 64 60 53 52 94 86 90 87 89 92 85 79 87 74 84 72 63 72 74 64 51 48 36 42 36 37 48 47 35 36 22 35 31 32 29 29 28 28 30
77 76 75 70 58 64 67 58 56 62 89 87 88 78 90 80 83 87 83 77 84 82 91 96 80 69 56 47 35 49 46 48 50 48 51 44 42 30 27 34 31 30 34 35 36
77 76 74 63 56 57 57 55 59 97 95 98 90 81 81 84 85 86 90 65 61 77 80 91 79 77 61 57 46 46 50 51 52 53 78 46 37 32 28 26 29 30 32 35 36
76 81 72 52 60 57 62 67 100 92 94 100 92 68 90 83 87 87 89 90 95 99 100 97 97 85 79 72 55 50 61 85 89 96 62 44 48 26 22 21 25 30 33 36 38
79 79 65 50 58 62 77 84 95 92 100 84 83 70 88 64 76 81 67 72 64 60 88 100 98 98 89 80 80 65 61 67 65 64 51 44 47 25 22 22 28 32 35 38 41
82 56 63 58 60 68 88 99 94 100 94 68 56 62 72 59 81 93 75 58 51 47 72 77 99 78 82 78 77 96 96 43 50 37 44 33 27 29 26 25 28 35 39 41 43
61 56 57 59 63 75 82 92 87 78 66 50 58 57 60 56 60 62 71 52 55 48 41 55 89 60 54 49 48 67 55 84 83 80 52 34 26 24 32 31 32 35 35 39 45
63 60 61 57 70 66 100 98 65 52 51 52 52 49 50 54 52 52 56 53 44 44 40 45 54 75 59 60 57 56 58 52 50 52 48 27 21 22 29 30 31 28 34 42 48
69 86 61 68 85 84 90 62 70 50 45 46 47 48 46 48 50 48 53 47 40 37 44 47 58 82 68 49 46 44 43 41 61 66 55 54 32 20 24 25 29 28 37 42 50
62 54 60 66 86 78 59 55 54 46 44 43 47 46 45 46 52 45 46 50 43 42 43 43 72 87 75 58 52 61 48 43 45 68 90 52 34 23 24 28 26 35 40 41 49
61 85 69 52 56 52 51 50 52 52 45 42 43 41 44 45 42 51 50 53 48 45 60 48 51 72 64 66 62 92 58 52 73 87 49 38 28 31 30 26 34 38 37 45 50
57 79 76 88 63 55 56 54 52 52 46 41 43 40 41 48 44 46 48 51 48 60 46 45 100 92 53 52 66 71 62 59 85 60 80 38 29 28 25 28 35 36 42 51 53
74 82 68 63 58 58 62 56 54 55 54 46 45 38 36 39 37 43 43 43 45 46 44 50 90 82 68 52 57 80 57 54 59 58 49 44 44 28 25 31 38 41 52 54 55
60 69 88 67 56 55 51 53 57 55 58 52 42 41 42 45 43 41 33 36 37 43 45 54 81 88 77 58 61 68 55 54 52 49 48 56 40 32 34 37 38 50 54 56 54

GFSSW_sfc_rhum_054.txt.gz
RH
61 60 62 65 64 64 64 63 60 58 59 60 63 67 70 67 58 61 75 65 62 59 57 46 53 56 66 58 47 47 85 91 64 46 37 23 24 22 20 21 20 18 43 44 62
65 64 64 61 60 63 64 66 62 59 58 61 63 69 68 71 56 53 44 60 67 61 59 49 61 68 80 61 53 50 68 65 42 34 34 27 25 25 24 25 24 20 37 43 61
60 61 61 66 67 64 64 66 65 61 59 59 64 67 73 66 64 49 44 54 68 66 51 41 51 69 78 56 50 50 58 44 34 32 34 31 26 26 26 30 22 22 27 49 56
63 64 70 71 71 69 68 66 66 61 59 61 64 65 72 65 85 43 43 50 67 62 50 58 42 72 70 64 44 48 42 34 34 37 38 35 28 28 24 29 24 30 28 35 52
67 70 72 73 73 73 77 62 60 59 62 62 64 67 66 74 62 29 58 48 61 66 56 59 47 62 64 53 43 46 36 30 31 40 40 30 33 28 27 27 26 27 28 31 29
68 69 72 71 70 75 71 58 59 59 62 62 64 64 74 89 34 30 51 57 60 71 62 54 43 46 50 43 46 40 36 32 33 41 40 35 31 28 27 27 28 30 33 29 27
69 70 67 69 70 73 60 58 59 63 62 61 58 57 69 61 32 50 51 64 61 64 69 47 36 44 49 53 38 38 44 40 37 40 42 39 41 37 29 29 29 29 30 27 26
69 71 69 72 71 73 58 60 62 65 65 62 60 60 70 37 41 44 73 68 64 64 51 41 37 47 59 50 46 49 51 53 39 38 38 42 54 35 29 33 34 30 27 26 25
70 72 70 72 71 72 58 62 66 65 63 58 59 65 60 40 44 37 64 77 57 71 64 38 54 60 60 69 68 56 67 58 45 34 38 41 50 32 26 31 34 30 26 23 23
72 73 72 73 73 65 60 65 60 64 62 46 47 67 49 51 40 40 70 75 67 78 74 67 79 80 72 81 90 67 62 51 46 34 38 49 48 32 28 31 31 29 27 27 26
73 75 73 70 68 67 72 69 70 70 57 76 63 55 54 52 58 70 82 72 74 79 88 80 89 90 71 58 45 42 47 47 34 36 39 41 41 36 30 33 36 34 30 27 25
74 73 74 72 68 69 70 56 64 65 72 44 43 45 57 70 82 76 74 84 94 85 74 90 88 59 51 46 42 46 45 42 36 40 42 40 41 34 31 32 31 34 32 30 30
75 72 75 74 69 72 59 64 56 51 78 61 64 67 79 74 85 79 76 84 82 65 77 79 64 49 48 49 44 46 49 38 44 46 44 48 48 39 35 35 33 34 36 31 28
76 75 75 74 79 58 65 58 56 59 99 86 80 83 85 87 98 82 89 87 72 66 67 75 68 67 71 59 41 48 37 39 48 57 58 44 42 36 40 39 35 38 35 37 42
75 75 77 75 76 62 60 56 60 72 94 82 81 81 85 96 86 91 83 65 73 87 80 93 80 80 85 59 43 47 47 53 57 61 66 55 68 50 39 42 40 39 43 47 48
74 76 80 73 72 55 59 60 69 99 97 99 90 89 88 78 78 82 85 68 60 76 82 92 76 84 86 72 51 50 58 60 62 66 94 62 53 52 43 38 39 41 44 46 48
76 78 82 55 75 62 69 77 99 95 95 99 98 89 92 90 85 84 90 90 92 98 100 98 96 86 84 83 65 59 76 97 97 98 90 52 60 50 32 30 35 39 43 45 50
80 82 70 51 63 65 87 97 90 87 100 80 76 64 84 84 85 93 95 95 71 75 98 99 99 96 85 77 79 77 76 95 81 94 77 49 75 44 30 31 34 36 41 46 50
82 72 68 71 62 76 99 94 94 100 92 69 64 63 67 68 72 77 81 80 77 69 94 99 99 91 85 74 73 92 98 54 75 46 76 57 44 38 32 40 39 41 45 50 55
74 67 67 65 66 82 96 86 82 71 62 50 58 55 59 63 66 68 69 54 58 49 49 65 97 95 90 80 76 83 65 88 96 89 72 47 43 45 42 38 39 49 51 52 55
80 73 73 62 75 94 99 97 66 49 49 53 52 48 47 51 54 53 56 56 48 48 47 59 71 97 79 92 92 90 96 79 76 78 90 62 42 35 36 34 43 41 44 50 58
82 93 72 75 96 98 99 64 62 48 48 47 51 49 49 47 48 52 56 53 42 43 55 58 72 94 77 51 49 54 56 55 97 88 80 84 56 26 33 38 38 35 45 51 58
74 67 73 77 98 90 63 54 53 48 46 45 49 48 48 52 60 52 56 58 50 50 56 54 85 90 86 71 61 72 58 54 67 85 90 88 62 28 34 37 33 36 49 50 59
72 95 86 76 65 67 61 54 55 59 48 43 45 46 49 52 48 57 60 59 58 52 61 57 66 85 90 85 81 88 68 61 81 95 74 70 52 41 39 36 37 49 49 57 59
67 80 76 96 76 67 61 59 53 55 52 46 48 45 46 53 48 52 57 61 54 58 58 63 96 89 69 61 86 85 73 68 85 77 83 60 46 37 38 38 46 47 48 59 61
75 82 72 72 64 64 68 63 57 53 57 52 54 43 43 47 46 50 51 54 58 55 56 65 94 91 83 56 64 86 70 65 69 68 66 59 56 42 38 43 49 52 59 61 62
64 68 87 67 60 64 71 67 61 59 61 51 54 47 47 59 52 48 43 44 47 56 58 71 92 95 89 70 74 83 66 65 61 60 61 71 52 44 47 45 51 61 65 64 61

GFSSW_sfc_rhum_057.txt.gz
RH
66 62 65 60 60 64 63 62 65 66 60 59 59 62 66 68 73 62 90 70 68 66 51 58 61 63 64 77 68 66 90 88 82 73 58 36 44 27 24 23 22 41 57 78 77
63 60 64 66 70 70 67 64 64 66 64 57 58 64 67 72 70 70 56 55 62 64 68 67 70 66 93 77 69 88 88 69 52 56 58 44 41 40 28 28 28 61 74 75 82
63 64 68 69 71 69 72 71 67 68 65 57 58 61 67 72 80 67 55 56 56 66 68 53 57 74 89 75 67 60 78 59 51 47 59 45 37 36 31 37 29 45 67 78 87
67 70 68 64 67 68 69 72 67 64 61 57 60 63 69 73 92 47 53 55 54 58 80 63 64 94 82 77 57 59 50 50 48 49 66 40 30 30 31 34 37 30 58 64 74
70 69 68 66 69 69 72 68 60 58 55 61 62 66 71 81 74 47 47 49 44 66 75 74 70 81 79 73 58 63 46 41 39 41 45 37 35 32 33 35 32 30 31 43 59
70 68 68 67 68 71 67 57 56 58 60 63 58 62 80 92 39 40 40 42 57 76 77 67 52 64 70 62 61 50 47 41 38 44 44 40 38 33 33 31 32 29 32 35 34
69 70 68 71 72 69 61 56 59 61 60 60 58 62 79 70 39 57 54 48 52 78 75 60 50 61 57 60 48 46 57 52 50 50 48 39 42 41 34 33 37 40 37 31 31
69 70 68 71 72 71 60 61 62 64 64 65 58 71 87 43 47 56 57 62 63 70 62 64 55 54 65 58 51 54 57 77 46 48 46 39 54 43 35 50 36 40 39 35 31
70 73 70 69 71 68 61 62 65 64 63 60 73 84 79 50 48 47 59 73 69 80 74 49 62 61 72 76 79 71 79 70 50 44 47 47 55 38 35 39 40 40 37 34 30
73 71 72 71 67 66 65 67 62 68 66 55 56 79 58 63 56 59 71 86 88 83 92 79 75 85 86 89 89 83 71 61 55 45 45 52 51 40 35 38 41 41 35 32 29
73 73 74 71 72 71 78 86 78 83 72 84 80 63 60 64 55 69 73 82 93 84 87 76 90 90 85 79 62 56 59 62 51 40 45 50 51 43 39 38 38 38 36 34 30
73 72 73 73 72 72 78 75 79 74 85 56 59 55 71 76 78 83 82 96 83 95 86 90 92 77 66 67 72 54 61 59 46 41 45 47 52 45 41 37 35 37 40 38 35
69 74 74 76 72 80 76 78 68 67 90 71 72 75 82 75 86 87 94 83 81 90 77 78 71 63 62 66 67 55 56 55 53 52 50 50 51 43 38 37 36 36 37 36 31
68 75 74 78 81 76 79 68 70 71 98 89 78 92 83 77 90 78 89 84 90 82 71 81 68 60 64 65 56 61 45 48 55 61 68 44 60 42 42 43 38 41 38 38 48
72 73 75 77 88 79 73 67 70 82 92 77 88 81 83 83 82 75 85 94 88 84 80 96 87 85 80 70 59 58 52 59 62 64 67 63 75 53 47 48 44 43 46 52 56
73 74 76 82 82 67 70 73 80 94 97 99 95 94 94 92 87 81 91 86 64 75 80 90 80 87 88 77 72 58 63 68 73 77 94 69 67 56 53 42 46 49 53 51 52
76 78 81 68 83 70 79 89 96 97 88 100 98 84 80 90 88 83 82 88 92 98 97 95 96 82 88 83 76 67 73 97 97 97 93 59 71 54 41 40 40 50 52 53 54
80 80 79 63 73 79 90 96 93 85 100 84 77 77 91 88 94 92 80 92 80 87 96 99 98 95 90 89 90 74 70 89 88 97 90 54 77 56 36 35 40 42 48 54 58
81 94 86 84 74 78 97 96 93 97 90 85 71 76 82 74 85 92 88 88 83 83 90 94 99 89 90 83 80 89 94 61 79 72 87 70 51 37 47 49 46 50 55 56 60
98 93 92 78 79 94 96 91 87 81 69 61 72 64 69 77 80 80 80 69 74 75 75 90 98 94 89 82 76 81 70 87 95 92 77 68 54 51 52 53 48 52 55 57 66
97 93 86 81 86 96 96 98 81 68 57 63 65 52 57 62 67 65 68 60 56 56 60 69 81 98 93 97 94 86 96 85 81 89 92 71 53 35 37 45 50 55 53 60 64
97 97 85 91 99 99 98 86 66 58 58 60 61 55 58 52 56 70 72 66 49 49 64 61 83 99 93 69 71 70 77 71 95 88 80 86 61 34 37 41 46 50 51 60 65
99 92 88 92 99 96 76 67 66 61 55 55 59 57 56 54 66 62 70 61 53 60 59 61 84 97 92 73 62 92 74 70 68 82 88 84 66 37 43 43 37 38 52 62 66
97 96 91 95 88 85 80 66 72 64 59 50 54 53 58 60 55 67 72 65 60 56 64 60 78 83 86 78 79 87 70 65 79 90 74 79 54 49 46 42 38 41 56 64 65
94 84 76 98 91 85 82 66 65 67 61 52 57 54 57 61 59 65 71 72 64 61 62 67 87 85 76 77 83 84 76 74 82 70 79 62 51 40 43 40 39 54 59 67 66
96 94 88 95 82 84 79 75 71 63 64 65 63 54 50 57 56 64 64 68 70 65 67 75 96 91 79 66 76 88 73 73 75 68 68 69 70 45 38 44 57 54 66 68 67
92 87 92 83 72 83 80 73 72 78 62 61 65 70 65 67 62 57 53 51 56 63 70 80 92 93 91 78 78 78 72 70 71 69 63 79 54 52 51 50 58 74 70 70 66

GFSSW_sfc_rhum_060.txt.gz
RH
66 66 64 64 66 70 71 70 67 65 66 66 62 58 61 66 69 77 89 71 68 64 57 63 66 68 70 85 82 79 90 77 71 67 60 62 60 44 27 30 50 60 77 75 84
69 68 67 66 68 64 67 70 73 71 66 67 62 56 62 69 78 86 62 61 59 64 72 71 76 76 87 90 88 85 79 70 51 50 74 73 63 57 32 38 71 95 88 83 82
68 68 69 70 64 65 66 67 71 76 68 66 60 57 62 71 83 74 64 63 57 55 78 64 65 75 90 87 80 89 79 62 51 49 80 79 74 58 48 34 54 90 94 91 90
67 65 68 65 66 65 68 68 77 71 67 62 56 59 63 76 84 56 53 57 61 52 74 65 76 91 91 92 68 75 59 56 54 52 84 80 67 64 44 34 34 72 87 91 90
66 68 66 68 69 70 67 64 57 58 55 57 61 60 73 90 80 48 52 54 50 58 87 72 82 90 88 77 69 66 55 51 60 68 77 74 79 72 42 34 41 57 67 85 90
70 67 67 69 70 70 61 59 58 62 61 61 57 62 83 94 45 48 50 49 55 61 87 78 75 77 76 72 71 62 54 54 56 51 60 79 78 64 32 30 40 33 39 44 67
71 69 68 70 70 67 59 60 61 62 59 58 59 64 84 75 43 52 56 58 49 61 82 73 59 76 70 72 58 54 67 58 52 49 45 49 64 58 29 33 37 42 44 32 30
72 69 69 67 68 65 61 61 63 64 63 62 58 76 85 51 52 50 59 57 67 66 74 72 59 76 72 62 63 58 71 83 55 50 44 37 54 40 34 37 37 44 45 42 35
71 73 71 68 68 67 67 66 64 63 62 60 75 86 86 55 54 51 52 62 78 84 83 73 71 69 74 80 82 75 90 81 60 48 49 44 57 41 35 41 40 44 42 39 37
70 75 70 73 69 73 73 70 68 68 66 61 61 86 65 70 59 70 76 69 82 87 94 99 86 88 90 85 87 84 76 68 59 53 52 53 57 40 43 43 41 42 43 38 32
65 74 73 73 70 70 82 80 80 79 75 75 68 68 64 63 71 80 76 72 87 96 95 79 91 94 84 77 63 63 64 69 59 46 51 57 58 47 44 51 44 45 41 35 32
68 72 76 74 74 70 78 84 82 74 89 65 66 73 70 77 78 86 75 84 88 97 82 97 88 80 72 71 66 62 66 69 56 46 48 53 56 52 47 47 40 37 40 39 37
70 69 75 75 77 75 80 80 73 68 89 75 69 79 86 77 87 88 78 78 87 92 87 84 78 69 70 80 80 72 68 64 57 55 52 55 61 54 48 46 39 38 38 38 33
70 70 73 78 82 83 80 68 70 71 95 92 78 84 82 77 91 82 90 88 86 92 70 82 71 74 74 79 70 83 51 48 54 63 71 49 75 46 49 45 44 45 42 39 42
72 73 74 77 83 81 72 72 74 77 94 88 89 74 76 82 86 95 86 84 91 87 75 98 85 80 78 70 58 62 53 58 63 66 65 64 69 58 54 50 46 46 43 43 57
74 75 75 86 94 73 74 81 81 90 97 99 92 90 86 85 84 80 93 88 68 76 82 89 82 92 95 83 68 62 66 72 78 76 93 71 64 66 57 49 45 48 51 59 62
77 79 80 77 87 75 83 90 89 96 86 99 95 86 86 90 90 92 87 89 94 97 99 95 95 88 91 83 74 67 74 97 96 98 92 69 74 54 48 43 44 46 58 59 63
81 82 81 71 80 84 91 88 88 83 99 82 85 85 96 89 88 86 83 92 81 82 96 96 100 94 86 90 91 80 75 90 89 96 84 62 85 57 46 40 41 43 51 57 64
82 94 91 86 79 87 94 96 85 90 82 89 75 87 96 91 86 87 79 93 85 83 88 89 98 87 86 83 85 86 96 71 79 81 91 73 60 40 53 54 55 56 57 62 66
96 94 93 82 83 94 94 91 92 80 78 74 80 64 75 96 90 94 90 78 84 81 78 86 97 85 86 88 86 85 74 86 94 89 80 73 71 55 59 56 54 60 59 63 68
95 94 88 85 88 93 98 99 84 69 70 68 72 59 55 70 79 77 79 68 64 78 78 83 83 93 92 97 93 94 92 89 81 88 92 83 62 42 47 46 52 56 59 61 72
97 98 88 92 98 99 97 87 68 65 63 66 65 65 62 61 67 78 75 70 55 54 73 69 87 96 87 76 77 78 84 74 91 88 87 87 62 39 37 46 48 52 51 58 68
98 95 93 94 95 97 77 71 69 68 60 59 62 60 61 63 70 73 74 65 61 59 67 63 89 99 98 85 75 97 88 74 75 84 90 86 65 40 45 46 48 51 55 63 69
96 94 90 92 92 85 87 74 74 67 64 54 57 56 61 63 59 76 75 67 64 56 63 65 81 82 85 79 84 91 89 78 86 97 77 83 61 47 49 47 42 44 53 69 67
96 91 82 98 92 89 89 73 64 73 64 58 60 59 63 69 69 76 78 74 64 62 69 64 84 85 78 80 80 80 80 80 94 79 85 66 57 38 43 42 40 38 56 71 70
96 96 93 95 90 90 84 88 79 74 60 70 68 63 61 64 59 68 72 77 72 70 75 77 90 88 73 75 80 88 74 76 70 70 66 70 69 54 42 45 45 49 68 70 69
95 88 97 84 77 75 75 75 75 80 65 64 70 76 71 69 64 63 61 60 64 65 77 78 92 90 86 81 74 76 70 70 75 72 63 75 52 54 50 43 53 65 71 72 71

GFSSW_sfc_rhum_063.txt.gz
RH
69 66 66 69 69 69 64 64 65 71 74 67 68 67 59 63 69 80 88 74 70 67 65 73 70 74 75 92 87 77 85 72 67 67 61 70 66 56 51 39 63 83 86 85 92
64 65 64 66 63 63 62 67 66 66 75 74 69 65 57 61 82 90 70 64 64 59 77 83 83 82 87 95 89 90 85 69 52 54 71 72 69 68 58 54 77 97 94 89 90
66 66 66 61 66 67 67 67 67 71 77 81 78 60 57 71 89 76 59 63 64 55 65 73 73 78 85 94 92 88 75 63 50 51 76 75 67 62 66 52 45 86 97 93 93
69 66 66 66 68 69 66 64 65 68 72 71 60 56 63 78 88 60 51 60 62 60 67 79 80 91 89 93 83 86 67 55 58 77 82 77 67 69 66 55 53 44 93 92 94
70 68 66 66 68 67 61 60 61 61 57 59 60 61 75 94 88 60 53 52 54 55 77 82 83 88 93 91 75 73 64 56 79 75 74 70 73 78 72 57 52 47 89 91 92
70 68 67 65 68 63 60 62 64 64 62 60 58 65 83 94 51 53 52 52 51 65 80 84 76 79 86 83 82 70 56 64 79 76 74 77 72 74 66 57 40 81 88 89 88
68 70 69 66 65 63 61 62 63 64 60 58 60 67 87 76 49 55 58 55 60 65 74 85 66 78 78 84 68 71 73 74 77 69 69 71 88 87 61 54 43 40 54 51 69
71 72 70 70 66 68 67 65 65 66 65 66 60 78 88 54 57 52 54 55 65 62 64 82 67 79 81 72 69 77 78 86 68 58 56 78 86 75 65 57 44 41 40 40 38
64 72 73 69 70 70 73 72 66 63 61 61 80 85 86 62 63 61 57 63 74 70 80 82 74 79 80 86 86 83 95 84 68 52 59 72 61 57 57 56 46 40 44 40 39
62 69 74 70 74 71 71 72 68 67 67 64 65 85 68 66 64 62 75 71 78 82 94 96 90 91 91 88 87 88 86 75 68 56 52 63 51 41 41 40 39 36 44 46 40
66 65 71 70 74 74 81 73 76 74 77 79 71 69 65 74 74 79 76 74 73 87 92 93 91 95 89 79 73 71 73 72 61 52 54 55 54 47 41 43 44 46 48 47 40
68 66 69 72 75 76 79 80 78 76 82 65 69 70 70 80 85 82 76 78 83 90 87 97 88 80 73 61 66 67 76 76 60 52 52 57 58 49 44 49 46 42 46 47 40
70 68 71 72 78 77 82 79 73 73 89 75 74 82 86 79 83 90 78 84 91 95 93 94 71 74 72 75 73 78 76 71 65 55 54 55 61 53 47 54 48 44 42 45 40
71 70 72 72 84 86 80 69 74 74 95 97 82 85 84 80 89 77 80 85 90 94 89 84 76 78 81 84 76 84 62 55 58 62 79 53 82 52 53 52 50 49 48 44 40
74 74 71 72 87 86 72 76 78 82 93 87 86 73 75 86 85 86 83 92 92 89 88 98 86 86 85 78 60 71 57 60 64 69 70 67 74 58 54 57 48 44 50 46 43
76 78 74 92 96 82 76 82 77 88 97 99 90 87 81 84 84 80 92 89 79 80 84 91 85 88 94 80 62 62 68 72 79 78 93 70 69 69 54 48 45 42 50 45 60
79 81 83 79 88 80 86 86 90 96 86 98 94 78 80 94 91 90 91 90 95 99 98 95 96 92 90 78 74 70 80 98 97 98 94 72 71 54 44 46 44 42 50 56 70
80 80 83 76 84 86 92 84 87 82 98 86 84 80 87 84 92 86 85 93 77 76 92 96 98 94 91 89 85 75 74 92 89 96 87 76 84 60 48 47 43 44 50 68 76
79 94 93 90 82 82 90 94 81 87 80 91 86 94 87 78 84 84 90 94 78 76 87 93 94 86 88 90 87 85 96 70 82 83 92 76 63 45 43 44 49 55 63 70 72
95 94 94 87 84 86 94 91 91 79 78 84 87 67 96 81 86 87 88 82 85 83 78 85 95 83 92 82 87 88 79 87 93 86 85 76 76 53 49 49 55 64 66 68 72
96 93 90 89 89 92 96 94 87 72 77 73 76 68 85 94 92 92 89 79 78 88 78 79 84 94 91 94 88 96 94 87 81 86 84 88 64 50 41 44 56 61 62 68 78
95 98 91 93 96 99 95 88 71 69 69 68 69 67 64 64 70 81 80 75 63 77 78 80 85 91 91 78 77 81 82 87 93 89 91 89 71 41 47 44 54 60 58 64 72
96 96 88 90 97 98 82 73 72 69 64 62 65 63 64 67 78 82 79 67 61 64 74 74 93 98 99 86 78 98 89 81 79 86 93 90 74 42 55 54 55 57 55 57 73
94 93 88 93 94 91 92 80 74 69 66 58 60 60 65 67 67 80 78 70 65 59 64 62 85 82 85 76 89 99 89 85 85 98 81 82 69 54 45 52 52 54 54 67 70
95 97 91 97 88 82 92 85 77 76 66 61 64 63 68 75 75 82 81 76 67 64 70 65 85 87 77 84 82 84 87 91 95 79 88 66 68 51 40 40 45 49 53 75 77
90 89 94 94 92 94 86 92 86 85 71 73 72 73 72 67 63 74 76 78 71 75 79 76 87 85 77 76 80 89 75 88 86 78 79 77 67 48 41 46 47 43 57 69 73
96 91 92 84 76 89 85 77 80 80 70 73 82 82 73 74 74 68 68 64 68 67 79 78 91 89 84 86 71 74 70 71 82 77 76 86 62 53 53 46 46 51 64 70 74

GFSSW_sfc_rhum_066.txt.gz
RH
66 63 64 64 59 63 66 66 65 66 66 68 73 69 72 64 66 83 93 72 71 64 68 80 77 73 71 93 85 86 92 78 80 65 62 70 67 64 58 55 60 94 93 91 96
69 68 66 62 66 66 67 67 67 66 69 72 78 79 72 63 84 94 70 60 64 62 71 89 89 77 85 94 89 91 90 76 56 60 67 73 72 71 61 58 66 57 81 98 93
69 70 66 64 66 67 65 64 66 70 69 73 77 78 67 71 86 81 54 61 60 62 66 76 76 77 81 96 95 96 81 68 55 68 70 73 74 66 65 58 62 68 54 88 91
68 70 67 68 67 63 61 61 63 65 67 71 78 80 72 78 61 64 58 51 58 63 69 81 80 87 75 92 90 96 74 62 67 73 72 71 68 73 78 63 60 55 57 84 96
69 72 68 67 66 62 62 63 63 64 63 62 60 66 72 91 84 52 53 53 52 70 77 84 84 89 91 90 83 89 76 65 67 72 76 66 77 71 72 64 58 53 67 93 97
67 70 68 66 63 64 62 63 63 63 61 61 58 67 83 87 54 57 57 46 58 70 71 83 80 77 85 88 87 71 67 63 82 75 79 73 80 68 47 62 59 54 61 92 95
65 69 73 68 66 66 67 66 65 66 62 59 62 66 86 78 53 59 50 48 49 57 76 75 75 73 80 88 78 69 84 91 90 83 84 70 78 82 54 58 62 62 44 54 76
61 70 71 70 70 68 70 72 70 65 64 64 64 79 88 56 62 59 59 48 55 73 70 74 83 76 78 79 72 82 83 94 86 89 82 73 84 75 63 80 71 64 48 41 38
64 61 71 75 70 73 71 71 71 63 61 63 80 87 83 56 71 65 64 63 65 85 77 71 93 82 81 89 90 84 95 89 92 74 86 72 83 56 72 82 74 62 57 43 41
65 64 68 74 71 75 74 70 70 66 68 67 70 90 68 73 76 65 74 68 80 84 90 88 96 92 95 88 90 92 94 89 92 71 80 75 64 68 72 75 76 58 53 46 43
66 68 67 70 71 76 82 71 72 72 77 83 77 71 67 76 71 75 74 74 83 78 90 92 99 92 90 82 74 77 81 84 77 63 74 80 69 56 65 77 73 64 50 52 44
68 68 69 71 71 77 80 78 74 74 80 67 75 73 70 79 86 79 76 83 94 93 87 97 97 81 72 63 68 72 83 84 70 62 64 63 65 51 52 63 61 51 45 41 48
71 68 74 72 74 77 84 82 75 72 91 81 77 76 86 79 83 89 86 85 85 95 96 98 77 77 72 73 74 78 82 83 76 65 59 63 66 64 56 49 44 40 42 45 48
73 71 78 70 84 87 83 75 77 69 94 95 83 87 80 78 90 72 84 86 88 95 93 94 72 80 80 78 71 84 67 60 65 74 88 59 89 67 54 52 50 44 40 47 46
74 75 76 72 86 90 77 79 80 75 94 83 83 71 75 89 80 85 83 83 90 90 93 98 83 88 86 80 58 72 62 62 66 75 76 73 80 69 51 52 45 40 40 48 46
77 78 75 95 97 84 82 80 77 88 91 97 86 87 88 83 82 84 88 88 82 81 87 92 84 87 90 77 66 64 68 75 82 81 95 73 75 75 59 45 42 41 40 42 44
79 81 86 81 90 85 86 86 92 94 82 91 92 81 87 93 88 89 89 94 99 99 100 92 94 93 90 80 73 68 79 97 96 97 94 80 78 57 48 45 40 36 37 47 50
80 81 85 79 87 88 85 87 93 87 99 85 84 74 95 92 90 92 84 95 80 85 94 98 99 92 90 85 84 80 75 92 90 96 89 82 89 62 49 44 46 42 44 49 69
78 94 94 93 81 81 88 93 84 86 82 93 84 92 85 78 86 82 90 92 77 76 83 95 98 84 91 92 85 87 91 69 82 87 92 82 68 45 44 45 46 46 62 68 80
95 94 96 89 84 82 93 88 90 76 80 88 87 76 92 77 91 90 90 84 88 81 77 85 95 82 95 85 91 86 80 88 93 87 88 78 77 59 46 43 42 54 67 75 79
95 94 92 92 86 88 94 95 88 74 78 76 81 75 92 94 93 94 86 82 80 87 77 81 82 96 84 95 94 95 95 89 83 84 83 87 69 54 45 38 42 50 66 73 81
94 98 92 94 97 98 96 87 73 71 79 72 73 72 74 92 93 88 87 82 74 74 78 80 85 94 84 79 84 86 90 86 96 91 94 91 76 53 45 45 46 58 64 69 75
96 96 87 90 95 98 85 78 75 72 67 64 68 62 58 64 79 84 83 67 67 69 78 74 93 98 94 93 87 97 88 81 80 87 95 91 76 43 58 50 60 66 67 68 78
93 93 87 95 94 92 90 85 78 71 67 61 64 63 63 64 73 82 83 70 67 66 68 65 86 82 88 76 88 99 82 90 88 96 79 82 71 56 53 48 49 62 64 68 78
94 94 94 96 93 92 92 88 84 81 68 64 67 71 72 77 79 84 83 80 63 71 70 65 86 91 81 79 88 92 89 78 97 87 91 72 69 52 49 52 46 52 61 72 79
79 84 93 94 91 91 88 92 92 85 77 78 73 77 81 71 73 76 80 80 76 77 81 74 89 85 78 80 87 90 81 90 85 80 86 80 84 53 54 47 47 46 56 69 71
97 93 92 81 77 91 82 68 84 80 79 79 85 84 76 80 79 74 72 70 72 70 81 77 90 89 86 87 75 79 69 73 89 88 84 92 67 63 55 51 47 51 53 63 74

GFSSW_sfc_rhum_069.txt.gz
RH
67 69 67 61 63 66 65 65 66 67 68 69 67 66 70 74 68 78 89 73 64 63 63 74 78 66 79 87 85 80 92 85 72 60 58 62 56 56 52 47 63 63 87 85 88
68 71 65 61 64 64 62 62 65 66 67 70 73 78 75 74 76 85 68 59 59 61 71 84 86 74 83 90 86 88 86 73 55 54 68 67 63 61 49 47 50 43 43 76 93
68 70 67 64 64 62 62 62 64 65 68 72 74 80 86 82 68 61 60 58 56 55 68 74 76 73 78 94 84 81 81 61 50 64 65 66 67 60 54 53 58 55 52 56 91
65 69 67 61 66 62 62 63 62 64 63 64 72 75 81 75 60 53 57 55 56 54 75 79 83 84 78 84 82 82 70 55 67 67 64 64 63 60 59 51 54 52 53 54 89
61 67 71 66 58 62 62 63 62 62 63 62 60 67 70 82 73 53 55 54 56 66 78 84 84 78 65 80 86 83 72 58 70 73 65 63 72 61 64 57 52 48 47 78 77
60 64 69 69 68 64 65 64 64 65 61 60 62 63 77 75 47 53 49 50 76 83 79 83 83 68 66 79 80 75 71 70 73 73 72 67 70 56 61 53 49 50 51 42 80
64 60 69 73 68 69 66 67 69 66 65 62 64 66 84 69 49 59 55 50 52 82 77 74 83 79 68 85 75 65 77 85 80 78 77 70 70 70 54 58 55 53 52 46 36
67 64 64 71 71 70 70 69 70 68 63 64 64 76 85 52 58 60 58 50 55 68 68 71 86 87 76 71 68 83 84 88 83 80 92 87 80 56 58 59 58 58 53 51 42
68 66 62 70 72 71 75 72 69 64 61 64 77 84 84 53 68 62 69 63 63 77 76 69 85 84 74 88 85 82 91 88 95 74 88 86 76 56 63 60 65 59 54 50 43
70 68 64 70 74 71 76 70 68 65 67 66 71 81 69 70 70 67 72 70 66 76 86 88 92 93 90 88 83 91 90 90 84 88 83 83 71 69 70 65 59 59 54 51 47
71 63 66 71 74 72 80 72 70 71 75 81 79 77 66 73 72 76 72 72 81 83 96 93 98 92 88 71 64 73 78 80 77 74 81 80 65 71 66 68 61 57 55 50 47
70 66 66 72 72 74 80 73 73 74 81 64 76 71 66 83 85 81 77 83 86 92 89 97 99 84 71 60 69 69 82 74 60 69 66 78 72 59 62 65 58 44 51 49 45
68 68 68 75 69 78 83 82 77 76 91 79 74 78 83 88 80 86 81 79 89 85 84 87 81 66 72 70 70 74 78 75 68 69 56 67 70 65 55 58 58 54 50 45 43
70 72 75 68 84 87 82 78 77 67 94 95 91 82 84 80 85 71 76 81 93 92 76 82 72 75 82 73 67 76 65 64 69 74 84 61 80 66 55 58 56 49 44 43 41
73 76 73 72 87 91 79 82 80 71 90 78 86 72 75 89 78 77 77 90 88 91 92 95 83 85 84 72 58 69 63 63 67 69 67 62 74 63 58 58 55 49 42 40 38
75 76 74 93 96 85 84 78 76 87 92 94 87 86 89 84 80 79 91 84 79 80 92 91 86 86 84 72 58 64 65 70 75 69 89 69 68 65 54 48 46 43 42 40 37
77 81 86 85 90 88 81 85 92 92 77 90 90 84 85 87 84 83 84 90 98 99 100 92 93 90 86 76 66 62 74 92 91 93 87 69 73 55 45 41 38 36 35 35 37
80 82 85 80 87 85 86 86 94 86 98 79 85 79 91 84 86 89 86 98 88 88 99 100 99 92 89 79 80 68 67 86 89 92 82 71 81 54 44 42 41 40 40 41 42
79 95 94 94 82 83 86 93 86 87 84 89 81 88 85 81 88 87 92 94 75 72 82 95 100 85 91 89 80 83 84 62 79 76 78 67 60 45 40 36 36 39 43 49 51
96 95 96 90 81 82 93 87 89 74 81 88 86 81 89 75 93 88 84 81 84 74 74 80 97 83 86 84 85 77 66 81 89 85 78 64 62 48 40 37 35 34 44 52 66
95 96 93 92 86 85 95 95 89 75 80 80 83 81 88 89 90 91 87 82 79 79 70 74 79 95 79 84 92 89 88 87 75 76 76 70 55 47 45 35 40 40 46 58 71
95 99 92 92 96 98 98 88 75 78 84 75 75 70 86 92 94 91 88 81 78 68 73 74 81 95 83 74 81 83 83 79 90 88 87 78 67 42 37 40 45 47 55 62 70
95 95 86 87 96 98 86 82 78 74 70 68 70 61 60 78 84 85 80 71 75 72 77 72 90 94 94 80 82 91 90 81 79 83 96 89 69 42 44 41 46 54 56 63 70
90 92 89 96 94 93 92 90 82 73 69 63 66 64 58 62 75 83 82 74 66 67 68 64 82 81 85 74 87 98 93 87 84 94 75 76 63 51 49 49 47 44 54 60 68
91 91 92 96 93 93 92 91 90 87 72 68 68 76 73 76 80 86 83 79 67 69 68 68 87 90 76 74 88 90 86 86 98 78 89 73 69 54 47 46 45 44 48 61 70
77 84 94 94 92 93 86 94 93 86 87 82 76 80 81 74 72 77 80 79 76 71 75 72 90 83 78 78 84 91 82 88 82 74 73 76 86 58 52 53 49 45 48 60 67
98 94 90 80 79 92 81 69 80 78 87 82 90 86 78 86 83 79 74 70 72 70 77 77 87 89 87 82 71 72 69 79 85 85 75 86 68 56 61 57 58 56 51 53 62

GFSSW_sfc_rhum_072.txt.gz
RH
68 67 67 62 63 62 60 60 63 64 68 69 70 68 66 65 79 64 64 45 50 59 63 60 60 59 62 65 69 69 67 59 45 43 42 48 44 44 38 36 37 38 62 65 67
65 67 68 62 62 61 61 60 62 63 64 69 70 74 74 73 75 83 46 58 57 57 60 59 64 60 54 57 70 65 71 49 35 34 36 47 44 46 37 38 37 35 41 69 85
59 66 71 63 62 61 61 61 60 62 63 62 70 77 86 82 71 69 57 59 58 52 57 60 55 58 55 60 60 67 74 40 35 38 46 50 48 48 35 42 40 40 40 56 92
61 60 68 67 61 60 61 62 61 61 62 61 62 72 75 72 94 50 56 54 57 44 57 63 65 69 56 62 51 64 53 44 42 40 42 49 46 46 44 41 38 38 41 52 83
68 59 64 69 66 66 62 63 63 63 61 61 61 66 61 62 53 40 53 51 44 50 64 67 66 59 53 46 51 56 46 44 41 45 41 50 57 46 46 41 38 35 34 57 68
68 66 60 69 70 66 66 64 66 66 63 60 64 61 53 49 34 40 41 42 52 52 65 68 62 47 44 46 55 44 47 45 47 48 50 50 52 50 42 39 35 34 35 34 50
69 69 62 64 71 66 69 65 66 68 63 60 63 50 59 44 37 43 44 41 57 63 67 80 64 53 47 45 47 51 58 54 53 52 56 47 58 56 35 41 37 33 32 34 33
69 70 69 60 69 66 70 70 69 69 61 62 63 58 52 37 39 48 43 40 48 56 57 73 75 58 48 46 51 59 54 73 52 54 68 57 65 47 37 42 38 32 31 36 33
69 71 69 62 69 67 71 74 70 66 60 63 60 65 56 44 53 50 53 46 49 59 72 68 82 74 62 63 60 63 55 59 68 51 71 59 53 44 39 42 41 34 32 35 36
72 71 63 68 71 67 74 70 65 61 57 54 56 65 53 62 55 56 51 55 50 70 84 90 90 92 64 62 61 50 47 51 55 64 62 62 55 62 53 48 40 32 31 34 38
74 73 67 69 72 67 71 53 56 61 57 64 67 65 69 66 58 61 58 56 58 68 98 92 98 99 54 44 29 32 43 56 52 68 65 60 58 52 45 45 44 35 30 33 34
74 74 69 72 71 68 63 50 56 61 63 58 63 65 73 77 74 67 61 62 83 99 90 95 99 82 43 46 43 45 46 52 55 60 59 59 60 50 41 40 36 39 32 31 32
75 69 73 75 69 70 58 59 59 58 68 76 75 70 81 90 70 84 70 69 68 99 85 82 81 77 57 52 50 45 43 52 50 62 54 56 60 54 42 37 39 32 28 27 29
72 70 74 69 77 63 60 61 60 52 95 87 92 78 73 73 84 71 73 69 86 91 72 84 67 70 58 48 43 57 41 46 57 59 51 47 34 42 46 45 39 35 32 30 35
70 73 73 73 67 68 63 61 61 58 90 70 81 65 70 87 66 81 76 77 93 79 70 82 84 68 62 50 42 53 49 46 50 44 48 53 51 28 38 42 38 34 32 30 29
74 76 72 76 71 65 64 61 58 94 95 95 79 83 92 73 71 74 77 87 68 81 77 70 51 62 58 56 46 49 50 50 51 46 72 42 46 32 35 34 32 28 30 32 29
76 80 78 69 69 67 67 61 98 93 75 88 88 88 76 77 75 79 78 82 86 98 99 79 66 74 71 57 50 48 53 86 83 89 59 50 52 33 29 29 29 28 26 27 27
79 80 76 64 70 77 78 76 99 79 99 70 78 88 87 73 78 79 77 92 75 78 84 96 99 78 73 50 58 55 44 60 63 61 46 54 56 30 27 29 29 29 27 26 26
80 72 73 74 73 80 76 99 84 94 86 73 75 73 84 84 83 80 72 93 61 52 77 74 98 84 76 66 58 61 69 42 57 52 54 41 41 31 23 24 22 23 27 29 27
74 74 77 74 75 75 84 83 71 58 66 67 64 62 62 73 79 71 92 70 68 58 51 62 96 76 78 64 62 56 42 63 78 80 58 40 37 26 28 26 23 23 24 25 30
76 77 80 82 82 74 99 93 70 60 61 62 60 61 61 64 68 64 69 69 61 59 51 49 58 93 72 79 70 62 60 61 48 56 49 40 29 25 26 26 28 28 32 34 37
79 91 78 86 92 96 93 69 70 62 64 60 56 57 59 64 66 65 66 63 59 48 53 53 60 91 67 66 68 67 54 48 65 72 62 56 38 26 25 26 31 33 36 39 44
72 81 69 88 94 87 66 66 62 58 54 53 53 52 48 62 64 62 62 57 64 55 54 52 67 89 92 66 69 78 64 56 56 68 91 63 40 28 27 28 32 34 32 37 44
65 88 71 72 68 68 67 68 64 58 53 48 50 48 47 54 56 64 61 58 59 55 66 56 61 67 63 57 57 89 69 66 75 93 57 52 41 31 31 32 30 29 30 32 42
58 60 74 90 71 68 71 73 68 66 57 51 53 56 52 54 56 61 60 56 58 63 55 54 98 91 56 62 72 73 65 65 92 69 78 48 43 37 34 33 34 33 33 33 39
52 55 62 64 71 70 70 76 75 71 70 63 56 61 53 52 53 57 57 54 55 54 58 56 88 72 66 65 69 82 62 63 64 63 59 56 56 37 36 38 40 38 37 38 36
75 74 63 65 59 67 59 64 69 65 69 63 72 61 60 72 71 57 50 49 47 51 60 67 75 80 81 62 59 63 52 55 57 56 56 66 49 38 41 40 40 43 40 40 36

GFSSW_sfc_rhum_075.txt.gz
RH
60 65 70 64 62 59 60 60 61 62 63 65 68 71 71 64 67 63 72 51 38 50 64 41 44 54 54 72 64 55 86 58 42 42 36 36 31 35 32 30 34 37 51 60 73
63 58 67 67 62 59 60 61 60 61 63 63 67 73 81 75 53 62 69 83 55 53 56 50 53 57 54 62 72 86 89 44 29 26 34 32 33 35 32 32 34 34 42 68 79
70 61 61 70 66 59 60 61 61 61 61 62 64 71 76 66 68 61 73 77 64 52 49 55 41 49 57 51 61 74 82 44 34 41 28 39 40 38 32 37 35 38 41 78 85
67 70 60 66 70 65 63 62 62 62 63 61 62 68 67 54 96 66 75 73 58 48 49 66 62 62 53 46 48 70 61 60 65 37 36 40 32 37 40 39 34 33 38 70 89
67 71 64 61 69 68 67 63 63 68 65 61 62 64 59 45 45 36 49 43 42 49 55 64 65 54 48 36 38 64 47 50 68 46 34 34 37 47 44 36 32 30 34 57 78
67 70 68 63 63 71 66 68 64 67 64 62 64 65 49 44 29 33 34 35 36 46 51 61 57 42 41 32 34 33 39 52 53 60 37 38 38 44 40 32 32 31 31 41 58
68 71 72 66 61 69 67 70 66 68 67 62 62 46 52 40 31 37 35 39 46 41 54 58 63 59 40 35 29 34 40 46 62 80 57 38 48 48 29 35 33 31 28 33 35
68 70 71 66 66 68 68 71 72 70 65 62 63 49 47 36 36 36 33 36 44 48 65 71 70 88 58 31 38 47 42 68 43 48 53 48 53 41 30 33 38 33 28 29 33
70 72 71 66 68 71 67 73 73 68 61 61 58 54 50 41 42 39 39 38 43 49 54 64 77 80 71 52 62 59 52 52 43 42 54 53 44 36 35 36 37 35 30 27 30
72 74 71 70 70 74 68 74 62 65 54 44 43 66 46 56 51 48 41 44 46 56 66 86 89 84 73 69 59 50 42 41 38 47 48 54 52 48 41 44 41 34 31 28 30
73 73 71 71 72 73 69 52 55 58 51 55 55 54 60 56 49 52 45 43 48 53 75 91 96 94 52 47 26 24 29 36 31 38 55 53 53 50 44 42 43 39 33 30 27
72 73 70 74 75 66 66 47 52 57 58 52 55 57 65 67 64 57 48 52 62 76 81 98 95 76 60 42 48 33 30 41 39 45 53 46 42 39 36 38 35 33 29 29 26
72 70 72 75 70 70 51 48 49 48 60 65 67 63 75 79 76 69 57 53 61 96 83 91 70 72 80 70 69 35 29 46 48 49 50 39 42 40 38 36 32 27 28 26 26
69 70 75 71 80 52 50 50 50 47 92 80 74 63 68 73 91 55 63 61 76 84 95 83 71 87 82 52 34 49 28 33 39 56 55 40 34 28 36 40 34 30 30 27 26
73 71 76 75 58 58 55 48 49 54 89 65 70 55 62 73 69 75 61 63 74 94 60 69 70 94 70 47 33 37 34 38 47 50 34 44 47 26 29 40 38 29 28 28 26
75 74 71 69 59 54 51 50 55 93 87 93 77 72 68 59 62 68 80 84 58 59 54 56 52 68 65 39 38 41 40 44 42 39 64 41 37 26 24 27 25 24 24 26 26
76 80 74 55 64 54 56 58 98 96 68 83 85 74 57 62 60 66 94 93 92 92 95 73 66 64 64 55 46 43 48 75 73 82 60 36 34 28 24 25 24 25 23 21 22
79 79 72 52 60 66 65 71 99 68 92 60 68 68 71 67 71 68 79 91 68 60 69 93 99 71 53 45 49 48 39 53 56 53 41 41 50 29 23 20 24 24 24 23 23
86 64 65 63 65 72 66 100 81 87 85 62 69 70 65 70 70 74 84 84 68 48 63 65 97 74 63 55 46 54 69 39 48 39 43 38 31 24 19 22 21 20 22 25 24
63 68 75 63 68 73 77 84 63 53 56 53 72 55 67 68 67 62 85 62 57 55 44 49 94 78 68 60 52 48 39 55 68 73 47 36 30 25 24 24 22 23 24 24 22
64 80 76 74 74 72 97 91 58 51 52 54 50 50 51 58 54 58 76 66 50 51 44 44 53 88 66 63 54 56 54 50 45 51 52 33 27 19 26 25 27 28 29 29 29
66 85 77 80 98 90 88 59 66 53 52 53 50 50 50 50 50 51 68 55 48 43 51 44 55 85 65 56 53 60 47 39 61 58 49 55 37 20 20 23 27 30 30 29 34
58 81 75 91 90 85 56 56 54 52 50 49 48 47 45 49 54 50 53 54 55 47 46 43 69 91 79 58 55 64 47 45 41 67 86 55 34 24 24 25 26 29 27 24 30
55 87 76 89 62 58 54 53 57 53 46 43 44 42 43 47 46 55 53 56 57 49 64 52 50 62 64 58 50 74 50 47 66 88 54 48 36 28 26 28 27 26 26 28 30
47 44 62 87 60 54 58 53 54 56 48 43 47 45 41 49 47 52 51 54 55 66 51 49 98 90 50 55 64 68 59 54 77 68 75 45 38 30 27 26 26 29 31 32 31
44 45 49 54 55 54 67 60 54 62 56 51 47 49 43 45 48 50 49 47 49 51 51 51 88 70 65 56 60 74 56 51 53 53 55 48 46 32 32 30 34 31 31 33 34
54 51 42 57 51 50 48 55 60 59 60 57 56 46 50 66 58 48 43 42 43 49 52 60 70 81 78 56 55 61 46 48 50 47 47 55 41 31 32 35 35 39 38 36 34

GFSSW_sfc_rhum_078.txt.gz
RH
70 63 59 68 64 60 60 58 58 61 63 63 62 68 72 77 68 63 72 55 57 63 57 52 49 57 58 75 75 70 88 81 58 51 43 38 40 41 34 42 40 49 78 82 82
66 69 61 62 72 64 58 60 59 61 63 62 62 69 71 76 62 57 49 60 71 71 53 60 57 56 73 73 80 90 94 68 45 48 43 42 39 37 39 40 43 51 73 75 90
66 68 68 59 65 70 63 62 61 63 64 62 62 68 67 67 65 76 71 69 65 64 61 54 62 54 72 64 80 80 86 59 55 56 46 37 49 42 38 48 45 45 74 85 90
66 68 70 63 61 68 68 66 62 63 67 63 62 65 67 64 93 64 64 70 73 73 68 57 72 73 70 70 68 86 74 67 65 73 60 49 41 47 46 48 40 38 67 87 91
66 68 70 69 62 63 72 65 66 63 67 64 63 64 61 54 41 40 49 54 68 62 67 67 72 68 69 53 61 88 69 61 60 67 71 58 42 45 48 40 36 33 59 85 90
65 68 71 71 64 62 68 67 68 64 67 65 63 66 59 52 27 31 34 44 46 50 57 67 64 51 50 44 49 55 50 62 60 59 65 81 46 48 44 39 36 34 44 71 80
64 68 70 72 64 64 66 68 68 67 68 64 63 56 56 45 30 36 33 37 50 45 58 60 66 71 52 51 31 34 61 77 76 64 68 81 88 58 46 41 39 38 40 44 54
66 69 71 69 63 65 70 66 70 74 70 64 64 56 56 36 38 34 35 34 40 55 69 75 73 73 71 60 39 51 55 84 78 64 66 75 68 48 41 47 43 42 39 44 42
68 70 72 69 64 68 73 67 73 70 67 61 64 57 71 40 42 37 38 44 47 49 69 69 76 79 71 86 68 76 80 60 66 65 71 83 82 44 41 45 46 45 44 38 43
69 72 72 69 66 70 72 70 66 67 63 45 44 67 57 53 50 47 40 41 49 60 69 81 91 91 87 95 87 73 61 57 51 70 62 80 72 54 42 42 41 44 43 40 40
70 73 73 66 70 76 70 68 71 69 54 54 54 49 57 56 48 48 43 42 52 58 79 86 98 95 88 83 51 45 46 45 40 43 57 59 63 57 56 56 55 48 44 41 39
71 73 69 70 73 71 70 62 56 60 64 52 58 56 63 63 57 52 45 54 57 82 80 91 99 77 70 73 66 73 47 45 42 62 66 59 56 49 52 55 53 51 46 43 38
73 69 69 74 70 71 68 50 50 48 72 68 62 60 66 69 74 62 53 50 58 91 74 98 76 61 69 68 88 82 54 49 75 59 63 60 60 49 46 44 40 42 41 39 37
74 71 70 69 79 61 55 50 52 54 98 75 70 63 70 73 72 51 59 58 70 81 69 86 75 71 74 72 69 68 44 40 52 71 77 58 68 50 39 48 43 43 38 38 35
75 75 71 72 75 62 58 51 53 65 97 62 67 53 59 71 64 68 60 67 70 84 85 81 79 84 79 62 57 57 40 51 58 64 58 67 76 46 38 47 48 48 41 40 39
75 75 72 70 72 57 54 55 66 97 93 92 73 72 71 71 77 69 74 72 72 86 85 71 67 76 70 53 52 49 59 63 61 64 89 54 56 48 44 43 44 41 35 34 38
75 79 74 55 72 60 62 71 98 96 69 83 75 65 52 60 62 94 82 94 93 100 98 74 80 80 76 68 56 56 76 93 94 94 83 46 52 46 32 32 35 34 36 33 34
77 79 74 52 62 67 75 82 91 66 94 57 67 62 64 62 65 81 96 84 78 74 86 95 99 89 72 63 64 62 58 84 73 85 73 48 71 44 34 31 32 30 34 31 33
85 82 72 69 66 75 81 95 90 90 88 61 62 68 64 62 64 72 74 70 68 56 77 82 94 72 63 60 60 68 79 52 70 50 74 60 48 36 30 33 32 33 31 40 37
80 74 83 65 70 82 84 88 71 56 51 50 89 61 70 64 73 73 77 66 65 58 50 62 91 74 67 64 64 70 48 70 88 78 64 56 48 44 33 32 30 36 39 36 32
79 85 81 77 82 91 94 94 58 48 51 56 60 53 51 58 65 65 74 69 51 58 51 55 70 88 75 78 66 68 83 64 60 77 86 66 47 34 35 35 41 43 43 46 46
74 96 87 85 99 94 93 68 64 53 52 54 55 54 52 51 54 58 68 60 49 49 57 56 76 96 86 66 61 66 66 56 91 76 76 79 62 30 34 34 39 42 38 42 45
77 93 83 93 96 94 66 56 54 55 53 52 52 51 49 51 63 57 58 63 54 52 55 52 82 98 92 70 67 74 65 60 60 80 86 88 60 31 33 33 32 40 40 39 45
71 95 96 98 77 80 62 59 61 61 49 46 46 48 49 52 52 61 65 64 66 56 66 63 65 79 92 78 75 84 62 56 77 96 77 72 55 41 36 35 36 39 45 44 43
72 72 72 94 84 68 60 53 55 60 54 47 52 49 47 55 54 59 60 66 63 67 62 64 96 85 64 63 77 76 68 59 78 70 86 63 52 43 40 44 44 46 41 39 42
64 64 65 63 57 61 66 65 54 61 56 52 57 49 49 58 58 60 55 58 64 66 64 66 96 86 84 60 70 84 69 64 60 58 63 62 64 46 48 60 46 42 43 44 43
65 60 63 65 61 62 63 58 54 61 62 58 55 54 56 72 66 58 52 50 54 57 64 71 85 92 90 71 76 81 64 65 62 57 57 71 56 48 48 45 49 54 52 50 47

GFSSW_sfc_rhum_081.txt.gz
RH
66 63 68 61 59 70 64 58 58 60 61 62 61 62 65 66 71 66 78 74 64 61 63 59 60 61 66 85 84 79 90 87 74 64 52 44 46 43 38 46 61 70 85 77 83
63 66 68 67 61 63 70 62 62 60 64 65 61 62 66 66 75 72 65 71 60 62 70 74 76 64 90 87 86 85 92 78 61 66 51 46 44 41 45 51 81 88 80 90 88
64 66 69 69 60 60 67 69 66 63 64 68 62 63 65 68 82 77 61 72 67 63 68 72 68 70 90 83 82 81 89 72 72 74 62 50 51 45 48 56 54 96 92 95 97
65 65 68 70 65 64 63 73 65 66 62 66 63 64 64 73 94 63 57 58 64 67 70 72 70 82 84 78 76 88 73 73 76 81 75 56 48 54 50 52 42 77 87 94 96
66 65 68 69 69 62 62 67 67 67 63 67 64 63 70 83 60 49 58 58 63 66 80 77 80 83 80 72 71 79 78 75 70 80 72 68 71 52 53 43 42 78 80 96 96
67 65 69 70 70 63 65 65 68 68 65 68 63 64 83 86 34 38 36 68 71 75 77 82 76 75 67 63 67 70 68 72 73 68 88 76 78 60 54 44 41 77 86 91 90
67 67 69 71 67 64 61 67 67 68 70 68 63 62 80 73 38 43 39 47 82 70 77 64 72 83 76 65 51 64 72 73 74 75 81 75 79 73 51 47 43 57 83 83 84
69 68 70 72 66 65 66 69 66 71 74 69 62 74 77 42 48 40 40 47 62 62 69 85 80 81 83 73 59 69 71 90 67 83 83 86 82 70 53 51 50 48 56 56 59
70 70 71 69 67 63 68 73 68 72 68 65 76 84 73 44 52 48 47 48 54 70 75 69 86 84 77 90 74 78 98 95 91 77 88 84 81 61 69 54 54 53 51 52 52
71 71 73 72 65 70 72 70 72 71 67 56 56 74 64 64 58 52 49 44 58 74 78 78 92 93 92 90 87 82 80 74 79 84 79 88 81 64 68 61 57 57 52 52 52
72 72 74 68 68 71 77 85 86 85 73 69 62 51 62 65 57 57 50 54 64 68 91 89 99 94 91 79 83 69 64 65 58 72 76 75 69 60 58 61 57 57 54 49 48
72 73 71 68 68 71 81 93 72 71 79 61 64 64 66 71 64 59 52 67 68 88 86 91 99 84 69 74 82 81 63 58 55 70 62 62 63 60 59 63 61 58 59 53 48
72 73 69 68 69 80 88 75 60 61 86 71 68 67 77 78 79 72 63 57 68 86 84 89 88 75 77 88 84 84 69 65 62 75 80 75 81 68 56 57 58 57 60 55 47
74 73 71 69 81 83 81 61 59 63 95 81 80 70 77 78 78 60 67 71 81 88 79 88 75 74 82 78 70 91 63 56 64 80 90 70 90 63 53 60 59 61 61 58 54
75 74 71 71 93 74 66 59 60 75 96 68 75 60 70 81 71 77 72 75 74 86 77 70 86 86 81 67 67 79 66 57 63 74 73 81 72 55 49 58 58 54 55 50 46
77 75 72 79 89 68 61 64 77 95 90 90 78 89 73 75 77 74 80 74 74 81 82 88 68 78 78 60 66 67 69 78 77 75 94 69 68 61 57 46 57 58 54 48 44
77 77 77 67 80 67 72 87 95 100 78 84 82 73 79 84 90 86 80 88 89 96 96 89 87 79 81 79 68 75 80 99 98 96 81 55 61 53 43 37 42 48 52 47 44
78 82 79 60 75 77 85 94 95 64 88 60 77 78 70 66 80 84 85 89 82 94 93 96 98 86 76 79 77 78 80 86 86 92 74 53 69 45 39 38 38 36 36 37 38
85 95 87 82 75 86 94 94 84 86 82 73 77 84 74 75 75 88 96 72 82 90 84 89 99 80 76 69 68 75 86 56 74 62 81 68 57 36 41 39 41 39 36 38 40
97 88 86 80 74 87 94 84 79 70 66 61 89 79 77 83 83 88 94 78 76 68 71 75 95 74 69 68 66 65 60 72 89 76 70 76 65 51 42 40 46 48 50 48 45
83 98 92 80 82 93 93 92 75 56 61 66 78 70 54 72 75 82 89 74 64 67 60 67 78 89 79 82 78 75 85 71 66 86 87 71 56 41 41 49 52 52 49 50 52
88 99 91 85 99 96 87 85 64 62 64 65 60 64 54 54 71 73 80 67 57 52 69 83 84 95 86 78 73 82 76 68 90 77 86 86 62 37 44 47 47 48 46 49 54
93 97 86 94 97 93 84 71 65 66 66 65 64 59 61 61 73 70 75 67 58 60 65 64 88 97 91 78 75 88 72 70 71 80 85 85 61 38 42 41 44 45 48 48 56
91 99 99 99 93 92 87 76 76 67 60 53 53 55 58 66 60 74 78 71 69 65 66 63 76 81 88 78 82 90 71 71 78 94 79 84 65 50 40 40 39 45 51 55 50
86 94 86 98 89 84 89 69 74 73 63 54 61 60 57 64 67 74 75 77 69 65 64 72 90 84 70 68 78 80 73 70 84 72 84 64 61 52 54 53 48 48 46 44 44
80 87 86 91 83 91 89 73 69 68 64 63 67 57 59 78 75 66 70 77 79 73 67 72 94 85 82 67 75 83 73 74 72 66 69 65 68 49 55 52 52 55 55 55 52
75 68 68 75 84 86 83 69 66 71 70 69 68 64 81 82 80 71 66 54 63 73 77 78 87 93 94 73 75 78 71 72 72 65 63 78 57 60 55 52 59 60 59 57 54

GFSSW_sfc_rhum_084.txt.gz
RH
64 62 64 69 65 61 61 69 61 62 60 63 66 63 63 65 68 75 87 77 65 62 60 67 70 62 69 87 81 89 92 86 77 58 50 49 48 44 46 54 69 79 74 67 76
65 64 66 69 69 64 60 67 68 64 63 64 69 63 64 66 76 80 59 60 66 65 74 83 81 79 85 91 85 92 88 78 64 70 58 56 48 43 56 79 95 94 89 81 76
66 65 65 68 69 63 63 58 71 66 65 63 67 64 65 68 88 75 51 55 64 65 70 76 85 83 90 88 84 84 86 68 68 84 74 65 58 48 55 61 72 92 87 94 87
66 65 62 67 68 67 64 60 67 67 66 63 68 65 65 77 82 56 53 51 61 71 78 73 78 95 89 86 80 96 74 66 77 86 77 84 74 60 54 55 62 85 83 95 89
68 67 65 66 69 67 63 66 64 68 69 64 67 65 74 88 85 40 52 54 54 66 76 81 84 82 88 81 78 83 76 72 85 83 79 70 78 66 54 48 68 88 89 94 96
69 67 67 68 70 64 65 60 65 68 68 67 67 64 86 95 42 37 49 68 72 73 82 80 75 73 91 70 74 66 85 69 88 82 79 82 79 68 57 51 88 84 94 95 93
70 68 68 69 70 65 65 65 67 66 69 71 67 64 87 85 45 48 46 66 79 74 83 70 74 90 80 69 65 71 86 89 82 79 88 79 81 69 66 52 83 88 92 91 94
70 69 69 70 67 66 61 67 70 68 72 70 66 78 92 48 49 48 47 71 62 78 77 71 80 89 87 77 76 74 83 96 90 86 93 76 85 74 74 69 58 78 91 91 88
72 70 70 72 72 65 68 68 71 69 70 66 80 82 84 49 58 52 55 54 64 78 90 65 86 84 82 89 87 90 98 86 88 74 90 81 83 65 75 72 60 60 67 62 60
73 72 72 74 66 67 69 71 72 74 65 62 64 84 64 68 63 58 55 54 64 74 74 81 91 94 87 93 90 90 91 84 82 87 81 93 89 78 75 78 69 62 61 58 56
75 74 72 70 67 68 79 87 81 85 80 76 68 62 68 68 64 61 56 60 64 75 92 92 98 100 88 86 79 77 84 83 75 76 80 86 81 77 70 66 72 69 62 57 52
80 75 72 68 68 69 83 92 73 73 82 64 67 72 69 74 78 65 58 69 76 95 87 93 100 91 78 78 84 73 63 82 68 77 75 75 80 68 73 60 69 63 62 55 56
83 76 72 69 69 81 90 83 63 63 90 76 72 72 79 79 82 75 72 72 78 85 88 96 93 82 77 86 88 83 82 69 86 84 74 76 80 70 61 59 63 61 57 58 52
84 76 74 71 80 85 88 68 63 65 94 85 85 71 77 79 79 64 73 78 79 89 79 90 88 80 80 84 77 80 68 62 72 88 96 85 94 70 64 61 62 67 71 65 61
86 77 76 74 93 81 68 64 65 75 94 69 84 65 78 88 70 77 75 76 82 88 82 79 88 88 83 72 68 78 71 65 74 87 83 98 86 57 56 62 65 65 66 64 62
87 78 77 82 90 79 67 69 75 93 90 92 82 89 76 78 79 80 80 76 76 84 81 87 70 80 80 67 64 78 81 84 87 96 98 79 78 65 56 51 59 58 62 58 55
85 79 80 71 87 72 74 85 91 99 77 82 92 86 78 82 94 88 85 93 93 91 98 90 87 81 83 81 81 84 86 99 99 99 86 69 84 70 43 44 46 52 58 60 57
86 79 78 68 78 77 86 95 96 73 89 60 75 77 82 78 80 83 79 94 93 91 99 97 99 89 84 86 94 88 80 91 90 92 74 65 81 50 42 39 42 49 54 41 44
85 93 89 84 80 86 95 95 87 82 78 72 82 93 81 73 84 86 88 87 89 90 92 97 99 78 80 74 73 84 88 62 70 68 83 64 53 40 42 41 41 40 41 43 42
96 94 93 82 80 88 89 84 84 71 71 71 86 82 88 89 90 86 93 82 76 75 70 79 98 84 74 72 68 71 63 75 87 78 74 77 73 49 53 46 48 47 51 52 51
88 95 93 80 80 87 92 89 78 60 62 62 89 84 68 84 81 92 88 78 72 68 64 68 76 86 78 85 84 75 79 74 70 87 80 75 60 42 42 51 52 55 53 52 53
92 98 95 83 97 97 91 77 71 66 68 67 65 65 53 63 74 76 89 79 64 58 72 84 83 98 91 83 81 84 84 73 87 76 89 86 60 46 46 53 52 53 52 67 60
97 98 91 95 99 94 77 85 68 71 70 70 68 64 67 66 79 79 81 72 62 64 72 74 87 97 91 76 74 87 77 74 73 82 87 78 58 39 52 59 53 55 67 52 64
98 98 95 99 93 89 96 85 76 68 67 60 59 58 64 73 69 82 85 76 72 66 67 66 82 79 87 77 84 91 81 78 78 93 82 78 63 49 47 49 51 53 66 67 64
92 97 84 96 95 86 91 78 81 77 65 56 65 62 62 75 75 87 84 83 73 69 70 71 89 86 78 77 82 84 79 80 86 76 84 64 64 51 59 66 54 51 55 54 55
90 96 91 94 83 85 86 88 78 71 67 67 68 61 66 70 77 77 79 84 79 80 79 78 96 84 82 70 75 82 71 76 76 73 75 74 73 57 66 60 59 60 58 59 56
85 75 74 88 96 90 94 80 72 75 77 69 63 78 81 81 80 79 71 64 74 76 79 80 88 92 93 78 71 77 68 73 75 72 67 78 56 55 57 54 60 63 65 60 57

GFSSW_sfc_rhum_087.txt.gz
RH
68 66 64 67 70 69 62 60 65 67 64 63 62 70 64 64 67 76 89 77 67 58 60 65 70 76 65 86 84 86 96 95 79 65 57 47 48 45 50 61 73 72 82 73 88
69 67 65 65 68 69 62 63 58 67 68 65 64 67 64 66 78 86 65 53 56 61 75 84 88 83 84 90 85 91 95 88 68 63 52 54 48 48 64 88 96 96 83 76 89
70 68 67 63 67 67 66 64 61 63 68 67 63 68 65 71 87 76 52 48 53 64 71 83 82 85 92 84 88 85 86 70 68 86 75 63 66 59 68 70 86 92 96 91 90
70 69 68 67 65 68 66 64 63 63 69 68 64 67 66 80 85 52 49 50 57 64 79 82 84 80 92 92 85 89 68 73 75 87 81 83 85 65 58 58 60 82 87 85 86
75 72 69 68 69 70 65 65 61 63 70 70 65 66 77 92 85 52 45 54 58 65 74 85 87 80 88 90 81 88 61 83 84 85 81 77 84 80 61 56 92 89 81 81 84
81 78 70 70 70 70 64 64 64 65 69 69 66 66 86 90 50 40 47 64 72 74 77 85 79 74 90 88 80 84 67 81 77 84 85 84 86 76 64 65 95 87 94 90 90
86 81 73 70 71 71 67 62 64 69 68 71 68 67 80 79 55 49 50 67 74 85 84 78 74 92 91 82 70 64 75 83 84 86 86 80 83 82 80 60 93 92 91 95 97
87 84 76 72 72 71 66 63 67 71 70 72 65 80 94 58 55 50 50 58 70 80 77 77 75 87 87 79 79 82 86 97 88 89 86 79 85 82 83 68 78 86 94 96 98
90 86 81 73 74 72 68 69 69 70 71 67 85 84 92 52 59 56 58 57 71 81 86 72 75 93 84 92 91 85 98 97 92 80 87 84 90 71 75 79 66 78 80 74 81
89 89 83 76 75 70 70 71 70 74 68 65 70 89 68 72 67 62 59 58 69 84 83 90 97 97 92 94 94 97 96 94 97 95 89 89 84 85 73 77 80 67 67 65 58
91 90 86 79 72 70 78 84 83 87 80 75 72 72 70 66 67 64 58 63 67 76 96 89 96 100 91 92 77 66 88 91 89 86 84 88 88 81 77 76 78 73 66 61 60
93 90 87 78 71 71 82 86 71 72 73 69 69 74 72 76 78 66 65 70 76 97 88 87 96 90 83 81 81 77 80 85 79 80 78 88 86 79 79 78 76 72 66 62 58
92 90 88 79 71 79 86 82 66 64 84 77 74 74 79 78 82 77 76 76 80 90 87 95 92 84 91 81 84 86 85 84 83 84 80 85 88 81 82 79 74 67 65 58 57
90 90 89 79 83 84 87 73 67 64 94 79 90 75 76 79 78 66 77 81 78 92 84 93 89 89 90 94 86 92 74 74 86 89 99 86 96 79 66 71 60 61 74 66 60
89 90 89 79 86 84 69 69 69 70 96 68 86 69 81 81 68 74 76 77 87 89 83 92 90 88 85 94 84 89 77 77 77 86 92 97 98 60 62 72 58 69 68 69 65
86 90 90 86 88 75 71 69 70 90 95 95 88 88 83 79 80 83 81 77 79 82 80 85 75 80 81 75 78 82 84 84 90 96 98 90 85 62 63 57 50 56 64 64 64
88 91 88 81 87 77 76 80 93 98 76 86 93 92 78 95 91 86 84 91 94 91 99 88 86 82 86 85 84 88 84 99 99 99 89 80 80 70 59 46 44 48 56 62 66
89 91 87 80 74 80 86 86 97 71 92 67 80 84 83 91 82 88 88 97 91 88 94 95 96 96 86 82 92 92 77 88 93 95 83 81 83 65 46 47 49 52 62 54 57
93 97 97 90 76 83 86 96 84 82 76 80 82 91 91 78 80 88 93 86 84 94 87 96 99 79 90 76 83 88 91 68 72 74 84 76 53 41 47 44 45 44 42 44 49
99 97 96 84 80 88 90 84 82 71 73 74 84 84 92 92 86 82 94 78 79 82 81 87 96 81 78 72 73 76 71 75 87 80 70 76 74 51 56 51 47 50 51 52 54
98 99 94 82 81 94 97 89 78 67 67 71 82 90 83 90 84 86 88 81 76 75 72 74 80 89 76 88 86 76 72 74 71 87 80 84 65 51 44 47 51 56 58 58 59
96 100 95 83 97 98 97 76 74 71 71 68 76 80 71 80 79 84 89 86 68 62 74 82 87 97 90 85 84 86 83 71 84 79 91 83 61 51 48 52 54 55 56 66 60
97 99 97 97 99 99 79 83 80 75 72 74 71 67 70 71 89 76 86 74 66 69 82 75 88 96 84 74 79 86 82 77 76 82 88 82 61 46 60 56 57 56 57 53 60
99 100 100 99 91 84 95 94 75 70 71 70 66 63 72 76 71 87 88 81 72 69 69 67 83 78 86 73 82 91 85 82 80 92 83 80 71 57 52 54 52 56 66 60 55
98 96 87 98 94 94 90 85 64 80 69 63 68 65 71 82 83 90 88 85 73 67 76 69 88 87 80 84 85 86 83 86 88 80 84 69 73 51 61 72 69 56 60 58 57
98 96 85 91 79 82 88 94 74 77 70 71 71 66 68 74 76 85 84 85 80 75 79 79 95 85 82 74 77 82 80 84 84 82 80 81 77 59 57 62 61 59 63 61 62
91 80 80 79 83 79 84 92 79 79 84 68 66 79 78 77 74 75 74 74 76 75 80 81 90 92 92 83 73 77 71 77 81 81 74 84 68 65 65 57 60 63 67 66 60

GFSSW_sfc_rhum_090.txt.gz
RH
75 71 68 65 66 70 70 64 62 61 67 68 66 62 68 64 66 79 88 71 68 60 52 75 77 78 82 91 84 85 94 87 77 72 72 53 46 48 53 66 72 65 76 72 96
82 74 70 67 66 67 69 69 63 62 59 70 67 63 68 66 84 91 68 57 50 53 73 89 95 86 96 88 89 91 86 74 61 67 66 62 53 48 70 86 94 93 85 82 96
87 80 77 69 67 65 67 68 67 61 61 70 68 64 68 73 85 71 54 46 48 65 79 84 88 88 88 77 83 86 87 62 61 60 82 68 63 59 72 90 83 83 97 91 91
89 84 81 78 69 67 68 69 66 62 63 70 70 65 68 81 69 52 46 47 50 61 72 80 90 98 81 77 64 89 70 67 61 61 88 80 76 67 71 65 61 80 86 88 80
89 87 81 82 73 70 69 69 66 61 62 69 69 67 75 91 88 54 45 54 60 67 65 74 94 87 76 79 77 83 76 68 65 63 81 85 85 72 69 61 90 83 80 85 78
91 87 82 85 76 74 71 69 64 66 70 66 69 70 87 95 55 50 48 65 63 70 81 72 85 84 78 69 91 78 71 67 72 67 76 92 86 85 76 71 95 92 83 88 86
84 91 84 87 81 77 71 67 66 67 70 67 69 65 85 79 59 60 54 57 65 72 91 72 82 89 70 82 72 69 85 74 77 76 91 87 88 90 90 74 96 93 91 85 93
79 92 86 84 86 81 74 71 68 69 72 69 66 75 91 60 67 60 54 53 76 75 78 76 79 85 85 91 96 89 86 94 78 77 86 87 98 90 86 81 79 95 98 91 97
74 92 88 85 86 78 73 69 70 72 71 70 82 89 87 55 62 56 64 59 74 85 87 70 80 85 87 98 95 92 90 92 85 79 94 88 92 88 86 83 75 75 83 94 91
77 89 89 86 87 85 72 72 74 74 73 68 71 91 69 72 68 63 62 61 71 80 81 82 90 97 97 97 97 96 95 94 92 87 84 89 84 76 82 86 80 72 77 70 88
68 82 92 89 87 76 80 83 86 92 83 80 77 77 69 66 70 65 61 64 71 80 96 91 100 100 91 87 81 91 87 97 90 83 89 90 89 76 81 87 88 71 68 68 65
72 80 90 86 86 79 85 91 70 69 71 72 72 75 74 77 84 63 65 71 77 95 90 89 99 93 87 90 82 81 93 96 89 87 86 87 86 78 81 82 80 70 66 66 60
69 79 89 87 82 88 87 82 67 67 78 78 76 76 79 78 81 75 77 78 85 90 91 93 88 80 89 85 84 85 80 89 84 86 84 87 92 86 85 88 80 80 66 65 59
70 76 90 88 88 85 88 72 72 66 93 82 91 79 76 81 76 68 79 82 76 91 89 91 83 84 96 84 90 88 77 73 86 87 94 82 93 87 76 83 83 77 74 68 63
70 79 88 80 94 92 79 73 71 69 84 70 88 72 81 83 64 72 77 76 88 86 86 92 87 82 96 96 83 91 82 83 80 91 92 96 96 75 78 88 72 73 67 66 66
70 76 82 94 94 88 72 67 69 89 78 94 86 88 87 82 80 81 82 76 82 86 81 88 73 84 85 87 85 83 86 88 96 93 98 91 82 68 71 66 62 54 61 63 60
70 73 80 84 90 87 79 75 93 92 73 92 94 92 83 82 85 85 89 88 93 97 99 87 86 83 84 92 82 79 97 99 99 99 94 88 84 71 57 51 47 53 51 59 68
73 77 77 79 93 84 84 85 94 68 90 70 86 92 93 82 89 90 90 92 89 92 86 95 87 92 80 90 92 91 79 95 95 97 94 86 90 62 45 47 50 53 55 60 69
76 91 98 92 93 92 89 99 79 82 79 87 82 90 93 90 86 89 94 90 80 92 92 97 98 83 83 80 87 83 87 65 72 69 88 86 62 44 46 47 47 45 48 52 54
97 96 96 94 92 95 97 85 78 70 77 71 80 84 96 93 90 85 87 80 82 80 84 88 95 94 81 80 79 84 67 76 85 85 72 75 77 55 52 52 51 51 52 57 58
98 98 94 93 93 98 98 91 77 69 73 70 80 92 87 92 88 83 87 82 78 78 84 84 84 93 81 90 88 80 76 76 75 86 78 76 58 52 49 52 59 61 60 60 63
98 100 97 93 100 99 98 78 71 77 77 74 75 79 84 86 92 94 89 87 65 68 85 81 88 99 92 87 86 88 85 75 83 78 90 84 61 59 60 55 58 58 57 62 69
98 98 98 94 99 98 82 80 81 81 78 77 76 74 66 78 88 87 86 78 68 73 84 76 87 94 86 74 74 85 85 76 77 81 88 82 66 51 67 62 61 56 62 63 66
98 100 100 99 89 88 92 91 92 78 77 72 67 68 77 82 83 90 90 83 76 74 67 66 84 77 90 75 85 91 88 83 81 90 82 79 72 70 67 59 54 67 62 62 67
98 98 91 98 98 86 90 90 82 84 75 66 71 70 77 85 85 92 90 86 77 69 80 70 90 88 84 88 86 85 84 88 90 81 82 72 71 58 66 72 70 65 61 60 63
98 97 86 88 77 90 86 90 73 78 78 76 73 69 76 78 78 87 87 86 81 78 82 80 96 84 86 78 77 82 82 85 88 85 83 82 80 62 65 74 72 70 69 63 64
95 82 83 91 84 83 95 90 66 79 83 69 67 77 76 77 76 79 79 80 80 79 83 82 88 91 91 85 75 78 73 78 83 84 80 86 73 73 68 60 64 68 70 65 63

GFSSW_sfc_rhum_093.txt.gz
RH
85 84 76 71 69 67 66 69 69 65 63 62 70 66 63 68 68 76 84 60 67 59 53 66 72 76 74 83 76 77 89 82 69 69 58 49 55 47 38 39 53 55 60 77 96
89 86 83 75 76 71 67 67 67 68 61 62 71 69 64 69 79 87 66 55 53 48 67 78 83 85 88 90 83 86 87 67 50 53 55 52 53 50 50 47 63 69 89 92 86
88 88 86 77 78 75 70 67 69 68 63 63 72 70 67 69 70 56 54 54 44 63 71 82 87 80 86 80 77 71 85 56 50 48 60 61 57 50 57 66 55 62 95 93 85
82 85 91 82 79 78 71 68 69 66 63 65 72 67 66 73 65 44 48 42 46 60 63 72 78 83 89 81 68 81 63 61 60 54 61 61 79 67 68 54 59 62 79 81 89
82 83 88 84 80 79 74 73 69 65 66 66 71 69 70 81 78 52 46 49 60 65 69 69 80 86 87 72 66 71 58 57 60 62 66 72 76 80 72 46 63 77 76 75 81
72 75 80 90 84 81 78 73 69 65 66 70 68 68 81 92 48 51 49 57 61 65 66 79 77 80 82 69 68 75 64 70 65 59 64 76 71 77 72 69 72 72 87 82 80
66 66 80 92 86 83 79 76 68 66 67 70 67 68 88 80 55 59 60 59 58 70 82 72 79 90 79 71 69 61 89 81 71 65 68 73 75 71 75 78 82 63 88 85 76
65 68 76 91 88 82 80 73 71 70 68 69 68 69 89 59 63 65 54 56 73 75 76 73 71 85 78 81 86 92 93 91 74 74 85 69 75 78 76 78 76 78 72 84 80
64 66 74 86 90 86 83 76 68 72 71 67 82 83 91 55 60 56 60 60 71 82 82 70 80 80 78 90 98 90 93 86 92 72 86 85 86 80 78 76 75 78 83 76 90
63 67 73 83 88 87 82 73 77 74 72 68 71 94 71 66 64 62 64 64 68 72 74 81 87 92 91 98 96 89 80 76 81 85 78 96 98 87 78 77 82 77 78 86 82
62 66 72 81 88 85 86 84 87 89 84 84 80 79 67 65 67 68 62 69 74 78 94 86 98 100 89 90 85 80 81 83 88 84 82 86 97 90 73 78 81 83 80 82 90
64 67 72 83 86 83 89 90 81 70 81 77 72 75 72 75 73 62 67 72 75 90 89 94 99 92 90 90 84 83 84 90 91 81 80 90 95 85 75 82 82 81 71 69 74
65 67 74 90 84 91 90 86 79 63 76 72 74 77 77 75 78 73 77 77 82 90 91 89 81 81 81 83 84 86 83 90 91 85 79 83 99 89 78 78 82 77 71 60 57
65 67 77 88 86 89 91 82 83 66 93 77 92 77 77 77 74 67 77 84 73 88 88 84 76 84 84 81 89 87 81 70 85 81 87 78 91 85 82 78 76 75 71 61 57
66 67 71 82 95 90 88 89 83 67 97 74 87 72 80 72 62 66 77 77 86 81 83 96 85 88 91 94 84 82 80 79 82 89 83 88 91 85 77 77 72 72 71 60 56
66 69 72 94 94 91 83 82 72 95 94 96 88 91 88 84 78 80 81 75 78 85 86 93 70 80 86 84 87 81 83 87 86 88 91 88 83 59 68 63 64 74 58 71 60
69 72 78 81 92 91 87 84 99 96 74 95 94 93 85 81 89 88 88 82 89 93 98 82 83 80 83 95 85 81 97 99 97 96 90 79 74 59 52 45 47 58 48 64 61
72 71 82 78 92 88 93 98 97 76 86 73 91 94 94 75 89 89 87 85 82 89 88 93 87 89 84 88 96 96 88 89 91 92 96 78 86 58 45 46 50 48 51 58 57
75 96 96 93 90 85 95 99 92 87 80 89 86 90 82 89 87 92 94 90 80 87 90 96 99 83 80 85 87 87 86 66 72 69 83 76 55 36 43 45 44 47 48 54 52
97 95 90 93 89 91 100 93 92 66 76 74 80 85 95 95 86 89 81 77 80 76 86 87 94 96 82 78 76 75 63 74 86 84 76 63 62 54 47 50 49 50 56 58 60
96 98 94 94 90 98 99 98 82 64 75 70 86 91 88 95 87 88 89 80 75 80 84 77 79 92 79 88 92 77 73 71 71 79 67 64 52 46 51 48 56 58 61 62 62
96 100 96 97 99 100 99 91 70 78 78 80 81 82 87 89 92 92 91 86 67 70 82 78 87 97 93 81 84 88 81 66 78 75 81 72 57 52 59 48 56 58 61 63 64
98 96 98 94 98 99 95 90 79 85 82 80 83 74 75 85 93 87 88 79 68 73 83 73 86 94 83 72 72 83 82 73 73 75 86 74 60 50 58 57 54 56 60 57 57
99 97 100 96 91 85 99 96 81 78 80 76 75 72 75 85 86 91 92 82 72 76 69 64 80 77 83 73 82 89 84 73 75 83 73 64 60 59 57 52 53 58 58 58 58
98 95 93 99 99 97 91 84 88 84 73 72 74 74 77 87 89 94 91 85 75 70 78 70 89 90 85 84 82 81 83 82 86 71 76 64 60 54 59 58 54 53 56 57 56
98 97 87 89 94 99 98 88 88 78 81 80 76 74 79 78 75 89 87 85 83 74 83 79 96 82 82 74 72 75 78 85 81 78 76 75 72 56 50 60 56 56 56 60 58
96 85 79 98 99 98 94 81 71 75 81 74 71 76 78 78 78 81 83 83 79 75 83 81 87 89 90 81 72 72 70 77 79 80 76 79 67 64 64 60 60 62 63 62 65

GFSSW_sfc_rhum_096.txt.gz
RH
81 85 87 83 76 70 70 66 66 65 65 60 58 68 68 65 70 56 57 35 42 57 51 43 40 46 49 56 54 49 75 62 44 37 32 21 24 26 30 30 24 28 38 40 56
75 80 82 90 80 75 73 68 66 67 65 59 62 70 68 69 57 53 41 54 55 47 49 46 44 50 51 52 54 60 60 47 30 28 30 28 27 27 32 36 36 31 41 67 73
70 77 86 84 85 78 75 70 66 67 65 61 62 72 67 58 54 35 50 58 48 56 48 49 53 67 64 50 49 49 64 34 34 31 30 36 34 29 39 41 34 30 32 81 70
68 74 75 80 90 83 79 70 67 67 64 62 62 69 67 52 68 33 51 42 44 49 52 52 55 73 74 64 43 57 40 38 37 34 40 43 38 38 37 34 29 28 41 75 79
61 66 69 76 85 87 78 78 69 65 61 65 66 71 59 62 55 34 46 43 41 49 51 57 66 74 82 61 48 49 42 34 36 35 38 45 48 47 47 41 37 32 36 61 72
62 64 67 75 84 87 84 76 72 63 63 67 69 68 68 82 35 38 38 42 46 48 54 58 70 59 71 72 60 36 38 39 37 37 42 47 47 54 45 54 58 50 42 46 59
61 64 66 70 78 90 85 81 72 66 66 69 65 63 82 72 39 40 48 45 46 51 63 57 63 86 84 68 54 49 54 54 50 45 53 45 62 56 43 47 62 58 43 52 64
61 63 65 68 77 91 85 83 71 67 67 68 68 63 77 47 42 48 44 42 56 57 60 66 79 75 82 54 52 78 82 85 50 48 51 61 62 35 52 65 66 64 48 52 66
63 62 65 67 75 90 89 82 70 71 72 68 72 73 77 47 55 40 43 48 55 65 65 57 69 75 65 66 64 63 97 99 71 49 62 66 57 41 56 56 68 64 52 60 81
65 64 66 69 75 91 81 77 81 74 68 63 68 80 64 54 48 47 45 50 56 65 66 86 84 80 74 75 69 85 70 55 61 65 63 76 85 58 55 60 75 63 61 66 73
65 64 66 71 78 86 84 90 89 86 77 59 64 67 58 52 53 52 48 56 58 69 91 76 96 98 66 60 56 86 72 67 82 65 67 64 71 66 54 60 80 65 71 76 88
66 64 67 72 87 81 84 82 76 71 74 60 62 66 59 59 59 50 54 59 60 73 71 90 94 67 82 76 80 83 66 71 87 80 69 77 81 61 57 58 79 63 78 83 95
66 64 67 81 89 90 90 79 75 62 69 61 69 63 62 59 58 50 60 57 59 76 70 76 61 70 76 76 86 67 49 72 81 73 64 70 92 90 74 79 73 64 62 75 88
72 64 64 80 89 92 89 83 79 66 92 79 83 69 65 62 60 51 61 59 59 71 64 70 61 76 73 68 74 60 50 57 81 73 70 56 93 98 89 87 64 64 60 61 76
74 69 67 70 82 84 84 85 71 65 95 75 82 62 66 63 49 52 60 65 59 63 72 74 76 95 82 84 86 64 59 61 65 67 56 69 89 95 80 67 62 63 64 54 52
74 66 68 81 90 88 85 78 65 98 94 98 81 79 76 70 69 57 61 60 59 73 91 80 64 80 78 81 90 74 64 64 68 65 74 86 97 92 69 52 64 62 61 62 52
75 72 71 63 81 85 84 81 99 93 67 96 80 75 75 76 71 66 66 61 70 98 97 72 92 70 82 95 88 76 66 89 83 91 82 91 90 64 44 40 46 57 53 56 52
73 72 69 61 66 87 84 98 97 73 81 73 75 75 82 58 67 67 62 55 64 71 71 82 91 94 75 89 95 88 75 73 67 66 76 70 80 61 40 38 40 61 50 48 52
74 80 78 74 71 80 95 98 90 89 78 77 74 78 81 67 64 66 63 63 60 74 77 74 98 84 82 83 89 79 71 49 59 52 57 57 43 43 44 46 50 51 48 48 48
86 86 72 80 77 89 99 83 92 71 66 63 61 61 66 63 63 63 62 59 69 63 62 69 96 88 82 66 65 65 50 61 67 71 70 48 48 56 46 42 45 43 45 48 48
85 87 76 86 88 95 98 94 96 67 62 57 59 66 60 66 60 63 66 66 73 68 65 61 69 89 76 85 80 60 53 52 48 53 46 48 47 36 40 42 43 44 44 46 47
89 96 91 92 100 99 93 96 87 68 58 64 58 60 55 64 61 65 64 75 62 59 65 59 62 92 80 60 62 63 57 45 54 55 56 42 46 39 38 42 42 50 48 46 43
97 87 96 97 100 99 98 97 87 71 65 63 64 57 57 64 68 67 68 67 60 58 61 52 67 81 69 56 53 61 56 51 48 56 76 49 48 38 38 42 42 44 40 40 39
90 92 99 97 89 76 98 98 88 67 67 60 59 52 56 66 64 72 67 67 63 61 68 51 58 64 65 67 68 75 63 54 57 72 43 44 49 44 43 43 43 43 39 38 38
96 88 93 100 96 89 91 98 71 76 64 56 57 54 55 68 67 71 67 61 56 60 57 50 92 87 62 60 63 62 64 57 78 53 57 45 43 40 39 37 37 39 40 40 40
90 93 78 91 90 96 98 91 68 73 70 64 61 58 52 54 53 66 62 58 55 53 56 55 86 67 61 53 53 65 61 63 60 55 53 47 48 36 38 38 38 41 42 44 44
90 69 63 98 99 93 76 65 61 71 68 62 55 53 56 60 55 53 54 52 52 52 57 58 68 75 77 59 52 52 53 58 60 60 52 47 49 46 44 44 45 49 47 51 51

GFSSW_sfc_rhum_099.txt.gz
RH
68 71 75 82 84 83 74 71 67 67 67 64 60 59 71 64 69 53 45 38 31 46 57 38 33 32 37 44 37 37 51 48 38 34 28 18 17 13 13 17 17 18 19 26 55
62 64 76 79 81 86 78 74 69 67 69 63 60 62 69 68 52 43 33 45 47 51 40 38 35 35 38 38 43 49 50 44 26 23 24 20 18 17 16 18 21 23 20 24 56
62 60 69 75 75 82 84 78 74 68 69 63 61 67 68 60 46 30 49 55 57 52 40 36 40 46 53 35 38 42 52 31 26 23 22 23 22 18 21 23 20 22 24 43 56
61 62 60 66 70 78 90 88 76 68 68 62 61 70 69 46 54 27 56 54 45 40 43 48 50 61 65 49 33 43 37 33 32 27 26 28 24 28 28 25 20 17 21 38 73
64 61 63 64 66 78 86 87 77 72 66 63 65 72 60 54 41 30 50 46 35 39 46 49 59 61 66 52 43 42 35 32 31 29 29 26 31 36 28 26 27 23 33 53 49
61 62 62 65 66 74 80 86 79 72 67 65 72 71 57 66 30 27 33 35 38 40 45 50 58 58 71 63 62 45 42 36 33 32 30 32 29 30 33 29 32 38 40 43 44
63 61 63 65 67 72 81 89 81 73 69 70 72 54 65 50 30 30 35 38 38 42 52 48 56 71 73 70 48 51 54 43 40 35 35 30 37 36 28 30 37 38 40 44 38
66 63 64 65 67 71 88 84 83 75 70 72 70 55 55 42 34 38 37 39 36 47 52 53 58 70 83 56 51 56 53 67 38 36 41 38 58 32 26 33 35 40 43 45 36
68 67 65 65 68 76 89 85 78 78 76 71 60 58 60 47 49 36 34 37 41 55 54 49 66 73 76 94 69 48 68 73 72 44 41 46 61 37 26 42 43 43 45 47 45
70 69 67 65 68 80 89 88 83 79 75 58 58 76 52 50 40 37 33 41 49 59 65 82 87 91 69 81 66 56 65 56 88 50 44 52 62 47 48 44 45 51 48 45 45
75 72 67 65 68 75 88 90 83 86 72 62 63 54 47 45 44 46 38 46 51 58 82 72 97 96 68 59 50 49 60 68 82 83 49 54 58 44 36 42 48 53 63 50 56
74 72 66 67 84 83 82 84 66 63 86 56 47 52 52 51 50 45 43 56 53 71 70 95 97 59 67 72 62 59 62 64 66 65 55 52 50 40 42 42 45 58 60 60 67
75 72 65 68 87 92 92 69 69 56 81 57 52 59 54 57 48 43 48 45 50 55 65 86 61 51 77 78 73 63 63 57 81 85 63 66 75 64 58 58 49 57 53 64 71
78 78 64 78 88 90 91 68 74 52 98 76 69 61 60 53 57 37 47 50 48 58 52 54 46 61 63 66 61 85 41 56 85 97 90 57 88 92 90 68 60 61 68 79 86
80 81 66 69 74 83 76 64 67 52 97 72 78 56 56 57 46 49 48 55 56 50 61 65 61 93 85 93 84 66 43 68 67 64 86 68 70 98 92 84 75 78 77 92 89
81 77 70 64 67 69 82 70 65 99 98 97 74 73 68 58 47 47 52 54 50 61 68 67 52 74 72 71 76 70 60 56 60 70 95 94 98 99 97 93 86 66 68 78 88
77 78 69 50 68 72 70 86 100 98 62 90 75 65 61 65 64 50 53 60 67 97 89 57 59 63 79 94 80 80 62 95 95 92 94 96 96 99 74 76 72 73 66 60 60
71 69 66 49 58 76 82 99 100 65 87 71 60 59 62 52 59 54 50 55 50 57 66 76 92 84 75 92 97 80 84 94 64 79 88 80 95 98 58 56 64 66 60 73 73
69 68 65 56 56 85 91 99 99 91 70 67 60 65 58 50 52 48 46 54 52 56 90 69 93 72 88 80 83 62 73 44 52 41 54 79 96 76 68 62 71 63 68 58 59
80 70 63 57 57 82 98 88 99 74 64 53 66 56 60 48 50 54 53 50 59 56 54 90 99 87 82 87 76 78 47 70 68 66 63 71 84 91 88 74 74 77 63 52 50
64 69 75 66 71 96 95 99 97 62 61 57 55 50 39 44 56 47 51 61 66 63 67 83 96 86 78 70 69 58 50 42 41 48 42 54 85 38 45 57 48 49 48 48 45
76 92 85 71 98 100 95 90 94 69 52 56 52 48 41 44 49 49 55 68 64 56 85 64 67 97 72 51 52 56 46 39 51 46 43 44 59 32 37 38 42 45 42 40 38
88 98 94 85 97 94 95 96 85 64 60 60 59 49 44 49 56 52 58 59 53 53 56 46 58 87 67 53 47 52 43 37 41 55 67 49 53 32 36 38 36 38 37 35 34
83 100 97 94 83 67 96 99 79 61 61 60 52 43 47 51 49 58 55 59 56 53 67 53 56 68 73 71 64 64 45 40 54 67 38 41 49 41 39 41 39 36 34 35 37
80 88 83 99 77 72 92 92 61 70 61 55 51 45 45 52 49 56 53 51 48 57 47 44 87 88 51 49 54 54 49 43 64 40 56 41 42 37 35 36 35 35 36 36 38
78 73 74 76 73 95 92 68 55 64 64 63 53 45 42 48 49 51 50 46 47 43 46 45 83 62 54 44 48 59 50 47 45 38 36 37 42 32 34 31 34 36 37 40 41
68 55 54 96 95 74 62 55 53 58 58 53 50 42 48 59 46 44 42 42 44 44 45 48 61 71 72 51 47 50 50 49 51 46 38 43 40 34 39 38 40 43 41 44 45

GFSSW_sfc_rhum_102.txt.gz
RH
63 61 60 67 75 79 84 88 80 69 68 69 64 61 62 72 67 64 68 40 37 44 49 38 34 33 35 49 46 44 68 66 51 41 34 24 25 20 16 17 15 16 19 35 67
62 60 62 65 65 72 79 84 82 71 69 69 64 63 68 70 66 60 40 46 42 52 47 40 37 35 44 43 52 58 67 58 36 30 30 25 24 23 21 20 18 18 18 24 66
61 66 59 60 61 65 71 80 87 75 70 70 63 62 70 66 66 40 49 47 53 51 38 34 38 43 58 49 43 50 68 47 41 34 30 29 26 22 24 27 21 21 21 23 52
62 61 63 61 62 64 68 80 91 85 77 68 64 68 71 62 68 38 52 58 54 43 42 44 50 61 68 62 40 48 39 38 39 34 36 35 28 29 25 25 26 25 28 41 52
67 65 62 62 63 64 67 74 80 85 77 68 65 71 69 64 50 44 54 48 40 41 45 48 58 61 65 54 49 53 47 38 35 35 35 32 34 32 30 29 31 26 30 43 60
69 67 64 63 64 65 68 74 79 82 72 66 69 74 74 72 30 35 39 38 34 38 45 49 58 53 66 68 68 52 50 50 47 46 35 36 35 34 30 24 29 31 34 54 57
70 69 67 66 65 65 68 78 87 85 74 70 75 65 67 56 29 29 32 35 38 40 48 49 57 69 70 70 54 60 63 60 55 46 46 39 47 42 29 24 27 31 32 54 56
71 72 67 67 66 66 73 84 84 83 81 75 79 68 70 40 38 34 35 39 38 41 50 50 58 66 75 67 63 67 71 88 51 45 44 48 64 40 29 27 28 33 36 62 51
74 72 71 68 67 67 91 88 84 76 74 73 74 78 63 50 47 37 37 40 40 52 52 47 65 81 77 92 86 68 90 83 69 46 51 52 60 47 32 30 30 30 61 69 59
71 74 74 70 67 67 87 89 86 83 81 68 69 80 55 54 43 34 33 35 47 59 69 76 80 88 90 96 93 80 82 64 64 61 81 66 61 51 39 37 42 58 60 61 53
74 74 75 72 68 77 82 93 93 94 91 76 67 55 48 45 41 45 36 46 50 55 79 81 98 96 70 66 72 68 76 77 55 51 89 68 58 51 56 77 52 68 76 74 62
74 77 71 68 82 79 83 94 70 86 91 77 62 55 49 49 52 46 39 56 62 77 68 94 94 65 61 59 80 90 83 71 55 66 85 66 58 52 57 79 61 55 66 73 76
76 79 78 75 83 90 81 79 73 62 85 68 58 62 57 55 50 51 49 51 56 65 58 95 68 49 74 81 92 75 74 63 82 89 68 75 79 65 54 64 61 60 62 62 81
75 80 81 72 88 83 93 88 85 74 100 84 68 60 56 58 60 37 43 52 51 62 51 63 61 64 68 81 70 78 58 59 95 97 99 73 98 86 85 83 73 61 64 79 96
79 79 78 74 83 79 84 85 79 74 99 88 78 55 56 61 52 50 47 55 59 50 59 65 67 90 81 73 74 72 65 76 81 91 100 96 92 98 94 85 70 76 80 94 96
80 74 71 67 75 78 85 74 78 99 98 98 77 78 71 61 42 50 57 57 56 62 56 63 52 75 72 71 71 69 78 70 70 85 99 99 99 100 99 97 86 89 96 96 97
78 73 68 51 78 75 71 86 100 99 90 87 75 66 74 61 60 49 52 69 83 93 86 66 65 62 75 90 83 83 94 98 99 99 98 99 97 100 97 86 86 93 98 97 96
74 69 66 51 78 73 81 98 99 91 99 61 60 60 88 54 59 52 56 66 53 56 90 92 95 81 83 92 96 93 96 99 97 97 99 78 98 100 91 85 79 89 95 89 91
68 73 69 65 72 76 93 99 99 99 77 61 58 61 60 52 54 52 57 64 59 58 97 90 98 74 81 81 84 85 93 58 98 77 97 99 100 94 87 86 75 78 88 95 91
88 78 81 62 67 84 97 99 99 73 65 57 74 53 56 51 53 56 54 56 66 60 67 92 98 85 83 84 82 88 66 80 89 96 96 90 90 99 98 91 80 75 80 78 74
78 80 83 70 71 92 98 100 98 58 58 71 73 48 39 48 62 89 63 67 64 66 75 84 99 96 89 86 76 77 66 60 54 64 76 89 97 79 86 73 74 78 65 54 52
80 93 85 83 95 96 100 96 89 66 54 57 55 46 44 47 56 61 72 73 64 77 95 77 92 98 75 60 58 67 56 49 84 67 72 90 91 55 53 54 54 57 49 54 44
98 98 89 86 92 93 97 84 81 65 60 61 56 48 47 55 66 60 60 64 54 59 66 59 77 95 79 68 62 62 46 48 65 84 76 89 86 46 53 50 46 46 44 45 45
88 100 95 94 83 68 92 87 71 67 60 55 52 46 52 53 52 62 60 65 63 55 68 66 70 86 92 88 76 79 53 50 73 83 66 69 65 56 57 54 51 48 49 52 53
81 88 77 96 84 75 83 76 55 68 61 57 55 50 49 57 55 63 59 58 55 61 59 59 88 87 60 58 63 63 58 51 63 54 76 60 58 53 54 54 52 49 47 50 53
77 74 68 75 74 76 82 70 56 62 68 59 56 47 52 63 59 58 55 55 58 52 57 55 87 80 70 52 58 68 57 58 58 46 49 50 56 46 47 47 50 48 49 53 54
73 64 61 86 82 69 61 61 59 63 64 55 56 56 64 67 53 53 52 51 57 59 57 60 80 86 84 68 63 74 61 59 62 58 52 63 55 48 49 49 55 55 55 58 58

GFSSW_sfc_rhum_105.txt.gz
RH
61 60 62 56 63 62 65 74 81 86 79 70 68 64 62 67 72 73 83 60 51 43 43 49 44 44 41 57 58 56 82 87 69 57 49 34 32 24 24 27 23 24 22 46 87
62 60 60 62 56 59 60 68 76 88 85 74 70 62 62 72 80 82 62 50 51 48 57 63 48 44 55 55 61 70 87 66 50 47 45 37 35 32 29 27 27 24 22 65 85
67 64 63 61 62 61 62 62 70 81 81 74 71 65 68 70 85 67 54 49 47 50 50 40 44 54 68 62 58 65 77 55 52 47 44 44 39 32 34 34 29 32 33 36 51
69 67 66 65 62 62 62 63 68 77 83 77 71 67 72 76 86 52 48 50 58 55 51 52 58 74 77 77 56 63 50 46 48 43 43 41 36 38 35 33 28 31 39 39 62
67 70 68 68 64 64 64 63 67 80 90 80 78 73 77 85 73 43 56 57 50 54 56 58 70 67 65 67 65 69 59 50 50 49 45 38 40 39 36 29 28 26 29 44 62
69 69 69 68 66 65 64 64 67 78 87 86 70 75 79 86 52 50 48 49 44 50 55 58 63 58 66 78 82 69 65 62 55 54 53 56 53 41 36 32 30 29 30 37 56
72 72 73 67 67 67 66 67 69 77 83 76 73 66 72 61 38 45 44 44 46 48 55 56 59 68 73 85 62 62 85 73 64 59 62 53 61 54 37 33 34 31 28 33 58
72 73 72 69 71 68 71 86 83 86 82 87 84 78 83 59 41 39 38 44 44 49 58 60 67 69 72 74 75 80 82 97 62 61 62 62 71 46 40 38 37 34 30 30 60
78 82 83 79 76 67 74 93 88 89 82 87 88 87 72 47 49 40 43 48 52 58 54 50 72 82 79 85 91 84 96 92 78 59 57 63 73 55 42 40 39 36 35 34 66
74 86 85 80 76 67 73 91 86 88 80 68 67 78 70 65 50 45 45 46 53 71 74 79 77 82 87 94 97 91 93 77 80 64 61 69 82 67 50 48 54 82 63 69 65
77 80 85 76 68 74 83 88 89 90 92 80 81 62 64 49 45 48 43 53 59 67 82 84 96 94 88 90 82 86 90 88 76 64 73 76 80 77 58 66 78 85 77 70 73
74 78 71 70 74 79 87 93 83 85 92 84 78 64 52 54 60 54 47 69 75 71 71 95 97 77 74 75 78 75 90 91 75 64 89 89 83 64 58 64 79 81 72 63 80
72 74 73 75 74 87 87 92 92 82 90 93 78 73 60 58 56 64 55 62 65 77 72 91 73 63 73 82 90 89 89 85 81 72 84 88 91 78 63 63 68 76 68 69 70
72 76 72 76 77 90 88 82 84 82 99 96 82 72 63 63 70 50 54 64 64 68 66 73 59 68 72 72 82 94 64 64 87 98 98 93 97 92 93 89 78 82 79 73 77
76 78 77 73 88 86 88 88 88 88 98 92 83 61 61 70 58 61 54 64 74 66 67 68 79 92 90 79 80 80 77 87 86 95 100 89 99 97 96 87 87 86 82 78 93
76 75 72 78 87 88 87 87 85 98 98 99 84 87 77 69 56 63 69 66 65 76 69 70 64 76 79 77 77 74 85 86 83 90 99 99 99 99 100 96 87 90 88 91 96
73 71 68 65 92 85 79 87 96 98 95 92 87 78 77 72 58 65 71 89 90 92 86 74 78 73 77 91 84 89 95 97 99 99 99 99 97 100 98 87 82 94 97 97 96
72 73 73 72 84 79 88 95 95 96 93 73 70 88 88 70 66 60 67 76 72 81 96 98 92 84 82 87 96 86 98 99 97 98 99 98 98 98 94 95 95 93 96 94 95
76 88 90 88 76 85 93 98 100 100 85 69 69 74 72 63 63 67 68 73 72 57 97 92 97 79 81 78 84 87 99 93 100 99 97 99 100 97 85 94 94 96 94 95 93
95 92 93 79 74 88 96 99 99 76 71 78 84 58 73 64 64 76 70 70 70 75 75 90 97 87 82 82 87 92 80 97 98 97 96 96 97 99 100 95 91 94 93 91 87
93 95 86 86 86 94 99 100 94 69 65 83 79 59 52 55 74 89 88 77 69 86 80 94 100 97 89 94 87 90 79 69 65 76 85 94 98 98 96 84 87 77 66 79 88
92 97 86 93 95 97 96 94 82 79 61 65 66 58 50 60 68 86 84 83 79 78 95 85 93 99 81 63 65 71 72 55 86 69 87 93 99 83 83 81 71 79 51 49 50
98 98 89 93 98 96 82 78 80 68 66 69 63 53 55 68 70 66 73 69 70 67 67 65 86 95 81 67 63 76 58 57 68 80 86 92 99 63 58 56 50 53 59 52 52
97 96 95 96 91 90 86 89 80 74 70 66 66 52 56 62 62 69 75 69 66 62 67 67 74 86 96 85 81 79 62 59 72 90 85 98 94 68 65 60 56 58 61 62 61
96 94 87 97 93 90 91 88 76 81 69 63 57 63 65 75 68 70 65 65 62 63 62 65 85 87 66 64 66 70 70 65 68 67 80 83 74 69 65 64 60 58 58 60 60
93 94 84 80 85 88 84 78 76 73 72 73 76 68 71 79 78 77 66 67 74 61 62 67 85 82 72 60 61 70 62 66 61 58 63 65 70 59 62 59 60 59 61 64 64
93 86 77 84 91 91 78 75 75 76 69 69 74 72 76 74 70 70 66 61 68 69 69 67 84 88 86 69 69 77 66 66 69 65 60 71 62 57 62 59 64 66 65 68 68

GFSSW_sfc_rhum_108.txt.gz
RH
67 63 61 60 61 58 57 58 64 72 91 80 76 68 64 67 73 76 90 72 64 46 36 53 48 48 44 57 57 59 82 94 74 63 60 39 42 35 29 31 29 26 27 44 76
79 80 77 69 63 62 62 60 61 68 85 82 78 71 64 70 86 90 67 59 50 48 58 64 52 49 58 57 62 72 90 75 57 54 57 48 48 42 38 37 34 30 29 35 40
80 79 78 76 76 71 61 62 62 63 74 87 82 73 67 74 85 79 61 61 51 50 47 45 50 56 69 64 64 71 84 58 54 53 50 53 50 41 41 41 34 36 35 41 53
75 74 72 70 72 74 66 64 62 62 71 85 76 69 74 70 78 56 59 54 51 56 48 55 60 74 80 78 65 72 56 56 55 49 52 49 40 40 40 38 33 30 33 43 49
67 72 73 72 70 68 64 64 61 61 69 81 76 74 79 88 80 46 53 55 54 54 58 62 69 73 80 77 72 76 68 59 57 60 58 53 57 50 42 33 32 31 32 40 48
65 72 74 77 76 72 66 66 64 62 74 88 82 83 79 86 53 49 58 52 52 53 57 62 65 61 77 80 80 73 71 69 65 61 57 60 58 60 49 39 36 34 36 39 42
69 72 75 76 74 72 67 68 69 75 71 90 88 80 89 66 53 51 46 52 50 52 60 64 59 60 76 84 72 64 84 74 74 72 70 63 73 68 46 43 39 35 32 36 42
67 70 71 85 79 73 68 72 83 81 77 88 81 88 90 58 49 48 45 51 48 56 60 62 64 73 72 76 74 89 86 97 63 67 66 67 77 53 45 48 46 41 36 36 41
71 71 75 82 81 75 68 77 81 85 89 83 87 87 88 53 56 43 44 54 55 61 55 54 70 76 76 83 86 88 94 95 84 62 65 68 76 58 51 49 48 46 44 43 46
70 82 88 78 80 79 76 86 86 87 87 73 84 95 73 65 51 47 49 52 66 74 76 75 81 83 80 86 91 86 92 84 83 66 66 77 78 62 56 64 56 50 59 70 66
72 77 80 79 77 72 87 86 89 94 93 85 81 69 66 54 47 56 49 56 62 76 89 86 94 92 89 82 82 90 95 97 78 64 77 83 83 73 68 74 70 74 81 79 71
72 74 75 72 82 76 86 90 85 85 94 86 68 58 56 50 59 57 52 70 76 86 79 90 93 78 74 77 82 89 91 77 71 68 87 84 82 71 63 69 66 66 80 78 75
73 73 73 72 74 86 90 93 90 91 96 90 86 70 67 57 64 67 57 68 78 82 77 91 72 66 80 83 90 80 83 84 90 74 83 90 93 87 73 69 67 72 81 77 73
76 76 74 76 82 89 90 87 89 87 99 98 92 91 70 64 67 55 57 67 70 77 76 81 64 68 74 80 66 90 60 77 80 92 94 86 96 91 92 90 84 85 84 80 76
76 75 74 71 87 91 87 89 91 86 96 94 92 61 63 75 66 66 55 66 78 70 68 72 73 86 92 84 76 80 75 86 90 93 100 90 99 87 88 83 87 87 84 81 78
72 71 71 76 90 94 91 91 82 90 98 99 88 88 79 73 63 68 70 65 68 79 80 78 67 78 78 79 80 77 90 89 91 95 99 94 99 97 100 97 84 84 86 79 95
75 73 76 75 95 88 82 86 93 96 95 99 93 80 79 79 72 72 80 91 90 94 82 78 81 75 79 89 80 84 95 98 97 99 96 99 99 100 96 87 83 82 96 95 95
78 76 81 77 87 87 88 90 93 87 95 73 82 85 84 75 77 70 73 80 76 83 97 97 89 86 87 85 92 89 95 98 97 97 98 91 98 97 94 92 87 94 96 97 97
78 91 94 90 79 88 91 96 100 97 91 80 95 84 84 74 69 72 75 74 74 69 93 89 88 78 80 75 83 88 99 96 100 100 99 98 100 99 92 92 94 97 95 97 96
97 93 92 88 90 89 95 98 99 81 81 78 86 65 81 71 68 80 80 76 84 83 80 94 96 83 79 81 88 93 88 99 99 97 96 89 98 98 100 96 93 95 97 97 94
91 90 80 85 83 93 99 100 95 74 76 92 83 60 55 70 81 86 93 83 79 85 81 94 100 87 88 91 84 94 98 92 78 89 96 96 98 99 98 91 85 95 92 91 93
94 93 81 90 95 96 96 93 82 82 70 70 74 58 53 63 82 96 97 88 73 76 92 90 86 97 80 63 65 69 73 65 84 87 87 97 99 92 92 84 65 65 84 70 78
97 98 87 88 96 97 87 84 83 78 74 73 68 60 58 71 80 82 80 68 72 83 82 83 88 94 71 60 66 80 65 59 69 76 92 94 99 75 80 80 70 64 59 59 61
94 91 92 96 95 92 91 87 78 73 76 68 71 59 61 71 68 75 76 70 70 68 68 66 78 85 91 81 78 80 71 66 73 90 94 97 96 78 69 66 65 68 70 70 71
95 92 88 99 92 91 90 88 80 83 73 68 70 76 69 82 74 79 69 65 62 63 68 62 84 87 71 68 70 70 74 68 78 77 81 88 83 74 69 68 71 70 67 69 70
94 92 91 92 86 89 83 78 79 78 74 77 81 74 76 85 87 84 75 75 80 65 70 72 84 85 69 63 66 69 66 69 70 71 80 81 80 67 68 68 72 70 69 73 74
95 90 80 86 91 92 81 74 75 78 75 76 79 77 75 76 76 72 74 67 76 77 72 71 84 88 75 72 68 64 66 69 74 69 70 83 69 66 70 64 72 72 72 75 77

GFSSW_sfc_rhum_111.txt.gz
RH
81 80 82 82 76 67 63 62 59 61 71 82 86 76 67 66 71 75 94 70 66 48 37 55 45 44 45 59 58 61 81 91 80 77 66 48 49 40 37 38 38 30 32 44 40
80 78 78 78 77 77 80 64 60 61 63 72 88 76 68 70 88 81 70 60 59 48 56 53 53 49 62 61 65 70 87 71 64 60 61 53 56 50 45 43 44 34 30 32 38
73 75 74 75 74 73 74 75 63 61 61 70 84 78 72 71 78 75 65 59 52 50 45 50 53 56 68 67 66 77 82 67 57 54 55 58 53 50 47 47 42 37 37 36 40
65 65 69 73 73 73 72 70 72 60 59 66 88 84 78 68 73 56 57 62 53 52 52 57 62 72 78 70 69 76 62 62 62 54 58 58 50 54 47 42 36 34 34 38 42
80 65 65 71 75 74 72 68 65 60 58 63 87 88 70 84 72 44 61 54 56 56 57 64 71 77 80 80 75 81 71 64 64 67 67 61 65 62 58 47 40 37 37 45 50
73 68 68 71 73 76 70 69 65 64 61 64 83 81 72 79 51 50 54 53 55 55 64 64 67 64 79 83 80 79 76 73 69 69 66 68 63 65 55 51 46 42 42 45 47
65 63 68 69 71 73 70 70 68 68 69 67 78 75 78 80 59 51 48 54 54 52 62 67 63 64 77 83 77 76 85 79 74 73 78 70 80 74 52 49 51 47 42 41 51
65 69 69 68 76 82 69 69 72 79 78 74 84 81 91 75 64 49 48 54 56 58 64 65 64 74 72 78 73 89 86 96 63 74 69 66 80 56 52 56 55 50 46 44 45
71 79 82 80 71 83 75 74 76 79 73 88 89 88 96 74 78 44 45 55 62 60 63 54 66 73 71 83 82 88 95 93 83 67 67 73 81 63 55 54 55 51 50 48 48
70 75 81 86 78 78 79 76 93 82 90 79 86 88 87 75 72 69 49 58 71 76 77 75 83 79 69 84 91 87 92 87 91 68 70 74 75 62 56 63 62 59 58 54 55
73 73 75 77 74 76 76 92 89 90 88 88 84 79 78 58 70 77 53 57 74 84 91 89 93 95 88 84 85 86 91 84 79 68 73 81 80 71 62 73 82 82 80 66 62
72 74 72 73 74 73 84 86 88 85 97 85 71 70 68 58 77 60 54 71 79 94 90 89 92 79 74 78 83 78 85 76 73 69 76 79 85 71 65 72 75 77 77 77 74
76 74 72 73 74 84 94 91 94 95 96 91 81 75 69 57 66 69 59 72 81 88 83 90 70 66 81 87 93 79 85 71 76 75 72 85 92 88 76 80 77 73 73 75 79
74 72 72 74 79 88 91 90 92 90 98 99 92 80 67 68 74 59 60 68 76 82 80 83 66 69 76 83 73 88 63 64 67 93 92 79 94 82 93 86 83 85 87 84 79
75 75 71 78 92 94 97 88 91 82 95 96 91 61 68 76 70 70 60 66 83 74 76 75 73 85 88 86 77 84 78 89 92 97 99 82 97 86 93 90 89 88 85 87 82
78 77 74 80 93 92 90 92 79 85 98 98 89 85 85 75 71 72 71 65 72 82 82 81 68 79 79 79 80 79 89 89 94 96 98 93 98 94 96 96 91 87 84 85 82
76 76 78 80 97 89 86 88 91 95 94 98 94 88 82 83 78 78 84 88 89 93 88 81 84 74 79 91 82 88 96 97 93 100 94 99 99 97 96 89 90 91 84 99 96
80 77 84 78 91 90 88 87 90 89 88 81 87 82 84 77 78 76 78 81 82 85 94 94 83 86 85 82 87 88 90 99 97 100 96 96 98 99 94 88 93 93 94 94 98
78 91 91 85 87 89 89 97 100 92 87 89 89 84 86 79 75 74 79 78 73 75 93 84 81 78 83 76 80 88 99 95 100 99 98 98 99 97 90 89 92 95 95 97 97
96 92 87 83 90 87 93 93 96 88 86 80 85 69 82 75 74 80 81 78 82 84 85 94 97 78 79 80 84 90 91 99 100 97 96 97 98 98 99 98 92 96 97 96 94
90 78 71 83 84 92 97 99 92 75 80 90 83 61 62 76 77 88 96 86 78 84 83 88 96 84 92 96 88 97 99 98 97 93 96 95 99 100 100 98 96 95 95 92 89
93 88 76 85 92 97 98 92 82 85 75 75 79 57 54 74 96 96 98 88 72 80 90 88 88 98 78 67 69 76 86 76 98 90 90 98 99 95 95 94 84 84 82 68 66
95 95 83 83 96 98 87 82 84 79 78 77 74 67 63 75 86 91 88 69 75 86 86 83 88 95 66 63 69 78 68 62 75 84 96 94 98 83 87 82 69 67 68 70 67
90 92 93 95 94 91 94 87 81 73 77 72 74 66 68 76 74 80 76 70 74 80 76 66 81 83 91 83 81 79 73 71 77 92 88 96 94 79 76 75 74 75 76 78 79
96 93 91 98 93 92 90 86 84 87 74 72 69 79 79 82 79 83 78 70 66 65 78 65 81 87 70 68 69 73 79 76 83 81 78 88 87 78 76 78 79 76 76 77 78
94 92 93 93 88 88 82 80 82 82 82 78 82 77 80 86 87 87 86 81 81 73 77 76 87 85 71 64 70 69 69 72 75 82 86 87 85 69 74 77 79 78 76 80 81
97 93 78 86 90 89 87 82 81 83 74 80 84 82 76 79 79 75 77 78 78 79 76 76 85 86 74 74 64 58 73 78 79 77 79 84 72 72 75 71 79 78 78 82 82

GFSSW_sfc_rhum_114.txt.gz
RH
71 75 75 78 81 81 80 75 60 59 60 70 78 84 73 70 72 76 95 71 67 46 43 48 44 46 49 60 61 64 81 83 74 80 63 54 53 44 43 45 42 35 35 43 38
75 72 72 73 77 77 76 78 73 61 59 62 75 84 75 72 86 83 67 60 51 47 52 49 54 51 64 62 68 68 72 64 67 68 64 58 59 56 52 50 50 38 32 31 36
86 81 73 72 75 76 74 72 71 64 60 57 68 84 73 70 80 76 62 61 58 49 51 53 54 56 68 64 68 81 71 70 60 56 58 58 55 54 55 54 48 44 36 38 39
81 87 76 67 67 70 75 74 69 69 60 53 66 88 85 70 80 52 62 58 53 51 53 56 59 68 75 68 71 75 67 66 64 63 68 69 58 64 53 51 41 38 38 43 44
78 77 73 69 68 69 72 74 72 66 60 55 68 87 73 88 71 48 64 59 52 54 57 62 69 74 77 81 76 82 74 68 67 69 69 65 70 68 63 49 46 46 45 51 52
66 66 65 68 68 70 71 70 73 66 63 58 73 88 85 88 69 56 48 53 53 58 64 62 67 67 80 84 81 85 79 76 72 72 70 72 70 69 61 60 53 51 51 52 54
67 69 68 67 67 72 72 72 68 66 67 64 72 86 90 92 68 56 48 56 52 55 68 68 62 66 75 83 80 79 86 80 75 75 74 74 75 79 56 58 55 51 49 50 55
68 72 75 71 66 77 78 70 72 71 72 71 75 87 96 85 76 54 45 55 60 60 66 66 64 72 74 82 72 88 84 83 62 78 69 65 80 53 52 59 59 55 48 49 53
69 70 81 78 70 68 76 77 76 78 82 75 86 86 97 83 82 68 47 60 63 67 66 52 64 74 71 81 83 84 95 93 81 67 71 76 82 66 61 61 57 52 52 51 52
72 74 75 77 80 81 79 83 76 80 78 76 85 84 94 92 81 56 55 61 74 77 78 76 82 81 76 93 89 90 93 83 90 73 74 82 80 64 57 61 64 61 60 61 62
72 73 74 77 69 68 77 85 85 89 88 93 84 80 85 82 57 66 56 64 74 79 95 87 92 97 86 84 81 75 70 70 65 66 75 83 81 71 62 69 77 75 75 75 73
73 73 74 74 73 75 81 89 91 95 98 88 80 85 81 67 80 65 57 73 84 94 93 92 94 79 74 80 86 83 84 86 70 69 80 80 80 67 64 69 75 77 82 84 76
75 71 75 72 72 83 89 96 95 94 96 95 89 84 82 72 75 70 61 74 81 86 90 87 72 70 79 89 96 94 96 88 76 62 74 81 91 81 73 82 81 81 82 79 77
77 72 77 68 80 91 96 92 94 92 98 100 93 85 68 66 77 60 62 70 81 79 81 84 68 70 78 85 83 97 74 71 64 79 96 75 94 78 89 89 81 87 90 88 85
75 76 73 75 89 93 94 94 92 83 92 93 92 62 71 72 71 69 62 68 85 79 76 71 76 87 89 86 78 85 80 91 93 95 100 88 99 84 86 89 88 84 86 87 85
74 74 75 87 91 94 90 87 76 84 97 94 84 86 77 72 77 76 74 66 74 84 85 78 71 80 76 73 76 75 92 89 95 97 99 91 97 92 98 98 92 82 83 81 96
76 73 80 78 92 90 91 85 89 94 94 90 94 90 81 84 78 79 85 87 84 89 91 82 86 77 76 91 84 92 96 96 92 99 94 98 100 100 97 92 95 95 94 95 92
78 73 80 78 92 93 86 84 90 88 86 86 91 86 86 80 76 78 82 84 82 88 94 91 85 85 86 82 84 88 96 98 98 98 95 93 98 98 92 83 87 90 92 88 91
75 90 84 79 88 89 90 95 99 88 89 90 89 83 86 81 79 83 83 81 69 86 90 78 85 80 86 78 78 90 100 93 100 95 98 98 99 90 85 93 87 91 92 96 96
92 86 76 80 88 88 92 92 97 88 88 84 84 75 84 78 79 85 85 76 87 78 87 83 96 77 84 80 82 90 89 100 100 98 96 97 98 98 98 98 93 94 95 95 94
86 75 66 80 82 88 97 96 91 80 81 90 84 66 70 82 82 94 95 86 78 82 84 86 96 85 92 94 94 97 99 99 98 97 96 94 98 100 100 100 98 93 89 90 89
86 88 72 83 90 97 99 89 82 84 78 79 84 60 57 94 95 94 95 86 77 82 88 85 89 96 79 71 72 88 94 90 96 97 89 97 99 93 95 92 83 81 78 74 71
90 88 81 82 94 97 87 83 83 81 81 77 76 72 63 75 81 90 91 71 76 87 89 86 92 96 65 67 70 80 78 72 78 84 93 90 99 81 87 86 71 71 72 72 71
89 87 91 95 94 90 94 90 84 76 80 77 80 74 71 77 78 83 79 71 80 84 76 73 84 82 91 81 82 84 73 77 84 94 94 93 98 88 78 74 77 81 78 80 78
95 95 91 97 92 90 89 87 87 86 79 77 77 83 89 82 78 84 83 72 68 65 81 68 82 88 74 70 72 74 76 81 84 83 78 84 88 76 74 82 84 81 84 83 81
93 95 94 94 89 84 82 87 89 87 86 84 85 85 81 86 89 89 86 84 82 74 79 78 86 86 73 65 72 69 71 76 82 90 90 88 84 73 79 82 83 81 82 85 88
98 90 76 86 88 85 88 86 85 87 80 81 86 87 81 82 79 78 79 82 82 84 79 79 85 86 74 74 65 62 65 78 79 80 82 86 73 77 80 75 79 81 83 85 86

GFSSW_sfc_rhum_117.txt.gz
RH
69 90 69 75 78 81 80 81 81 68 59 79 81 84 83 73 76 76 85 59 62 47 47 41 41 44 46 56 56 55 59 58 52 63 44 46 45 38 38 36 32 29 26 28 31
76 87 84 81 81 78 78 82 78 74 62 57 78 85 84 77 79 84 62 58 56 45 46 47 49 47 57 55 62 60 50 48 52 57 50 50 49 46 42 40 38 34 29 27 30
72 83 86 87 81 82 82 81 72 70 61 57 60 88 85 74 63 63 58 60 54 48 50 48 49 51 60 56 62 66 55 57 52 50 55 53 50 44 46 46 40 34 31 31 36
76 81 79 83 78 72 83 83 76 68 60 53 62 86 77 69 86 50 57 64 55 51 51 52 54 61 64 63 62 52 60 61 58 59 64 61 55 56 49 38 32 34 35 38 40
71 71 76 74 72 67 67 72 76 73 60 56 59 88 85 88 79 60 63 53 49 52 54 56 62 61 67 71 62 63 68 65 63 66 64 61 62 57 56 44 40 42 44 46 48
68 68 68 66 66 67 69 67 69 73 64 59 83 81 77 89 84 68 54 48 52 54 59 58 61 61 73 74 64 72 74 72 67 66 64 65 61 62 50 49 49 49 48 47 50
69 71 73 69 67 72 73 72 70 68 66 67 87 85 81 96 84 79 57 52 51 55 65 59 58 62 66 75 70 72 72 70 64 65 68 68 72 76 50 51 50 46 44 47 50
69 72 74 74 70 73 73 72 70 70 65 68 81 86 94 88 89 79 52 59 57 58 62 61 61 69 67 66 64 77 68 60 50 64 63 58 61 48 45 51 50 48 46 45 42
71 74 74 71 70 71 78 80 78 74 73 75 83 82 97 89 84 68 50 60 65 65 61 50 60 68 66 76 68 72 74 84 74 60 67 69 72 58 51 48 51 49 50 49 50
71 76 74 79 76 79 77 72 70 72 68 63 76 86 90 96 82 60 58 64 72 70 73 70 79 80 78 80 56 82 87 76 80 65 65 74 76 62 56 55 54 53 54 54 57
72 74 74 70 70 71 75 81 85 87 86 84 83 86 88 84 64 64 56 65 69 72 91 81 86 88 73 73 66 76 73 78 68 60 73 77 76 63 56 59 61 65 69 66 66
73 76 72 73 73 70 80 93 98 89 98 87 84 90 85 75 73 61 53 76 77 96 85 81 88 72 69 74 79 83 90 85 70 65 75 71 69 58 61 64 68 68 70 72 71
72 75 76 68 70 81 93 99 95 92 97 93 89 86 90 71 76 69 59 71 76 81 83 77 73 71 73 82 88 89 90 84 77 67 63 72 79 69 57 71 70 66 69 71 73
74 72 78 67 77 89 96 92 92 91 97 100 93 88 75 68 76 59 61 67 76 73 77 75 66 69 79 82 82 90 74 73 77 86 93 68 93 73 78 75 71 74 73 76 75
72 71 73 81 92 96 91 94 94 85 93 92 87 63 70 70 68 64 62 66 81 76 70 62 75 82 87 80 76 77 75 86 90 96 100 82 98 77 77 79 89 83 73 78 79
75 72 72 83 91 88 93 88 67 84 97 96 80 84 73 74 78 73 69 64 73 80 81 74 67 77 71 70 75 70 86 86 90 82 98 80 92 86 98 99 93 82 87 90 86
77 72 79 78 80 89 91 81 89 94 90 86 88 85 78 80 78 79 82 79 78 85 89 77 80 75 72 84 80 90 93 97 90 98 91 85 99 98 96 93 94 96 88 88 85
78 71 78 72 90 94 84 84 90 83 88 87 90 85 82 77 71 75 78 79 78 84 94 96 82 81 83 81 72 85 88 97 98 93 90 88 96 96 80 85 84 82 86 85 89
75 85 79 77 89 89 88 93 97 83 90 88 87 79 84 81 75 78 82 80 68 83 87 78 90 76 85 77 73 94 99 85 100 92 96 91 98 92 78 92 91 91 86 89 91
89 81 76 79 88 87 90 92 97 89 88 84 77 73 80 75 72 83 82 66 74 73 82 84 91 74 80 79 79 90 85 100 99 98 93 86 97 98 98 99 96 95 94 88 89
78 71 66 84 79 88 97 98 92 82 82 85 86 66 74 90 90 96 88 74 77 83 81 91 96 81 87 89 97 97 99 98 98 98 94 91 94 99 100 98 96 90 84 83 85
84 85 70 80 90 97 97 92 80 86 81 81 85 68 76 90 83 94 95 82 78 81 88 85 89 97 83 70 75 88 94 92 95 96 91 92 98 86 87 90 84 83 75 70 69
86 84 80 78 91 96 85 84 85 82 84 82 81 77 71 83 86 90 89 74 79 84 86 82 93 96 68 67 68 76 77 78 74 83 89 85 95 81 78 80 75 70 72 71 71
86 82 88 95 93 86 91 87 84 78 83 80 82 78 78 82 80 85 80 72 82 82 76 78 84 83 89 73 76 78 72 74 82 96 82 83 94 95 85 79 68 72 74 75 75
94 94 90 92 90 89 88 87 88 86 81 78 78 87 89 86 81 86 86 77 73 67 84 75 87 88 79 74 71 73 70 78 87 77 78 79 95 79 73 69 73 72 74 76 78
89 93 94 94 90 84 80 89 89 87 88 81 83 84 83 85 82 86 87 85 83 78 81 78 86 85 77 65 67 73 64 76 77 84 85 84 82 65 67 71 74 75 77 78 80
98 90 75 88 88 85 84 85 83 88 80 84 86 87 83 79 78 77 79 81 82 87 82 80 86 89 82 72 66 62 59 69 72 73 77 82 66 71 73 74 74 77 79 79 80